GFSSE_sfc_rhum_000.txt.gz
RH
97 97 87 82 81 78 76 70 68 66 62 64 62 64 64 60 57 58 60 55 60 58 54 59 62 66 72 73 70 68 70 63 60 62 66 73 71 67 63 69 66 71 64
93 96 87 83 79 78 76 71 70 67 62 60 58 57 57 55 55 56 58 56 55 53 54 57 60 62 61 66 66 67 67 62 61 63 69 74 78 71 66 63 64 71 69
95 91 84 83 80 79 78 72 71 69 62 59 57 55 57 55 59 60 59 55 56 57 55 57 57 55 58 61 63 64 62 62 62 66 70 86 87 74 68 66 67 64 64
91 90 87 85 83 81 78 73 71 68 65 60 57 54 53 57 57 55 58 54 56 59 57 57 58 55 57 61 63 63 62 64 67 72 83 81 77 63 68 64 67 63 62
90 88 87 87 86 83 78 74 71 69 65 60 60 59 64 63 66 60 59 54 62 63 60 60 61 62 63 61 60 58 61 64 74 79 86 89 88 62 64 63 64 64 63
90 92 92 89 87 86 82 75 72 70 66 63 60 63 63 71 71 68 63 70 69 67 64 60 62 64 67 69 69 67 64 63 77 92 93 84 78 66 54 62 66 64 64
86 89 92 89 89 86 82 79 74 70 69 64 64 63 67 69 71 72 70 71 69 66 62 62 63 62 64 67 70 73 71 77 86 93 92 84 78 67 62 59 58 62 64
87 90 90 91 89 86 85 84 80 74 70 67 66 65 68 68 69 72 71 71 68 66 64 66 67 69 68 66 67 70 77 83 86 93 91 87 78 68 62 60 62 61 61
91 96 97 94 92 92 90 88 85 81 77 73 70 68 73 73 68 69 76 73 70 69 69 71 72 68 69 71 72 74 82 86 94 97 88 88 79 71 66 63 63 62 63
96 96 97 97 96 96 97 91 89 86 85 83 82 84 87 84 81 76 84 80 74 75 76 73 71 72 73 74 75 81 85 87 94 96 96 91 80 74 70 67 64 62 62
92 96 97 97 97 97 96 93 90 88 89 88 86 87 87 93 87 86 87 84 84 77 75 75 75 77 84 87 86 87 88 97 94 94 92 84 77 73 69 66 65 64 62
83 91 95 96 96 97 82 94 96 91 96 95 94 92 95 92 88 76 87 87 82 82 84 79 79 85 89 97 98 92 90 90 95 92 90 80 76 72 70 69 72 72 71
70 76 83 92 92 96 87 97 99 98 98 97 94 93 94 84 85 86 90 90 91 88 93 90 90 91 91 92 95 94 87 89 96 90 84 80 77 72 70 70 73 74 74
75 72 76 83 91 93 93 93 96 97 97 98 95 92 93 91 93 92 93 90 91 95 91 82 80 68 70 74 82 80 77 85 93 94 93 87 80 65 66 60 66 69 72
73 74 77 83 85 87 92 94 92 92 91 86 86 81 86 92 94 94 95 92 83 74 68 59 65 65 64 64 61 60 64 74 75 78 86 82 76 71 68 63 64 64 66
68 74 78 83 88 89 92 94 94 90 75 85 86 84 84 90 93 83 48 51 58 65 61 59 59 62 59 62 54 58 58 58 62 63 65 71 75 74 60 52 52 58 64
70 78 79 86 89 92 94 91 89 71 72 73 70 58 60 60 47 46 46 56 65 63 56 54 52 50 56 52 56 54 50 50 56 53 60 57 63 69 62 51 59 47 50
64 68 76 75 90 93 94 85 83 70 60 44 39 40 41 44 49 51 54 57 61 56 52 51 53 49 57 58 56 50 49 51 52 52 52 46 54 53 54 57 45 43 43
68 67 71 90 88 91 83 56 45 42 43 42 46 44 43 45 48 51 51 54 54 52 50 50 45 54 58 54 47 49 42 53 59 36 40 42 53 49 47 55 55 52 46
72 73 78 88 78 53 45 41 42 42 50 47 47 44 42 42 42 47 45 48 50 48 50 49 46 50 57 59 46 40 44 58 51 28 36 40 43 36 48 40 46 42 50
86 85 92 74 52 49 46 43 41 54 51 47 41 38 38 38 40 43 46 46 51 48 50 48 52 55 58 62 62 50 61 55 40 24 42 29 42 24 42 29 39 37 42
88 91 83 63 54 52 50 59 51 50 56 50 43 36 34 35 38 38 45 48 49 50 46 50 55 57 62 64 63 69 65 58 42 28 38 36 30 37 35 30 40 43 38
89 85 76 64 60 57 53 49 57 54 59 54 48 40 36 35 38 41 42 45 49 51 51 50 53 54 59 62 56 58 64 67 45 49 36 41 29 49 32 47 36 38 37
80 74 67 60 58 52 46 47 43 49 56 61 54 44 38 35 38 39 41 42 44 48 44 46 41 52 53 55 60 49 58 62 61 54 51 34 46 31 44 46 45 46 30
73 73 69 62 57 62 59 55 59 61 62 61 51 41 37 37 38 37 38 39 41 46 43 42 44 43 52 52 60 64 58 59 59 62 50 49 35 34 38 43 53 38 36
68 66 65 61 62 62 57 58 58 58 54 51 50 48 45 43 42 36 34 37 37 39 41 44 42 40 43 48 51 54 60 59 47 50 49 47 41 38 43 41 47 38 43

GFSSE_sfc_rhum_003.txt.gz
RH
94 94 86 79 77 78 74 68 67 65 64 62 62 66 67 66 65 62 63 60 58 58 54 55 62 64 72 74 70 69 70 64 58 62 66 69 73 72 65 63 69 72 65
90 95 88 81 77 76 74 70 68 65 64 61 59 62 57 55 56 58 62 59 54 55 54 56 61 58 61 66 68 68 69 66 63 64 70 74 77 74 68 70 60 72 69
90 96 88 86 82 77 76 72 70 66 63 61 56 55 57 55 59 59 61 58 59 57 54 55 58 57 59 61 64 66 65 64 64 67 70 89 89 74 70 68 65 63 64
94 95 90 87 81 79 78 74 72 68 62 60 58 57 59 59 61 56 56 51 52 58 56 55 58 58 57 60 63 64 64 62 66 74 87 85 82 71 66 62 66 65 63
95 96 89 86 84 82 78 74 72 69 65 60 59 60 62 60 62 62 51 56 58 61 60 60 62 64 66 66 63 60 57 59 74 82 92 93 93 72 64 60 64 63 65
98 96 93 88 87 86 82 76 72 69 66 60 60 62 62 67 68 65 63 71 70 67 63 62 64 66 66 70 71 71 69 68 75 92 95 93 88 73 65 58 60 64 64
98 96 96 90 88 87 83 78 73 70 66 62 59 63 64 68 67 70 71 70 69 67 62 62 64 66 66 66 67 68 71 79 87 92 94 94 88 72 64 62 61 59 59
93 96 97 91 90 88 85 82 79 71 68 62 64 64 67 67 69 70 72 72 70 67 66 67 69 70 70 69 68 68 76 83 90 94 95 95 85 74 67 64 62 62 62
91 97 98 96 93 89 87 85 82 77 75 70 70 69 71 73 68 71 76 73 71 72 71 73 75 71 69 71 73 76 82 86 94 97 92 96 86 77 73 70 67 65 64
98 97 98 98 97 96 96 91 89 85 82 80 80 80 86 85 82 74 85 81 76 76 77 76 73 74 76 77 77 83 87 89 95 95 97 96 83 76 73 71 70 68 67
95 98 98 98 98 98 98 94 91 90 88 88 87 88 88 93 90 89 90 86 84 80 77 76 77 79 85 88 88 89 90 98 96 97 98 87 81 76 73 72 72 70 69
98 98 94 98 98 98 88 96 96 94 97 96 94 93 95 93 91 80 90 90 85 85 86 82 82 84 88 97 98 92 98 95 97 96 96 85 80 73 66 69 73 72 71
93 96 98 98 98 98 96 98 99 99 99 98 95 94 95 91 92 94 95 95 95 90 90 93 94 89 80 84 82 83 78 86 95 96 91 83 70 62 58 63 67 70 71
85 85 90 96 97 97 98 98 98 99 98 98 97 94 96 95 95 95 97 92 89 96 89 70 64 62 58 60 62 61 61 68 74 82 84 75 69 64 62 60 59 61 69
80 81 85 93 96 97 96 98 98 98 98 96 96 94 92 96 97 97 81 66 63 60 62 59 58 53 56 55 51 54 53 60 58 64 75 73 71 59 53 52 57 60 57
49 79 85 87 94 94 96 95 96 96 94 91 92 88 88 96 88 58 56 55 54 62 59 54 52 53 54 54 45 49 51 46 54 58 65 62 62 54 55 56 49 48 47
67 82 86 90 89 91 95 92 88 85 76 78 73 66 62 46 44 46 50 56 61 54 50 45 44 50 51 44 47 48 51 46 56 49 50 49 61 58 57 46 46 45 46
76 89 90 80 91 93 92 77 74 66 48 43 43 43 42 43 43 47 56 60 54 48 49 45 50 49 55 53 52 51 52 45 53 34 40 44 58 45 52 43 47 44 49
76 88 92 94 94 94 78 52 48 42 42 42 41 42 46 41 42 48 55 56 49 50 51 48 45 53 58 49 44 50 50 50 51 26 38 38 48 39 51 42 50 48 49
74 74 94 94 90 59 47 45 43 42 41 40 41 40 43 44 43 47 50 50 47 49 52 49 47 50 60 60 48 44 51 59 47 34 44 31 40 32 52 38 54 49 49
83 80 96 84 58 52 48 44 42 45 40 38 36 39 40 42 43 45 51 50 50 49 52 47 53 55 56 62 67 59 61 57 46 33 44 39 36 36 43 37 41 45 52
88 91 88 63 55 52 49 51 44 39 45 45 42 39 39 41 41 41 48 50 47 47 45 47 54 54 56 62 64 72 64 58 51 25 40 42 36 45 34 34 42 44 52
94 94 67 58 58 55 49 44 44 42 50 45 43 42 40 40 42 43 44 46 47 49 50 48 51 49 52 52 60 52 52 64 53 49 31 42 28 48 34 48 45 43 49
94 90 64 61 61 50 40 39 34 39 45 53 49 43 41 39 41 41 41 42 44 48 44 44 41 49 53 52 58 45 55 59 64 60 52 31 47 32 43 53 44 54 45
88 80 67 66 58 51 49 43 48 54 62 60 47 40 38 40 38 39 39 39 40 46 43 42 43 41 50 51 57 60 57 58 61 68 46 46 38 34 31 36 56 37 46
85 79 69 63 65 61 54 57 51 61 56 47 48 46 43 43 42 36 35 37 37 39 41 44 41 40 44 46 50 52 57 58 57 58 55 47 44 34 41 34 37 50 45

GFSSE_sfc_rhum_006.txt.gz
RH
92 94 86 78 78 76 74 68 67 65 64 62 61 65 67 72 69 66 62 59 60 56 54 57 64 65 73 73 72 71 70 64 63 64 67 69 70 71 68 64 63 71 62
86 92 88 80 78 77 73 69 69 67 66 61 60 62 62 60 60 59 61 59 56 57 54 54 59 59 62 66 69 69 69 69 66 66 70 76 75 71 69 66 67 69 61
86 90 94 84 81 78 73 71 70 65 66 59 58 61 56 56 59 58 59 58 58 56 56 55 57 56 59 63 64 65 66 65 65 68 73 89 87 70 66 68 65 62 61
90 95 95 86 81 78 75 74 71 67 63 61 57 57 59 55 61 56 60 51 52 57 56 56 60 61 58 58 59 61 61 61 65 74 91 88 84 74 66 63 63 62 62
98 97 94 88 83 80 77 75 73 69 62 60 60 57 58 59 61 59 52 54 57 60 60 60 62 65 68 68 68 66 63 61 72 81 92 93 93 78 67 60 64 64 62
99 97 92 88 85 86 81 76 74 70 66 61 62 62 62 64 64 64 64 68 71 67 62 61 64 65 64 67 69 69 72 71 78 89 93 91 90 76 64 63 62 56 63
99 98 95 89 86 86 82 78 74 70 67 62 61 60 62 67 66 69 69 70 68 67 63 62 64 66 68 69 68 67 70 81 89 92 93 94 93 78 68 62 62 58 58
98 98 96 90 89 88 85 81 77 71 67 63 60 63 63 67 69 73 73 73 70 66 67 67 70 72 70 69 70 71 76 83 90 94 95 96 90 80 74 70 66 64 62
96 98 98 97 94 91 88 84 82 76 72 67 70 68 71 73 69 72 76 74 71 72 72 74 74 72 72 74 75 78 85 88 95 97 93 98 88 80 75 71 71 69 67
97 98 99 99 98 97 95 89 86 83 81 78 79 79 84 85 82 76 86 81 75 74 76 76 76 76 77 79 81 85 90 91 95 96 97 97 83 78 75 73 73 73 71
95 98 98 94 98 98 97 94 91 88 85 84 83 87 89 92 90 90 88 86 81 80 77 77 80 82 85 88 87 86 86 97 95 97 98 87 81 76 69 68 71 72 72
88 86 90 87 89 99 94 97 96 96 96 96 94 94 95 92 91 82 90 89 84 83 81 82 82 76 74 88 85 74 83 86 88 91 96 78 70 63 60 59 64 67 65
94 86 88 89 94 98 97 99 99 99 99 98 95 95 95 92 94 96 97 96 95 92 87 87 66 64 62 62 62 62 63 71 80 76 75 68 64 60 57 58 59 60 67
93 97 97 91 99 99 99 99 99 99 99 99 97 95 97 97 95 96 98 92 94 87 63 64 60 52 51 48 51 52 55 56 57 66 74 70 60 54 54 54 59 61 58
81 89 96 98 98 98 98 99 99 98 99 97 97 96 96 96 97 97 63 55 55 59 57 52 49 51 47 45 42 47 50 44 58 63 71 67 56 58 57 52 52 51 50
53 78 90 96 96 97 97 97 98 98 97 97 98 95 88 89 72 55 55 55 51 56 49 45 49 52 46 46 38 46 52 44 57 48 55 61 50 57 50 49 49 48 51
43 53 91 91 96 96 96 97 92 94 87 82 82 81 78 48 46 49 52 51 53 49 44 43 44 51 46 41 41 47 50 47 41 41 41 54 55 52 48 48 48 49 51
62 83 92 80 94 96 97 90 92 83 78 58 55 51 43 43 43 47 54 53 48 49 47 44 50 48 52 50 47 49 52 49 40 33 38 50 46 44 48 47 47 48 49
70 91 95 95 95 95 80 75 77 54 66 47 45 46 41 43 41 48 53 50 48 50 49 46 47 53 58 47 38 48 52 53 42 30 40 42 36 44 49 42 45 47 46
82 94 97 96 96 69 58 57 60 52 45 42 41 40 37 40 45 51 50 47 46 50 48 46 47 50 64 60 46 45 57 63 46 38 46 37 37 42 47 39 51 50 48
86 96 98 97 74 62 62 58 56 58 42 38 36 36 37 43 45 48 51 48 48 48 48 46 51 52 51 61 62 55 61 58 58 48 40 44 38 40 42 39 37 47 54
87 96 98 83 65 66 58 51 45 40 41 38 40 38 42 43 44 44 48 48 45 46 45 47 51 50 51 60 57 70 59 51 47 28 42 42 36 45 37 31 37 37 51
90 97 90 70 61 56 46 46 41 35 36 38 38 45 45 43 44 44 44 45 46 49 50 50 49 48 52 50 62 49 44 54 65 54 42 44 30 48 38 46 38 36 49
94 94 74 65 58 46 45 41 38 38 33 41 45 47 45 43 43 42 42 43 45 48 44 44 41 50 52 53 56 44 53 58 56 61 50 31 45 32 45 47 37 48 51
96 83 73 67 56 46 45 38 35 34 49 52 47 43 40 41 40 40 39 40 42 48 43 41 43 43 51 52 56 58 59 60 66 64 48 48 38 36 35 40 50 35 37
96 83 75 66 53 48 44 37 36 42 44 43 47 46 44 44 44 38 37 38 38 41 41 44 43 41 46 47 52 54 58 57 60 60 64 49 48 43 39 37 42 50 51

GFSSE_sfc_rhum_009.txt.gz
RH
70 70 86 78 77 75 72 69 67 66 64 62 63 66 71 75 72 66 62 58 58 57 53 60 64 64 74 74 74 74 70 66 67 66 68 71 66 67 67 65 65 53 64
61 70 86 80 77 75 72 70 69 68 65 62 60 66 67 70 65 63 63 59 56 56 54 54 60 60 63 65 69 71 68 68 66 68 72 75 72 69 66 66 68 54 59
64 72 70 82 81 77 72 71 70 68 64 60 62 60 57 57 57 58 58 56 58 56 57 56 58 57 59 64 64 64 64 63 63 67 78 58 59 69 65 64 68 60 57
67 70 72 85 82 78 74 73 70 66 66 59 59 58 57 55 61 54 58 55 52 57 59 58 61 64 60 58 58 57 57 58 61 74 57 58 58 68 65 64 59 63 61
70 72 75 86 84 80 76 74 71 67 63 61 60 58 58 57 60 56 55 54 54 61 61 61 63 66 68 68 68 68 67 66 68 66 61 62 62 59 66 63 59 64 59
76 77 83 87 85 84 81 76 74 68 63 61 60 61 60 62 62 62 62 68 70 66 62 62 64 65 66 67 66 67 70 72 77 63 66 66 66 72 68 59 63 62 56
84 80 75 88 86 86 82 78 75 70 66 62 62 61 60 66 68 69 68 70 69 66 63 64 67 68 70 70 68 68 69 80 64 65 67 68 69 79 74 69 64 63 60
88 83 78 86 88 88 84 82 78 71 68 63 61 60 60 68 69 72 72 71 70 66 69 68 71 71 70 70 71 74 77 86 69 67 68 68 76 80 75 73 72 67 66
82 84 80 75 80 90 88 84 81 75 71 67 68 67 70 73 71 77 75 72 71 72 72 74 75 74 75 76 78 82 86 90 67 66 67 64 79 80 74 73 72 73 71
84 82 84 83 78 78 75 88 86 82 80 76 78 79 82 83 80 78 86 81 75 75 76 76 78 81 83 85 84 83 83 79 56 59 58 61 82 78 71 70 71 72 74
83 84 84 82 84 84 79 78 86 86 84 82 80 85 80 69 70 70 82 84 81 79 78 79 80 76 75 69 64 66 66 47 43 46 51 75 75 71 66 64 62 65 68
81 80 85 81 85 86 81 79 77 74 72 73 72 76 71 70 64 64 81 88 82 81 83 74 62 56 49 37 36 45 35 38 37 37 40 68 62 58 58 58 60 62 64
74 74 79 82 84 90 83 86 84 81 82 80 77 75 72 70 69 68 66 67 69 83 59 45 39 35 34 31 31 29 32 28 28 38 49 67 58 53 52 52 59 66 60
82 76 76 82 89 90 83 83 82 82 81 81 78 75 75 68 73 71 71 70 62 52 42 37 33 30 27 25 26 27 27 30 35 39 46 63 58 56 59 56 55 54 54
66 78 82 82 90 91 86 84 82 79 79 76 76 75 72 70 77 68 52 50 45 37 32 31 30 25 22 22 22 28 26 33 28 33 37 63 61 55 54 54 52 52 57
54 61 74 88 86 89 87 85 80 81 79 76 75 74 75 79 72 56 48 45 38 31 28 28 28 27 23 22 20 27 27 29 27 26 33 34 56 52 52 52 52 55 52
34 36 62 77 85 86 84 80 81 86 76 76 79 76 78 58 49 47 40 36 34 31 26 26 26 29 24 21 20 26 27 27 24 27 29 29 33 48 48 47 47 48 49
34 40 47 66 83 83 80 85 87 84 90 80 77 66 48 46 46 42 41 35 32 30 28 28 27 28 27 25 24 26 28 34 23 24 28 25 31 29 35 45 44 44 47
34 47 66 74 83 84 82 84 87 75 75 61 54 49 43 43 37 36 35 36 30 29 29 26 28 31 29 28 26 25 31 36 24 24 24 27 29 29 28 35 42 41 41
47 59 73 82 86 80 74 62 67 57 50 50 46 42 38 39 36 35 34 32 29 30 27 27 27 30 33 34 26 25 40 43 31 28 22 25 25 29 28 30 27 26 40
63 73 85 90 80 73 74 62 60 62 49 42 39 36 37 39 36 37 34 31 31 30 30 26 30 30 32 36 27 27 31 34 36 34 22 26 26 27 28 23 23 22 24
64 81 88 86 72 72 67 61 56 48 44 41 42 38 38 37 35 34 34 33 32 31 30 31 34 30 32 38 30 37 31 24 26 19 29 27 24 24 25 21 23 22 25
72 86 88 75 71 68 59 51 42 38 38 41 40 42 39 33 33 33 33 31 34 34 35 35 35 34 32 35 34 28 26 28 32 28 27 29 22 26 22 26 24 23 25
73 86 81 69 68 58 52 49 47 46 40 35 38 40 35 34 34 32 33 32 32 32 32 31 30 35 36 35 34 28 30 32 29 29 28 23 28 23 26 26 24 25 26
80 85 75 65 60 52 52 48 47 40 36 38 39 36 33 32 33 32 31 33 32 32 32 32 34 33 35 34 36 36 36 34 40 40 30 28 28 26 27 27 28 27 27
86 80 74 64 57 53 51 46 42 39 36 39 38 35 31 31 32 32 31 31 31 31 32 34 37 37 36 36 37 38 37 35 33 36 36 35 36 30 30 29 29 29 30

GFSSE_sfc_rhum_012.txt.gz
RH
47 56 85 77 77 74 72 68 67 67 64 62 65 68 74 74 69 66 61 60 60 56 54 57 62 66 73 76 74 70 68 68 68 68 71 71 64 65 66 64 70 51 58
43 50 86 78 76 74 71 69 69 68 65 61 62 68 72 74 69 67 65 60 58 57 55 55 60 62 65 67 69 70 68 66 66 69 75 68 66 67 64 67 68 54 54
44 48 62 82 80 76 72 71 71 68 62 62 61 58 57 60 58 61 59 57 56 57 57 58 58 59 60 63 65 64 62 62 63 69 73 44 43 65 65 63 64 61 55
43 48 49 84 82 76 73 73 70 69 61 63 63 58 55 58 58 55 58 58 56 59 60 60 63 66 63 62 62 58 58 59 62 69 41 35 38 60 66 64 60 63 60
45 48 52 85 83 78 75 74 69 67 63 60 60 58 57 59 55 60 55 55 59 63 61 63 65 66 66 67 68 69 69 68 69 63 47 48 48 43 62 63 61 60 64
44 47 78 87 84 82 79 75 71 66 63 62 62 61 60 63 62 56 54 64 67 65 63 64 64 67 68 69 68 66 68 74 77 47 49 51 56 66 72 68 61 62 63
45 48 62 87 86 84 80 77 75 68 64 62 61 61 62 67 70 68 65 68 69 66 64 65 68 70 70 69 69 70 72 79 54 51 52 54 55 73 74 71 70 66 64
47 51 53 84 87 86 84 81 77 72 68 63 63 60 61 69 70 69 70 70 69 67 70 70 73 73 72 73 75 78 82 85 58 52 54 54 69 78 74 74 74 74 70
47 50 50 58 70 90 87 85 81 74 71 66 64 62 69 75 73 78 76 72 70 74 73 75 76 77 79 81 84 85 84 83 52 49 50 47 80 78 73 70 73 72 73
49 50 50 49 53 65 66 88 86 82 79 76 77 80 83 82 78 84 83 80 75 75 76 78 82 80 80 76 71 66 66 66 37 39 38 47 78 76 70 69 67 65 68
52 52 52 48 51 58 55 69 84 85 82 81 78 84 77 46 50 54 81 82 79 80 79 80 70 64 58 61 58 54 59 31 31 31 30 66 64 62 61 60 59 60 63
50 51 56 54 56 56 56 59 56 52 55 53 53 56 48 50 43 49 72 85 82 81 75 63 54 43 48 30 29 37 25 23 22 24 27 67 60 55 55 55 57 65 63
44 48 55 66 66 66 58 58 54 50 54 55 54 55 48 48 50 50 49 52 55 73 45 40 35 29 29 24 23 20 21 19 18 23 44 62 58 52 52 62 59 57 59
45 49 53 62 74 75 59 62 53 50 55 54 56 55 51 50 55 51 50 57 51 42 39 33 29 24 21 18 17 18 18 19 21 24 43 69 63 60 58 57 55 59 59
43 48 53 62 72 76 72 64 57 51 53 52 58 53 47 51 56 54 44 40 37 32 29 27 22 18 16 16 15 17 18 19 19 23 31 66 59 58 56 56 59 57 56
34 39 49 58 68 72 81 66 57 51 51 55 54 51 52 51 57 47 44 41 31 26 21 19 18 19 16 15 15 16 17 19 20 24 24 38 55 52 51 50 50 51 52
23 27 36 49 58 75 79 65 56 53 54 57 53 53 55 58 51 42 39 33 25 21 19 19 18 19 18 15 16 16 17 18 20 23 22 23 28 49 48 47 46 45 46
21 23 24 35 50 68 71 64 57 55 55 56 54 59 64 50 46 39 33 26 22 22 21 20 19 20 20 18 18 17 18 21 19 19 20 19 23 20 27 44 45 44 44
21 21 27 32 39 51 57 67 63 57 66 70 70 59 50 44 38 32 27 25 22 22 21 18 20 21 22 21 18 16 22 24 20 17 19 22 24 24 22 28 34 31 37
24 24 27 36 41 50 65 71 71 64 61 60 56 48 43 37 31 26 24 23 22 23 20 20 20 22 23 22 17 18 28 28 24 24 21 17 19 22 22 23 21 21 30
27 30 34 43 51 58 74 71 78 65 58 51 44 40 37 32 29 27 25 23 22 22 21 20 22 23 24 22 20 20 22 24 30 28 16 17 20 20 19 18 19 19 18
28 35 40 48 56 60 68 67 68 64 51 44 43 39 38 34 31 27 26 25 24 24 24 24 27 24 24 24 24 26 24 20 19 20 19 18 17 17 18 18 20 19 21
32 38 46 57 58 61 67 59 54 46 43 40 42 43 39 31 26 26 26 24 26 26 28 27 27 25 25 25 24 23 23 23 22 18 20 18 18 18 19 22 21 20 22
35 42 56 64 58 62 61 53 51 54 53 40 38 42 35 29 25 24 24 24 25 25 26 24 22 25 26 27 26 20 22 23 23 24 20 19 19 18 22 22 22 22 22
34 53 67 62 61 62 58 54 57 53 49 36 39 35 32 26 25 24 24 25 24 24 25 25 27 25 26 26 28 27 25 25 25 30 29 24 22 21 22 22 23 22 22
39 59 68 63 63 60 62 55 56 49 38 40 37 36 29 25 25 24 24 24 24 24 26 28 30 30 29 28 28 29 29 30 27 30 30 28 29 26 23 23 24 23 24

GFSSE_sfc_rhum_015.txt.gz
RH
42 62 84 76 75 73 72 68 68 67 64 64 67 72 74 73 68 64 62 63 60 58 55 57 64 67 74 80 76 72 71 71 68 71 71 64 61 65 65 68 70 57 62
41 58 84 78 74 73 71 69 69 67 63 62 63 67 73 73 69 67 63 59 60 59 57 58 62 63 66 68 68 68 67 66 66 69 73 68 64 66 64 64 69 58 55
42 52 63 81 78 74 72 71 70 66 62 66 63 62 66 63 63 62 59 58 59 59 59 60 62 61 61 62 62 61 61 61 63 70 69 47 41 59 64 63 64 64 57
39 48 53 84 81 76 74 72 71 64 64 65 62 57 57 59 58 58 58 58 61 60 61 62 66 67 67 67 68 66 65 64 64 68 46 33 34 62 59 64 65 58 62
38 43 54 84 83 78 75 72 71 65 61 65 59 59 57 59 54 59 56 58 65 62 63 65 67 67 68 68 67 68 69 73 71 70 45 49 53 60 64 60 58 63 66
37 38 78 85 83 82 78 73 70 67 62 61 60 63 62 60 59 58 57 64 68 65 65 66 68 68 69 70 68 67 69 74 77 45 47 51 52 70 71 68 67 64 61
36 45 59 86 84 83 79 75 72 67 64 63 62 61 67 68 70 67 64 69 68 66 66 67 70 71 71 70 71 73 76 80 63 50 48 51 63 72 73 68 70 70 66
36 42 60 82 86 85 82 79 75 69 65 63 63 61 66 68 74 69 70 70 69 71 70 72 74 73 74 77 80 82 83 85 57 51 50 51 76 72 72 68 71 72 71
36 40 53 62 75 89 86 85 80 74 71 67 67 62 74 73 77 74 74 73 72 73 74 76 80 81 81 81 78 74 73 75 54 43 42 44 75 72 69 64 70 68 67
37 39 41 49 58 62 68 88 84 81 79 74 75 82 84 80 82 82 83 80 76 76 78 82 78 78 73 65 60 58 63 70 38 37 35 54 64 65 66 64 62 60 61
40 40 39 39 44 56 57 70 84 85 81 81 80 83 76 48 52 61 83 84 80 80 81 72 62 54 56 60 50 49 58 30 28 28 30 63 60 56 56 58 58 60 66
42 41 40 40 43 56 56 62 56 55 56 52 52 57 45 43 43 48 72 86 80 82 72 60 48 44 52 32 31 44 22 22 22 25 41 64 59 52 51 63 64 60 65
36 40 42 45 44 51 53 62 49 48 50 48 48 49 42 42 47 51 56 59 67 81 50 50 41 33 30 25 25 19 21 21 20 24 55 69 59 54 62 61 60 66 63
34 38 43 46 53 52 53 56 51 44 46 49 49 47 45 46 53 47 46 56 57 47 44 39 34 28 22 18 16 17 18 18 20 23 57 68 62 62 61 60 62 60 60
31 36 41 47 64 60 55 55 50 43 47 46 48 49 44 45 52 46 48 45 41 36 33 31 26 20 17 17 16 15 17 17 18 23 44 68 61 57 56 56 55 55 55
27 34 37 44 52 62 62 60 53 45 44 45 58 50 42 44 53 50 46 41 36 31 25 20 20 20 19 17 16 15 17 18 19 23 28 45 55 52 51 49 47 46 46
20 26 32 41 46 56 72 67 56 52 44 53 61 48 46 52 51 47 41 37 31 24 20 21 20 20 20 17 17 17 17 18 20 23 25 30 43 50 46 46 45 44 45
19 19 24 32 43 52 71 70 67 52 47 63 57 54 55 51 48 43 38 32 25 24 24 23 21 23 23 22 20 19 20 21 19 20 24 22 29 24 40 36 37 37 40
18 20 21 24 34 46 65 65 66 60 64 62 56 57 56 49 42 36 35 29 24 25 24 20 23 24 26 26 22 20 27 26 22 18 20 23 26 28 29 34 34 32 31
18 20 20 25 28 36 50 61 74 72 73 67 61 60 51 42 36 35 29 26 25 26 24 24 24 25 26 26 18 20 30 29 26 24 22 20 20 24 26 29 29 28 32
19 22 23 24 31 33 45 69 82 83 78 64 57 52 44 37 36 35 28 26 25 26 25 23 25 27 29 26 28 28 28 24 30 28 26 20 22 21 22 23 25 26 24
23 25 25 27 32 38 52 68 78 72 66 57 49 44 35 35 36 35 30 29 27 29 28 28 32 29 30 28 28 35 33 27 24 22 23 21 20 23 23 22 24 24 29
26 27 26 30 37 44 61 66 73 65 55 54 46 42 39 35 35 34 30 28 31 33 35 34 32 31 34 31 26 30 32 33 28 26 27 23 23 24 22 27 25 25 26
28 32 30 34 40 46 57 65 68 62 60 54 45 38 36 33 35 30 28 29 29 30 32 30 25 29 33 33 30 20 24 26 29 30 27 25 23 20 24 26 26 26 26
25 37 40 39 46 50 58 60 60 56 56 46 38 35 33 33 34 31 26 30 29 29 29 30 30 28 28 29 32 32 28 30 28 33 38 32 27 25 26 26 26 26 27
29 39 47 47 51 53 60 57 55 58 48 44 39 38 35 34 33 27 27 29 28 29 31 32 33 32 30 29 31 31 33 34 33 36 37 35 34 31 27 26 27 28 29

GFSSE_sfc_rhum_018.txt.gz
RH
80 84 83 76 75 74 72 70 70 68 67 68 73 75 74 71 67 66 66 64 62 59 56 63 66 68 79 82 78 73 70 69 69 71 68 62 61 63 64 69 70 61 63
74 76 82 78 74 73 71 71 69 67 66 64 67 72 74 72 68 67 62 62 60 58 59 62 64 65 66 67 67 65 64 64 66 68 72 74 71 63 64 65 66 64 57
68 74 75 80 78 75 72 71 70 65 67 71 71 72 72 69 68 61 60 60 59 59 61 63 64 64 65 66 64 61 60 60 62 65 73 78 74 60 61 65 66 60 60
64 70 73 82 80 75 74 72 68 64 67 64 60 62 60 59 60 60 61 62 60 61 62 65 66 66 66 67 67 68 69 69 70 77 75 55 54 59 55 58 62 59 60
60 60 72 84 81 78 75 74 67 65 67 67 63 62 62 59 59 58 60 66 64 64 65 68 69 70 70 69 68 64 69 73 79 78 66 69 70 66 67 67 63 62 64
54 62 85 85 82 82 78 74 72 63 65 63 67 66 64 60 60 60 63 70 68 67 67 70 70 71 72 71 69 69 72 73 80 72 63 66 79 69 70 65 63 67 63
60 76 82 85 84 84 78 75 72 66 63 64 66 69 70 69 68 59 69 72 70 69 69 71 73 74 73 74 75 76 78 82 81 69 61 79 75 70 70 64 70 72 72
70 66 76 84 86 85 82 80 76 69 66 66 66 65 71 68 71 69 72 72 72 72 72 75 75 76 80 80 80 80 80 84 71 66 56 86 74 68 67 61 70 70 69
54 68 74 78 83 87 85 84 79 74 72 71 72 71 76 79 78 74 74 74 76 73 76 82 80 79 78 76 70 63 67 72 75 56 52 75 68 62 65 63 64 62 61
51 67 70 75 80 85 89 88 85 82 79 77 77 86 84 84 86 82 84 82 76 78 81 79 77 73 67 60 52 52 61 67 69 47 68 70 56 54 55 59 60 59 66
50 54 64 72 75 72 80 85 87 86 83 81 86 86 85 78 83 84 86 85 83 81 78 69 59 54 61 67 60 53 58 40 33 42 71 63 54 52 51 59 64 65 67
55 54 52 60 69 64 64 85 85 79 82 81 81 88 81 68 76 69 86 89 84 82 75 61 50 56 59 48 50 48 36 29 34 49 76 62 53 47 67 63 69 66 64
52 54 53 56 56 64 64 75 71 71 73 67 67 74 67 66 74 79 91 91 95 85 74 63 58 44 38 32 32 27 30 31 36 73 73 70 64 64 60 68 65 63 64
50 53 54 57 60 64 62 68 65 64 66 65 68 64 61 72 71 72 77 76 80 80 58 52 48 35 28 24 24 24 26 29 34 71 78 72 64 62 64 62 60 59 58
48 52 55 59 68 64 74 68 65 56 65 68 67 63 62 72 76 70 72 67 61 52 49 43 33 30 29 26 24 22 26 27 29 63 80 70 61 58 56 54 52 50 49
38 47 54 58 70 77 70 71 64 62 62 65 66 61 60 67 73 67 63 61 51 44 35 32 30 33 32 28 26 23 26 29 29 45 63 71 56 51 48 47 46 46 46
30 42 48 55 69 74 65 76 64 70 55 69 64 60 58 64 55 64 59 56 45 34 32 34 31 34 34 30 32 29 26 28 30 32 48 54 57 53 44 41 41 41 42
29 35 42 44 58 71 67 70 73 66 71 69 70 63 61 56 55 57 54 50 39 38 38 36 36 39 40 39 36 30 32 30 28 31 30 36 41 44 44 35 34 34 35
28 28 39 47 54 62 73 74 72 81 74 84 68 71 65 58 58 56 53 43 38 40 38 33 39 40 41 40 31 29 42 39 31 24 30 31 35 35 36 34 36 36 33
25 28 30 39 53 60 77 79 88 82 81 75 67 69 61 54 46 46 40 39 40 41 39 38 39 40 41 40 26 29 41 43 37 36 34 28 31 30 33 31 38 38 35
24 28 32 37 40 52 78 83 85 85 87 85 77 63 55 45 45 45 39 40 42 41 37 34 39 40 44 43 45 42 44 38 44 43 43 30 29 28 27 31 36 38 38
33 29 34 36 38 40 60 71 85 89 82 72 66 58 54 47 47 36 36 43 41 44 42 41 43 46 45 42 42 49 47 42 37 31 37 30 29 30 30 27 31 31 37
31 37 39 37 41 42 56 87 80 77 63 63 54 57 53 44 41 35 36 42 47 52 52 46 44 42 49 44 35 43 45 49 43 39 35 33 30 36 32 35 32 31 34
34 32 40 40 43 49 80 85 80 81 77 65 60 71 51 42 42 34 36 39 47 51 46 42 38 42 47 46 46 30 35 38 46 48 43 39 37 32 37 39 37 34 33
27 40 37 42 48 60 79 83 83 79 68 58 57 57 46 37 36 34 35 38 45 48 39 41 42 40 42 46 47 47 43 45 42 49 55 49 43 40 39 40 39 39 34
30 40 55 44 56 67 77 79 78 73 65 56 56 53 42 37 37 40 35 39 44 45 44 46 44 42 42 42 44 46 48 50 50 52 56 52 51 45 43 40 39 40 40

GFSSE_sfc_rhum_021.txt.gz
RH
95 86 83 77 75 74 72 72 70 71 74 76 76 76 72 70 69 68 65 63 60 58 62 66 68 77 79 78 73 70 70 69 68 66 66 62 60 62 66 69 69 68 60
91 82 82 78 75 74 73 71 70 69 73 72 75 74 71 69 69 65 62 61 60 60 61 65 66 66 68 66 65 64 63 62 63 65 71 71 74 62 65 67 66 63 56
86 79 77 80 79 75 73 71 69 67 68 68 71 76 73 70 64 62 61 59 59 61 63 65 66 67 67 66 64 62 63 61 62 65 72 79 75 59 61 66 63 58 60
80 79 77 82 80 75 73 71 67 72 67 69 71 70 67 66 62 61 62 60 61 62 64 65 65 66 66 66 67 69 72 69 72 79 79 67 60 61 56 55 59 62 64
80 77 77 83 81 76 74 70 68 70 65 67 68 67 63 61 62 63 66 63 64 66 68 70 70 70 70 68 67 66 69 71 77 75 75 73 81 67 67 66 65 61 61
77 80 85 84 82 81 79 72 69 69 65 66 67 68 65 62 61 64 70 69 69 70 70 71 72 72 72 72 71 72 72 73 82 81 69 71 79 69 68 62 67 68 68
75 83 84 85 84 82 81 78 71 70 66 69 70 68 66 64 64 66 72 71 70 71 71 74 74 74 76 76 76 77 78 83 82 78 76 85 82 69 66 57 67 72 72
81 81 82 85 86 84 82 80 75 72 71 69 71 72 70 71 68 71 73 73 74 71 75 76 76 79 80 79 78 75 74 79 70 70 80 85 74 63 62 53 68 66 64
76 81 84 84 86 86 84 81 78 75 74 74 74 76 75 82 77 74 74 75 74 74 79 81 80 78 76 72 62 56 65 69 76 69 61 75 65 53 58 61 61 59 68
79 80 89 91 87 88 87 86 82 79 80 79 80 86 83 87 83 81 84 83 76 79 81 79 77 72 66 57 50 54 62 59 53 71 74 72 56 49 51 55 58 67 70
80 82 84 92 93 95 95 88 87 85 83 83 87 88 86 95 92 90 89 86 84 82 78 72 65 61 64 67 60 62 53 33 48 75 76 65 48 48 66 66 69 68 66
83 81 81 86 87 88 78 94 95 88 93 93 93 92 91 86 93 85 90 90 86 85 78 65 56 56 55 51 44 43 36 31 55 77 85 68 53 66 67 69 68 66 67
61 75 77 81 82 81 80 92 95 95 93 91 90 92 88 79 88 91 98 96 97 88 85 68 58 44 37 33 30 27 30 34 76 85 81 74 65 59 67 64 65 64 62
60 58 65 75 78 75 81 77 82 82 82 84 83 82 77 83 88 94 98 97 97 94 82 69 53 32 29 26 26 25 28 35 76 84 84 74 65 64 62 60 58 55 54
59 58 60 65 68 72 78 70 73 75 75 70 73 74 65 76 79 84 89 91 82 62 53 39 35 33 32 27 26 25 28 33 73 79 88 73 64 58 54 50 49 48 48
53 58 58 64 68 71 75 74 67 68 70 71 71 68 64 72 80 79 73 66 53 41 36 34 33 36 35 32 30 27 28 33 58 74 77 76 57 48 45 44 44 43 44
41 56 59 62 72 75 79 72 61 73 60 64 64 59 63 72 72 67 63 54 43 37 35 32 37 37 38 34 34 30 31 32 38 62 64 65 61 58 43 38 39 39 40
34 53 58 56 69 79 76 77 69 73 72 70 60 59 58 66 63 62 59 47 42 42 38 37 40 42 42 40 37 33 36 34 34 40 51 56 55 52 42 35 34 36 37
34 35 56 62 74 74 78 78 70 78 76 75 74 66 59 55 54 56 54 47 41 41 40 36 43 42 42 41 34 34 46 42 34 30 35 38 41 41 39 38 41 37 37
27 35 46 60 72 75 74 73 79 88 88 80 68 70 63 56 54 54 47 43 42 42 42 43 42 46 43 43 29 37 47 48 41 38 35 33 33 33 35 34 40 38 35
30 32 37 58 67 78 86 90 86 84 92 89 76 65 62 53 48 43 44 42 44 43 41 37 43 41 45 46 42 44 50 44 45 42 45 37 31 32 32 35 38 39 40
35 34 35 47 62 72 83 84 85 93 96 82 74 61 53 46 47 41 40 43 42 44 44 43 46 49 48 46 42 56 45 42 38 36 40 32 31 34 32 29 33 33 39
38 39 38 42 46 74 82 90 97 91 87 82 68 62 57 48 44 42 42 40 39 51 52 45 46 46 50 47 40 44 41 46 47 42 40 38 37 37 38 42 35 34 35
34 43 42 44 48 47 83 89 91 89 91 88 76 77 54 44 42 41 41 42 42 52 48 46 42 47 52 47 49 36 40 41 41 38 44 44 44 37 42 44 44 39 37
30 37 44 46 49 53 87 87 90 89 88 82 80 64 44 40 40 41 42 45 41 44 44 43 43 43 46 50 51 49 46 50 47 49 52 51 48 43 44 47 45 44 42
39 37 49 48 51 80 89 87 89 90 74 78 76 63 44 41 41 40 38 42 40 38 45 50 47 43 46 46 50 50 51 50 52 53 58 58 55 51 49 46 47 48 46

GFSSE_sfc_rhum_024.txt.gz
RH
93 90 83 76 75 74 74 74 76 79 79 78 76 74 72 71 70 67 65 62 60 63 64 70 75 78 75 71 71 71 69 68 62 64 66 64 61 64 67 66 68 73 59
92 86 83 77 75 75 74 73 74 78 80 78 77 73 72 69 67 64 62 60 60 61 63 67 69 73 70 68 66 64 58 59 61 67 70 72 72 63 66 66 66 64 57
90 82 79 81 79 76 73 71 72 72 76 78 76 73 71 69 66 62 59 59 61 63 65 68 69 69 68 66 64 64 64 62 66 67 70 79 76 60 61 66 62 61 59
84 82 79 82 78 74 72 70 70 71 70 72 77 75 71 65 62 59 59 60 62 63 64 66 67 67 67 67 68 71 70 70 74 79 81 74 65 60 56 56 60 64 65
85 80 80 83 80 74 73 69 74 71 73 75 73 72 68 65 62 64 60 63 65 67 68 68 68 68 68 68 67 67 69 70 79 77 79 77 82 68 66 65 65 62 61
89 85 85 84 82 80 76 74 72 66 66 68 70 69 66 64 64 68 65 67 69 71 70 71 72 72 72 72 72 71 72 77 80 83 75 72 85 70 64 59 69 70 70
91 88 85 84 81 79 77 77 75 69 67 68 67 64 64 63 65 70 70 70 71 71 72 74 74 75 77 77 76 76 77 78 76 89 89 89 86 67 63 57 73 70 68
88 87 84 85 84 84 80 77 78 74 70 70 71 68 66 66 67 72 72 72 72 71 75 74 76 79 79 78 74 69 66 74 68 83 81 83 73 60 62 58 65 62 69
83 85 86 86 86 86 85 79 77 77 76 78 78 77 77 78 73 74 74 75 71 75 78 79 79 78 75 68 57 55 64 70 76 75 64 74 64 50 56 60 60 68 70
88 86 90 90 88 89 89 86 82 79 80 79 83 84 83 88 83 80 82 82 75 80 80 79 77 72 64 54 52 61 58 62 76 75 77 74 54 48 52 56 67 72 72
87 92 95 96 95 96 95 88 86 85 86 85 88 86 91 95 91 90 91 87 84 83 79 75 68 61 64 64 60 59 45 49 78 78 79 67 45 65 69 72 69 70 69
94 95 93 96 96 96 83 94 95 89 94 94 95 93 92 96 96 90 94 89 87 86 81 67 57 58 52 48 37 42 36 58 80 89 91 70 66 69 70 70 71 68 66
91 88 88 93 94 93 86 97 98 98 98 96 95 96 94 89 97 98 98 98 98 91 91 70 60 47 36 34 31 32 36 74 92 94 87 74 63 70 66 65 64 64 60
90 86 85 88 91 91 89 93 93 94 95 96 94 95 96 94 98 98 99 98 98 96 87 78 53 32 29 28 27 30 36 75 93 94 89 77 68 62 60 57 54 52 49
74 84 84 86 88 86 94 89 88 88 88 87 90 90 84 91 92 97 98 98 98 95 65 44 36 34 32 28 28 29 35 76 89 89 94 76 65 57 53 50 48 47 46
63 67 78 83 83 81 87 84 82 81 82 80 80 84 74 77 85 91 96 96 73 58 41 37 36 36 36 35 32 30 36 62 82 87 85 78 60 50 45 43 42 42 43
50 57 69 79 77 77 83 81 81 80 76 77 74 79 67 71 79 84 84 71 51 40 36 37 39 40 39 35 35 31 33 44 74 74 74 65 65 60 42 39 38 39 41
39 60 62 66 73 77 80 84 76 75 73 75 73 71 63 74 73 72 62 52 44 41 38 40 43 43 43 39 37 34 39 38 61 64 63 59 62 52 43 37 36 36 38
38 39 66 70 77 76 82 86 77 80 74 74 71 66 60 72 65 61 51 48 44 42 41 38 45 42 41 40 36 39 51 44 42 41 57 48 53 48 42 41 39 36 35
32 39 55 67 71 80 85 89 96 90 84 76 69 64 64 66 62 55 49 44 42 44 44 44 43 46 44 44 32 39 49 52 42 43 41 38 39 39 38 36 40 41 34
35 37 45 65 67 84 94 95 94 84 87 94 72 70 63 60 55 47 45 42 43 41 44 41 47 41 46 47 43 47 52 49 48 48 46 42 36 36 35 37 40 42 41
35 36 39 56 64 82 84 83 89 88 93 90 93 72 64 58 53 42 38 42 42 45 43 44 46 51 48 48 46 57 45 42 42 38 43 36 35 38 36 36 38 36 41
37 38 40 43 63 78 82 91 99 96 97 94 89 71 62 54 47 41 38 42 44 49 50 48 49 48 51 47 43 46 49 45 46 42 43 43 40 44 44 44 41 40 39
34 36 40 44 54 76 88 93 89 87 94 96 86 93 81 51 43 40 39 37 43 54 44 48 47 52 53 48 50 39 43 43 38 34 43 46 48 39 45 49 48 45 44
34 37 42 45 53 64 92 90 90 81 84 96 96 90 82 72 46 40 38 39 45 52 43 40 46 50 50 54 53 52 49 55 50 48 45 49 49 47 47 49 49 51 45
46 46 44 46 51 62 91 93 90 88 93 93 91 86 80 68 58 49 40 41 44 42 40 43 44 44 49 50 53 52 52 51 53 55 57 59 56 53 51 50 50 51 51

GFSSE_sfc_rhum_030.txt.gz
RH
96 94 84 77 78 74 76 79 80 82 81 80 79 75 73 71 69 67 64 65 66 66 73 67 68 67 67 68 70 66 63 62 67 69 72 69 65 68 67 68 72 72 59
95 92 83 78 75 77 76 79 83 84 84 78 76 74 71 70 68 64 63 63 64 64 76 72 75 73 70 68 62 57 60 66 68 69 73 75 76 66 67 68 65 63 63
92 88 77 81 80 80 79 82 83 82 82 79 74 71 67 68 66 62 61 61 61 62 75 74 71 69 68 65 62 60 65 70 72 72 71 80 76 61 61 64 62 61 58
90 86 76 77 79 76 78 80 82 81 81 78 76 73 70 67 61 60 62 63 62 66 75 72 70 70 70 67 67 68 72 74 75 76 81 75 70 64 60 60 62 64 65
92 86 76 79 78 76 77 77 79 80 80 79 77 74 70 64 60 61 63 65 67 68 69 69 69 68 69 70 69 70 74 77 78 80 81 81 86 71 66 66 69 68 64
96 93 83 81 81 79 76 73 73 73 76 79 77 72 68 64 61 63 66 68 70 69 68 68 70 71 72 72 72 74 73 72 80 88 82 77 89 77 62 62 74 75 75
98 95 90 83 79 76 75 78 77 71 73 79 77 71 68 66 63 64 68 71 73 72 72 72 74 76 78 77 74 71 68 83 94 93 92 92 90 63 60 67 66 71 74
96 96 89 83 82 80 80 80 78 76 76 74 75 72 69 67 68 68 70 72 72 73 75 74 76 78 77 69 61 61 68 78 80 84 81 78 71 59 62 64 66 72 72
96 96 96 93 88 84 83 82 78 77 76 76 76 75 74 75 74 71 71 72 72 75 75 76 79 77 64 54 57 63 72 77 78 76 68 77 68 51 56 58 72 72 70
98 96 97 97 96 94 93 87 84 81 80 79 80 80 81 82 82 78 81 80 73 76 78 81 78 68 55 55 56 66 73 72 78 74 72 72 54 50 57 74 71 69 68
94 97 98 98 98 97 94 90 87 85 84 84 86 88 89 93 89 89 91 86 82 82 80 78 72 62 64 62 55 56 66 77 80 79 81 69 67 70 73 71 69 68 65
89 92 89 87 98 98 88 90 94 92 95 95 95 93 94 95 96 92 93 89 86 87 84 74 62 57 48 36 43 52 73 86 93 96 96 76 71 70 70 70 66 66 64
82 81 79 78 88 98 95 98 98 99 98 98 96 95 95 98 98 98 99 98 98 94 95 69 52 41 34 34 37 52 82 93 98 98 89 77 66 61 59 62 60 57 55
83 82 78 78 83 95 96 98 98 97 98 98 97 96 97 99 99 99 99 99 98 98 91 71 46 33 30 29 34 50 86 96 98 98 91 77 64 60 58 55 54 52 52
86 83 80 80 84 86 98 97 98 96 97 91 96 97 97 99 99 99 99 99 99 98 87 65 38 34 31 30 34 46 87 93 93 97 95 76 70 58 54 50 49 48 49
95 91 87 84 84 84 89 88 98 95 97 98 98 97 96 95 99 99 99 99 99 97 70 49 39 37 37 34 34 44 87 93 92 90 84 81 66 55 48 46 45 45 46
89 93 96 95 87 87 88 92 98 96 93 94 94 97 96 95 96 98 99 99 98 91 45 41 40 41 40 35 35 40 71 89 91 85 74 72 70 62 48 44 43 41 45
54 84 94 86 91 90 93 95 95 96 95 91 90 91 93 91 94 97 98 98 89 60 45 44 44 44 42 39 36 43 46 81 87 80 69 67 64 56 49 41 38 39 38
42 46 77 91 94 95 93 95 95 95 96 92 88 85 88 87 88 94 96 96 61 50 47 44 46 41 40 41 37 54 53 58 78 63 64 60 61 49 58 46 46 40 35
44 44 47 81 92 94 94 94 96 98 96 96 92 80 88 80 85 88 93 80 51 49 49 46 43 46 43 43 38 49 58 54 64 69 64 46 55 42 43 39 44 43 46
44 46 46 62 79 94 96 96 96 94 96 98 92 87 88 79 83 84 86 66 48 42 40 35 42 40 46 52 55 54 53 56 51 52 53 52 44 42 40 43 44 45 44
40 44 47 48 64 89 94 91 93 92 94 92 92 90 86 82 85 78 66 58 45 42 38 37 45 50 48 53 50 59 50 48 49 45 52 44 44 43 43 41 43 43 48
42 41 43 46 55 86 90 94 99 98 99 99 98 96 90 84 81 69 64 54 45 41 42 38 46 46 50 49 51 53 54 51 55 48 48 46 44 49 48 47 45 45 45
40 41 41 43 48 68 93 94 95 92 95 96 92 92 94 87 85 69 66 65 45 43 43 41 42 53 50 49 52 40 47 52 46 40 46 49 49 42 47 52 50 46 50
43 45 43 41 43 49 76 93 97 94 87 94 94 94 93 90 83 78 72 71 57 60 46 46 52 49 53 55 57 55 51 55 48 43 41 48 52 53 51 51 54 51 48
52 57 53 46 44 50 69 92 95 95 93 97 99 98 97 95 91 83 75 68 68 65 66 57 53 52 51 53 57 55 55 53 52 51 49 53 52 51 56 56 55 54 55

GFSSE_sfc_rhum_033.txt.gz
RH
72 73 78 75 80 80 80 79 82 82 83 80 80 78 73 72 69 67 66 67 66 69 66 65 68 66 67 64 66 63 63 66 68 72 72 71 68 67 68 70 64 52 61
67 71 78 77 77 75 80 84 85 86 86 82 80 76 71 70 67 64 64 64 63 73 72 72 68 70 69 63 58 60 66 67 68 71 75 77 75 67 67 66 62 56 61
69 68 65 77 77 79 80 83 86 85 84 80 78 75 70 68 65 62 61 62 62 76 78 78 71 69 67 62 60 64 68 71 70 70 72 56 54 60 62 63 63 59 61
72 66 59 79 78 81 83 84 85 83 80 80 75 70 70 66 61 61 61 61 61 75 74 72 70 71 68 65 67 70 72 73 74 73 53 56 58 66 60 60 60 61 65
72 64 60 79 77 75 82 82 82 82 81 80 77 73 70 63 60 62 63 64 64 72 73 70 70 69 71 69 70 73 73 75 79 63 57 63 65 63 63 68 70 68 66
74 63 69 83 82 81 81 80 80 80 80 80 78 73 68 62 61 64 66 69 69 70 69 68 68 71 71 71 74 73 71 78 75 57 57 65 67 67 62 70 68 74 75
75 67 62 83 81 80 79 79 79 77 79 80 77 72 67 62 64 66 70 72 71 70 69 70 73 76 77 74 71 68 78 83 62 61 63 66 63 61 64 64 72 73 73
76 72 65 81 81 81 80 80 79 76 75 80 78 72 69 65 65 68 71 73 72 72 72 74 76 77 71 63 61 65 77 78 66 64 61 54 65 58 59 61 71 70 69
76 75 70 68 74 84 85 84 82 81 82 82 80 78 75 76 72 68 71 72 73 76 75 77 78 69 56 58 61 68 76 72 50 50 46 47 68 52 55 66 71 68 66
82 77 75 73 71 68 69 85 83 83 81 81 81 80 80 82 81 76 80 78 74 76 77 80 74 59 56 57 67 75 74 67 46 46 42 43 55 54 69 73 72 69 67
88 84 83 78 76 73 73 74 82 85 84 83 80 85 81 63 67 70 83 84 82 82 81 77 68 63 63 62 58 66 61 43 42 44 44 71 72 72 71 69 68 65 64
88 86 83 81 81 78 72 73 71 67 70 67 68 70 68 72 71 71 80 88 85 86 84 72 66 60 37 26 31 51 42 48 55 61 56 77 70 70 68 67 65 64 62
78 78 80 75 82 82 73 75 74 79 80 76 72 72 71 74 77 75 75 76 75 85 64 53 40 28 28 26 30 40 49 58 59 62 67 76 63 60 61 60 58 57 57
80 79 75 72 75 85 79 76 74 81 78 78 80 74 74 79 85 81 78 81 79 76 65 48 32 26 25 24 26 40 51 60 59 62 64 75 65 59 57 55 54 54 55
80 78 77 73 76 82 88 83 77 73 76 73 76 77 72 79 86 81 79 80 79 76 64 46 29 24 22 22 24 38 53 62 61 59 56 78 70 59 54 51 50 50 50
79 75 77 75 78 80 86 88 85 75 71 75 76 75 75 73 81 82 81 81 78 74 63 42 29 26 25 23 24 40 56 62 59 57 53 53 69 59 50 47 47 46 48
72 78 76 76 79 80 84 86 85 83 76 77 75 76 75 72 77 80 80 82 76 74 55 38 28 28 28 24 24 36 54 59 58 54 50 48 47 64 52 46 42 45 42
36 69 78 80 81 83 84 89 85 87 84 75 76 73 76 74 71 77 81 79 76 71 47 36 32 32 30 27 26 29 45 56 57 48 46 42 42 38 47 42 40 38 40
32 34 59 79 81 82 83 88 91 92 89 82 78 73 74 75 74 71 75 77 76 67 45 36 34 31 30 30 28 32 33 49 54 45 40 42 41 39 39 49 48 42 37
37 36 37 59 76 83 84 89 94 94 89 89 86 75 77 73 75 76 74 75 71 64 49 37 34 33 31 30 26 35 39 36 51 46 38 37 35 40 36 31 30 33 47
37 40 40 41 56 82 91 94 95 95 92 94 87 77 76 73 74 78 81 74 67 61 50 36 35 36 35 36 40 40 40 37 42 44 41 34 37 31 30 29 29 29 30
36 39 40 40 41 64 80 77 81 82 87 85 90 84 75 74 74 74 75 75 64 58 46 38 44 46 36 39 37 40 40 38 36 35 38 35 33 31 31 31 30 31 33
39 39 38 40 42 50 70 83 92 92 94 95 95 88 82 75 74 71 75 73 74 58 49 43 41 42 42 41 40 38 43 39 40 36 38 35 34 32 30 33 32 32 32
43 46 42 41 40 44 72 83 83 79 85 83 83 88 88 82 78 75 72 73 74 64 53 45 39 40 44 44 42 36 37 38 38 36 35 35 32 30 31 34 32 32 35
50 56 51 42 40 43 54 81 86 84 77 79 88 88 89 88 82 80 71 72 73 71 61 58 46 45 41 45 48 44 40 38 32 32 36 37 37 33 31 32 33 32 34
56 58 58 50 42 41 45 57 85 89 83 88 91 92 91 90 88 83 76 74 73 71 69 68 62 54 55 50 50 45 52 40 36 37 37 36 34 37 36 36 36 35 35

GFSSE_sfc_rhum_036.txt.gz
RH
52 53 80 81 80 80 80 79 82 82 82 80 80 78 77 73 69 68 68 66 67 68 64 69 66 64 65 66 63 64 67 68 71 73 72 71 68 67 69 64 55 45 62
47 48 79 79 80 82 82 84 85 86 85 82 80 75 72 70 67 65 65 62 66 73 68 71 70 70 65 60 62 65 66 66 69 72 74 76 75 66 65 64 63 54 60
48 45 49 79 82 84 85 85 87 86 85 82 78 75 71 68 65 62 62 63 77 78 77 74 70 67 63 61 64 67 68 67 68 70 64 42 47 59 62 65 63 60 66
46 44 45 77 74 79 84 86 87 84 83 80 77 73 70 65 62 61 61 62 77 75 73 72 72 68 65 67 69 70 71 72 70 66 43 44 43 67 64 63 59 60 63
47 44 48 76 75 80 81 85 84 82 81 80 77 73 68 62 62 63 62 63 75 74 74 72 71 71 69 70 71 72 73 74 71 57 49 53 50 58 64 72 70 68 68
46 43 67 80 78 84 82 82 83 81 79 79 77 73 66 62 63 64 67 70 72 73 71 68 69 70 71 72 74 70 73 74 73 45 49 58 53 61 68 66 73 75 75
45 43 50 79 80 80 81 80 81 81 80 80 76 72 66 62 64 67 69 70 70 69 68 69 72 75 75 74 69 70 80 76 47 48 49 50 52 63 64 70 74 74 73
47 48 49 78 82 81 81 81 81 79 81 81 78 72 67 65 67 69 71 71 71 70 70 73 76 75 68 63 64 71 79 76 53 50 50 45 63 57 57 69 70 67 69
48 47 50 58 65 85 84 83 82 80 80 84 80 78 76 73 70 70 73 73 74 74 75 77 75 61 59 60 63 74 73 67 41 42 36 35 66 52 54 73 70 71 69
52 48 45 46 48 52 55 87 84 83 87 85 82 82 83 82 79 75 80 77 77 77 78 78 65 57 59 64 73 75 70 65 36 36 30 34 65 55 74 72 69 67 65
60 53 48 45 45 46 47 61 81 85 85 85 80 85 82 51 57 65 74 83 81 79 82 74 64 62 62 62 66 64 58 28 27 27 28 79 74 73 71 69 66 64 64
73 67 53 49 47 48 49 51 48 47 52 53 52 54 47 46 46 49 70 87 85 86 84 72 67 55 45 25 28 48 24 26 28 31 37 76 69 68 68 66 64 62 62
72 71 68 58 51 52 50 50 48 45 47 48 47 46 44 47 55 56 52 58 56 82 56 58 46 32 29 24 24 22 26 30 29 34 60 77 66 64 62 61 60 59 59
73 70 70 67 63 60 50 50 48 47 48 49 48 47 49 53 59 55 54 54 50 52 51 46 35 28 25 21 20 23 27 30 30 37 59 76 66 59 56 56 56 57 57
70 68 68 66 64 69 71 53 49 50 52 48 51 50 47 52 57 54 55 57 56 49 47 46 36 27 22 20 20 23 27 30 32 37 45 79 71 60 54 52 52 52 52
57 61 65 67 66 66 74 78 56 51 48 48 48 50 52 50 53 54 57 63 59 54 47 44 35 28 23 21 20 23 28 33 33 38 40 52 71 62 53 49 48 48 50
38 46 53 59 63 66 69 77 76 59 53 51 50 49 51 50 51 53 58 68 61 55 50 44 34 27 25 21 21 24 29 32 35 36 37 39 47 64 56 48 45 49 44
21 27 37 49 58 65 70 74 76 86 63 57 52 49 51 50 50 52 54 64 57 56 53 46 37 32 29 25 23 22 29 34 34 34 36 35 35 32 51 44 44 41 41
19 20 24 37 49 56 67 74 80 80 85 60 55 56 53 52 50 50 52 54 54 58 54 46 39 34 32 28 24 22 26 32 35 32 32 33 34 32 30 47 46 41 38
22 22 22 24 34 47 55 79 87 87 84 83 62 58 57 54 56 54 50 53 53 60 56 47 41 33 32 29 18 22 26 28 33 34 29 28 29 32 31 32 32 35 46
24 25 26 26 27 32 48 84 91 88 87 88 83 66 60 59 57 59 53 53 55 60 58 49 43 38 34 28 30 30 30 28 31 33 30 28 30 28 29 25 24 23 29
23 25 26 26 27 27 34 48 59 70 76 76 85 85 65 64 62 62 60 60 56 59 58 54 46 42 36 34 34 34 37 33 29 32 33 29 28 27 27 25 24 25 28
31 30 27 26 26 28 30 42 56 64 71 73 81 83 80 65 64 62 65 64 59 59 60 59 50 46 43 38 32 34 39 38 34 32 36 34 30 29 26 27 26 26 26
40 41 36 32 28 27 31 36 49 61 66 61 58 67 82 77 68 65 65 65 67 63 60 58 57 46 45 45 39 32 34 34 37 40 33 33 30 28 28 29 26 26 27
44 50 44 37 31 29 30 38 47 55 51 49 54 63 69 81 80 72 69 70 69 68 62 63 56 48 44 46 46 40 37 37 33 35 37 37 32 29 27 27 26 26 28
45 46 46 38 34 36 32 32 42 54 54 54 60 70 68 74 83 77 74 72 69 69 68 67 64 61 52 48 54 52 48 42 40 39 35 35 35 33 30 28 28 28 28

GFSSE_sfc_rhum_039.txt.gz
RH
46 56 86 81 77 80 79 81 81 82 82 80 80 80 77 74 71 70 67 67 69 64 67 65 67 67 67 64 65 67 69 70 72 73 74 73 68 67 63 63 67 50 64
43 50 85 82 80 80 82 84 85 85 85 82 78 76 73 70 67 66 64 62 72 69 71 68 70 65 62 64 65 66 66 68 70 70 79 77 74 64 63 64 67 57 64
41 45 53 82 82 85 86 85 87 86 85 82 77 76 72 68 65 63 61 74 75 73 76 71 68 64 63 64 66 67 66 66 68 66 70 45 52 63 64 66 64 65 67
38 43 46 81 81 86 86 87 87 84 83 80 76 73 71 66 63 61 62 77 77 77 75 72 69 66 66 69 70 70 70 68 64 66 42 39 46 68 70 70 59 60 63
37 38 51 78 80 84 86 86 85 84 82 80 77 73 68 63 62 62 64 77 77 76 74 72 71 69 70 71 72 72 71 68 65 57 46 53 63 60 70 73 69 68 68
36 36 66 75 76 79 81 85 82 80 78 77 76 72 65 63 64 65 71 74 75 73 71 70 69 71 72 74 71 70 72 69 74 44 48 57 60 68 65 74 77 78 75
35 39 50 77 80 80 81 81 83 81 79 78 76 69 64 64 66 69 71 72 72 70 69 70 72 74 75 72 68 75 75 73 53 45 46 48 59 64 64 74 72 72 72
36 41 50 77 78 80 81 80 82 80 82 80 77 70 65 66 68 69 71 70 69 68 70 74 76 72 67 65 67 76 75 74 50 46 47 49 65 58 59 69 68 67 69
38 39 49 56 70 82 85 84 83 80 83 84 80 76 74 73 71 70 72 71 71 71 73 78 71 62 62 62 68 73 71 70 41 41 33 40 65 53 65 71 71 68 67
42 39 45 48 50 52 57 86 85 83 83 85 82 83 82 80 79 76 81 77 76 76 78 75 62 60 62 69 73 71 65 64 34 35 31 44 65 57 74 71 68 66 66
45 42 39 39 41 43 43 62 82 85 89 86 82 85 80 52 57 68 74 82 80 79 82 70 62 62 64 70 68 61 65 29 27 28 36 80 75 73 70 67 67 65 65
50 44 40 38 39 40 40 52 51 51 57 58 62 62 50 45 46 46 70 86 84 87 83 71 64 60 63 30 34 49 29 26 28 31 53 78 70 69 68 66 64 63 62
64 59 45 44 41 41 42 45 43 42 46 47 46 48 48 42 48 48 55 58 63 86 66 65 61 41 34 28 29 24 25 28 28 33 67 77 67 66 64 62 61 60 59
65 67 66 50 47 45 43 44 42 41 44 45 44 42 43 45 51 49 46 50 48 58 51 52 43 34 31 28 24 24 25 29 30 40 66 77 69 62 58 58 58 58 58
56 64 67 64 56 50 50 44 44 44 43 43 43 43 41 46 56 55 49 54 48 44 44 46 40 32 29 24 23 24 25 27 28 37 55 79 72 61 56 54 55 55 55
46 54 60 64 63 52 62 59 48 45 45 44 43 44 43 44 48 53 52 67 64 48 44 43 40 34 29 25 24 24 26 29 29 34 49 60 73 66 55 52 52 52 52
37 42 48 53 56 59 59 68 64 53 46 46 45 45 46 46 46 46 48 64 68 63 46 44 40 33 31 26 25 25 28 28 32 34 40 50 55 68 61 50 49 51 48
22 26 36 43 50 54 56 60 70 68 53 48 46 45 45 45 46 46 48 60 69 66 54 49 44 38 35 32 29 27 29 31 31 31 36 38 45 42 59 53 51 45 44
20 20 22 27 38 47 51 59 76 78 75 56 49 49 48 47 46 46 48 50 65 65 58 53 48 40 41 37 33 29 30 33 32 31 33 37 38 39 44 55 56 52 45
18 18 19 20 23 31 41 48 80 85 83 78 60 50 50 49 50 50 49 48 49 56 58 56 50 44 42 39 29 27 33 33 35 36 33 32 35 39 37 45 49 44 47
21 22 22 23 22 23 32 42 71 82 83 84 81 65 52 53 52 56 55 49 50 53 58 55 52 50 47 41 38 37 37 32 31 37 35 33 35 34 36 39 34 35 44
21 22 23 23 24 24 26 30 46 64 73 77 84 78 73 60 57 57 60 58 53 56 57 59 57 53 48 41 44 48 50 40 33 32 37 33 32 35 36 34 32 34 39
32 32 28 25 24 25 26 27 34 47 61 70 82 82 77 71 61 59 63 62 59 58 62 63 59 56 55 46 43 50 57 56 44 36 40 39 34 36 33 35 32 32 35
38 42 36 33 30 26 26 28 33 42 55 58 56 61 64 65 69 64 68 69 68 63 64 62 60 58 57 59 52 38 44 48 52 53 44 42 38 32 34 36 33 33 35
40 48 45 37 30 30 28 29 33 37 41 50 51 51 50 60 72 72 69 70 78 72 70 67 64 62 63 65 60 56 47 47 46 52 52 48 41 37 34 32 34 33 34
43 45 45 39 34 32 34 32 33 41 43 47 51 50 49 53 66 72 74 76 77 80 78 73 73 70 71 65 63 53 51 53 48 51 52 49 46 41 36 36 36 39 39

GFSSE_sfc_rhum_042.txt.gz
RH
71 83 86 82 85 86 85 82 84 85 84 82 80 79 75 74 72 70 68 68 69 68 68 68 69 67 66 67 68 69 69 69 69 73 76 74 68 61 65 68 69 64 64
63 73 86 82 82 84 86 86 86 85 86 82 79 76 73 71 68 67 64 70 70 70 68 70 66 65 65 66 66 67 67 66 69 76 79 77 75 65 64 67 70 67 63
61 66 73 85 85 86 88 87 88 85 86 83 78 74 72 69 66 63 71 76 74 76 72 69 65 64 64 66 67 66 64 65 67 73 77 69 74 67 65 65 67 67 59
54 61 68 86 87 88 89 88 88 86 84 81 76 74 70 66 63 61 77 75 78 75 73 70 66 67 69 71 71 70 66 62 65 73 64 55 59 72 73 70 64 63 66
52 53 69 82 87 88 88 88 87 83 82 80 76 72 67 63 62 65 78 78 78 76 74 72 70 71 73 74 72 71 68 66 73 67 70 69 73 65 73 75 74 76 76
48 67 80 81 85 86 86 86 85 80 79 79 75 69 66 64 63 72 77 78 76 74 72 70 71 73 76 74 71 73 71 70 78 62 66 74 76 64 72 77 77 74 75
57 62 67 80 82 79 81 85 82 79 80 78 74 67 65 66 67 72 74 75 74 72 70 72 73 76 75 71 72 74 71 77 73 56 69 68 70 62 71 72 73 75 72
60 58 64 79 80 81 81 80 83 82 81 79 75 68 66 68 69 71 72 73 71 69 72 75 75 71 68 68 71 75 75 78 58 59 66 72 70 56 67 69 68 65 67
50 60 66 66 69 82 83 83 83 85 85 83 79 75 76 75 72 71 72 71 70 73 76 76 68 65 63 66 71 70 71 71 61 52 49 68 66 56 70 70 68 68 67
52 57 64 68 70 71 85 85 84 82 87 84 82 82 83 81 80 77 82 80 78 77 81 71 64 63 68 70 71 66 68 69 53 46 65 77 64 68 72 70 68 68 67
54 55 58 62 64 65 70 81 87 83 87 86 85 86 84 80 81 84 82 83 85 84 81 67 63 62 72 76 69 69 66 57 43 48 91 82 74 73 69 68 66 66 66
62 56 53 54 56 58 48 84 78 76 87 87 79 80 74 72 71 66 85 87 86 88 83 70 64 64 67 56 58 58 48 42 46 58 88 81 71 70 69 67 65 63 63
76 69 54 55 54 56 58 72 71 71 78 76 78 76 75 62 74 76 92 92 97 93 88 81 76 63 54 51 46 45 41 43 50 74 84 79 69 67 65 63 62 61 62
73 79 73 67 58 58 59 64 60 62 66 70 69 68 69 71 70 72 78 79 85 92 91 86 81 67 54 42 39 37 38 45 49 85 86 79 72 64 61 60 60 60 61
77 67 74 77 72 63 63 63 63 60 62 65 65 63 63 69 76 72 70 67 66 78 78 77 70 55 46 40 35 36 37 41 42 77 90 81 74 64 59 58 59 58 59
65 72 69 71 76 69 71 75 67 61 58 61 63 65 59 65 77 74 70 70 72 77 69 69 65 55 48 41 36 37 38 42 44 78 80 83 75 70 60 56 57 56 58
56 61 70 71 71 76 76 78 81 79 58 64 64 60 59 60 68 72 73 82 80 70 77 66 62 55 50 39 41 38 40 43 46 56 74 76 76 71 65 54 54 55 55
36 43 60 59 67 72 73 83 83 84 81 68 64 63 61 59 62 67 72 84 86 81 72 77 70 61 55 48 46 43 44 46 46 47 63 69 70 63 68 62 56 54 51
29 30 32 38 59 65 70 75 80 87 87 85 74 60 64 58 60 64 70 80 84 87 77 72 71 59 59 57 49 47 46 51 48 42 50 58 66 66 66 61 66 61 54
30 30 30 34 34 40 66 69 87 90 87 86 82 80 67 68 62 65 67 71 77 83 83 74 68 67 64 61 39 40 46 50 52 53 50 47 53 58 61 60 63 56 59
28 31 32 33 34 38 45 65 95 97 95 94 85 82 86 65 68 74 68 68 71 76 76 72 76 71 72 63 54 52 52 42 43 55 52 52 50 48 58 58 58 58 56
36 38 37 35 35 37 41 44 60 88 89 86 90 81 81 87 80 76 77 77 72 72 76 74 73 78 73 65 58 64 64 57 48 43 56 48 49 50 49 50 49 51 56
51 52 44 42 40 38 38 42 47 53 91 94 94 92 84 80 87 86 72 86 86 79 77 78 80 73 73 71 56 68 78 72 59 51 46 57 47 52 49 46 39 37 46
57 61 57 48 42 38 37 41 45 53 61 82 88 87 89 84 84 82 84 80 80 92 86 87 87 81 77 64 69 54 67 62 61 57 52 54 50 44 42 48 40 38 40
58 63 62 56 49 43 45 43 48 50 53 55 71 80 87 86 86 86 84 86 86 85 89 95 93 85 72 72 68 86 82 65 64 68 65 55 53 50 47 42 40 40 38
60 62 62 56 50 50 48 48 48 51 55 58 68 78 77 74 89 90 86 81 86 92 88 86 91 91 84 79 76 90 82 78 75 75 78 66 55 55 51 47 41 41 44

GFSSE_sfc_rhum_045.txt.gz
RH
96 91 86 85 84 85 85 85 86 85 84 80 78 77 75 74 71 69 69 69 71 72 69 68 67 67 69 69 68 68 66 67 69 72 74 71 63 68 68 68 70 67 66
90 87 87 86 86 87 87 88 88 88 86 83 78 75 73 72 69 64 69 70 71 72 68 66 67 66 66 66 67 66 65 69 71 74 79 80 77 66 66 69 69 64 60
84 82 81 86 88 89 89 89 88 88 87 84 78 74 72 69 65 67 77 74 78 72 68 66 65 64 66 66 65 64 66 69 69 75 75 81 82 73 63 67 68 63 63
77 77 82 87 89 90 89 88 87 85 83 82 76 73 69 66 62 77 73 76 76 74 70 67 66 69 71 71 68 64 64 64 67 74 72 67 69 72 69 70 69 66 66
71 73 80 90 90 90 89 88 87 83 83 81 75 71 67 63 67 80 78 79 76 74 71 68 70 73 74 73 70 68 67 68 78 71 78 83 82 72 76 77 76 77 73
70 82 86 88 90 90 89 88 84 81 79 78 73 69 66 64 71 78 79 79 78 76 71 71 72 76 75 73 72 70 69 72 77 75 84 76 74 72 76 77 73 77 76
76 75 75 86 88 87 87 87 81 82 80 76 71 68 66 66 73 76 78 77 75 72 71 72 75 76 73 72 72 71 73 79 71 78 78 76 73 70 72 73 72 72 72
72 70 73 84 82 81 83 85 82 84 83 78 73 69 69 69 72 74 75 75 73 71 73 74 74 71 70 71 72 72 73 75 63 73 77 80 69 65 67 68 66 67 68
65 72 82 82 78 83 82 83 84 83 85 81 77 76 76 75 72 73 74 73 71 74 77 75 69 67 66 69 68 66 69 72 56 67 60 74 68 65 69 68 68 69 67
70 72 81 77 74 78 82 86 87 87 87 84 81 84 84 83 81 76 82 79 77 79 80 70 67 65 68 70 67 69 69 67 55 63 72 80 67 72 70 70 69 68 67
70 73 75 80 80 80 86 85 86 86 88 88 86 87 87 90 88 87 88 86 84 86 78 68 66 68 76 77 71 69 68 57 56 95 94 80 73 72 69 67 67 67 66
76 73 71 75 76 78 68 91 93 84 95 92 87 87 85 89 89 80 88 88 88 89 82 71 67 69 71 68 60 62 50 51 60 97 97 83 73 70 69 68 67 64 64
77 72 69 69 69 70 72 88 90 96 97 95 92 86 84 78 86 89 98 96 97 96 93 82 79 73 67 60 54 44 47 49 66 96 88 80 70 68 68 65 62 64 64
84 80 80 74 65 71 76 78 80 84 87 96 89 84 86 88 86 91 93 98 98 98 96 94 90 71 62 59 53 46 43 47 82 98 92 83 74 67 64 62 62 63 64
82 81 80 84 84 69 77 77 75 75 76 76 82 81 80 85 79 82 89 88 95 98 98 97 92 82 71 50 43 41 42 47 93 96 96 85 79 70 63 62 61 62 63
82 77 76 80 84 83 76 73 72 69 66 71 75 73 72 74 76 77 81 81 83 88 92 87 86 75 58 49 41 40 42 46 77 93 94 88 80 74 64 61 60 60 62
77 75 77 77 79 84 85 80 85 87 71 68 70 69 68 68 80 72 78 86 74 78 81 81 79 66 56 49 42 41 44 47 71 89 87 88 83 79 72 61 59 59 62
66 77 75 67 76 79 85 86 83 85 89 84 62 69 66 63 71 82 80 87 85 82 82 86 79 72 62 52 49 46 47 49 52 86 85 82 80 74 76 68 61 58 59
36 60 75 74 76 78 83 85 86 88 91 92 92 75 64 62 63 71 78 82 88 85 82 82 84 63 64 59 51 51 50 51 53 51 82 78 76 74 76 74 71 69 62
31 32 33 41 69 77 76 84 92 95 94 93 94 95 90 70 64 67 74 80 87 89 86 91 89 70 59 61 44 46 53 54 58 58 60 68 74 71 70 67 79 73 68
34 36 39 37 37 42 56 91 97 96 96 98 96 90 95 94 83 75 72 78 85 87 83 84 87 77 73 68 60 57 57 51 50 59 60 61 65 66 69 65 66 65 69
49 50 47 44 42 41 46 50 79 96 97 91 95 93 87 93 95 93 78 82 87 84 88 90 88 89 79 71 71 63 57 56 53 46 60 55 57 58 62 58 59 58 62
58 61 58 53 47 45 42 44 49 60 92 97 97 97 95 93 92 94 96 94 93 92 88 86 91 88 85 91 74 73 81 70 65 57 46 62 58 58 56 55 54 50 55
64 64 63 60 57 45 44 45 49 53 59 86 96 95 95 94 91 90 93 95 92 90 88 91 90 88 93 87 91 57 82 71 66 65 67 61 67 53 51 58 50 44 46
62 66 65 60 54 54 51 51 53 54 58 63 67 81 96 95 94 91 90 93 97 95 92 90 96 96 89 90 81 91 90 81 70 73 75 82 78 68 51 45 47 43 43
63 62 62 58 56 57 60 60 61 62 63 62 62 66 71 88 94 95 92 94 95 97 96 96 94 95 91 87 88 93 90 84 77 85 89 91 87 78 66 56 49 44 47

GFSSE_sfc_rhum_048.txt.gz
RH
96 94 89 85 83 83 84 83 84 85 84 80 77 76 75 73 71 70 68 74 74 69 67 67 68 70 70 68 67 66 67 67 68 71 70 71 70 67 68 69 69 71 68
96 90 89 87 84 85 87 87 88 87 85 82 78 76 74 72 67 66 69 73 71 68 67 67 67 67 67 66 65 67 69 68 68 73 80 80 76 67 67 69 66 64 66
91 86 87 88 88 89 89 88 89 88 86 83 76 74 72 68 64 76 73 74 70 69 67 65 64 65 65 65 66 69 69 69 71 74 79 88 86 64 67 68 67 64 63
84 86 87 90 90 90 90 88 89 88 84 80 76 72 69 63 76 77 75 77 72 69 66 65 67 68 68 66 66 67 66 66 67 75 77 77 75 70 70 70 68 67 72
84 86 88 90 91 90 88 88 88 85 80 78 74 71 65 66 78 75 78 76 73 71 69 69 72 73 72 70 68 67 69 73 78 77 82 86 89 75 75 78 75 74 78
90 93 92 91 91 90 88 88 84 83 78 76 73 68 64 73 76 77 80 79 76 74 71 72 75 75 74 73 71 70 72 73 80 91 87 80 87 75 75 74 76 76 74
91 90 89 92 92 90 89 88 84 84 78 75 71 67 65 72 77 78 80 79 76 72 71 73 75 74 73 73 71 72 71 74 79 84 81 80 84 72 72 70 72 73 72
83 80 79 89 90 88 89 84 84 84 81 75 72 69 68 71 75 77 78 77 74 72 73 74 75 72 71 71 71 71 70 73 73 81 83 80 77 66 62 66 68 69 69
74 82 89 86 83 83 86 84 83 83 83 80 78 76 74 76 74 76 77 75 73 73 76 74 71 69 69 69 69 68 70 70 74 79 71 80 71 67 70 70 66 68 67
78 82 92 88 80 76 78 84 84 87 86 82 81 83 84 83 82 78 82 80 76 78 78 73 69 66 68 69 67 67 68 69 72 70 77 79 69 69 71 71 67 68 66
79 82 86 84 83 86 90 88 91 90 90 88 87 87 87 93 90 89 89 85 84 85 78 70 68 70 78 78 73 68 64 59 70 84 81 76 76 72 70 69 67 67 65
91 86 82 85 86 90 75 93 93 91 96 94 92 92 92 94 95 88 92 90 87 88 83 72 69 73 80 76 69 64 53 54 89 97 97 84 76 70 67 69 68 65 64
84 82 81 80 84 87 83 97 98 97 99 98 93 93 92 89 96 96 97 97 98 96 96 86 85 81 74 62 55 49 48 54 78 98 93 85 74 70 70 68 64 65 63
87 86 81 84 84 86 89 92 91 96 98 99 95 90 94 96 95 97 98 98 98 99 97 96 91 79 66 61 64 53 50 56 83 98 96 85 77 69 68 63 63 66 63
87 88 89 82 80 79 90 87 89 96 92 97 96 90 90 93 92 97 96 98 98 99 98 98 97 92 79 70 56 50 45 52 88 98 98 90 82 74 66 64 62 65 63
84 84 84 86 86 79 89 86 80 85 87 91 92 89 85 87 85 86 90 92 95 98 98 98 97 96 86 70 53 45 44 51 91 96 97 95 85 79 70 64 63 63 64
84 77 76 80 84 90 81 83 84 80 76 82 80 83 83 82 83 80 82 86 83 87 96 98 96 94 79 59 49 40 44 48 67 95 96 96 91 84 76 66 64 62 64
85 84 76 69 79 86 90 88 87 93 92 78 76 76 74 74 78 82 78 81 80 80 84 92 91 91 77 64 52 46 46 50 56 94 95 93 92 84 82 74 68 63 63
80 82 88 82 82 85 88 90 90 89 92 91 93 81 75 70 70 76 78 77 89 85 84 87 92 83 80 70 56 52 52 53 56 68 94 91 89 86 87 80 78 73 69
38 43 54 80 88 89 90 92 95 95 95 96 93 94 91 79 73 77 79 82 88 93 88 94 90 87 76 70 50 47 57 57 60 65 85 82 85 81 80 79 88 84 76
44 42 41 39 42 67 92 96 97 94 96 97 97 92 95 94 91 85 86 89 94 92 86 90 90 92 84 75 56 54 55 54 55 64 66 79 83 77 79 75 77 84 76
53 52 51 48 46 42 48 55 86 96 97 96 95 96 95 96 96 95 92 89 91 84 94 95 94 94 93 88 82 63 59 58 55 48 63 61 70 76 74 71 75 72 73
62 65 62 62 57 50 44 46 50 55 87 98 98 98 96 95 94 96 96 96 94 91 89 93 95 95 91 96 91 86 76 73 71 62 53 59 63 70 76 78 70 66 67
69 72 66 63 58 53 53 52 49 52 56 72 93 96 96 95 96 95 95 97 95 95 93 94 93 93 97 96 96 82 91 77 71 77 68 64 71 64 68 80 71 68 62
69 72 69 62 60 62 61 62 64 62 61 64 66 67 74 84 95 96 95 95 97 97 96 94 96 97 96 91 95 94 96 94 88 82 79 82 89 79 70 60 64 62 54
66 67 66 64 67 68 70 71 73 76 77 74 71 70 72 74 84 91 96 97 96 98 98 97 96 97 96 95 95 93 84 88 80 84 88 92 86 81 76 62 57 54 51

GFSSE_sfc_rhum_051.txt.gz
RH
97 96 89 83 82 82 82 82 83 84 83 78 77 75 74 74 72 68 76 76 70 68 66 68 69 71 69 67 68 69 68 66 67 71 74 74 68 66 67 68 69 73 72
89 94 88 85 82 83 85 86 88 87 85 79 77 75 74 70 67 69 75 70 69 67 65 66 68 68 67 66 69 70 68 68 71 75 80 80 77 66 67 65 63 70 73
92 92 87 86 87 89 89 87 89 87 85 81 76 74 72 67 69 70 75 70 69 67 64 64 65 65 65 67 71 70 70 72 75 80 82 92 80 66 67 66 66 64 65
92 92 90 89 90 89 88 86 88 85 81 78 75 73 68 65 78 73 76 72 70 67 64 65 66 65 65 69 69 68 68 67 67 75 80 83 79 69 69 68 68 75 75
91 93 92 92 91 90 88 88 87 83 79 78 74 70 64 78 77 75 76 73 72 69 68 70 71 70 69 68 68 69 71 72 79 77 87 91 93 76 76 75 72 77 79
97 96 94 92 92 91 90 90 88 81 78 76 72 67 69 76 78 78 78 77 74 72 70 73 74 74 73 72 70 71 71 77 83 90 91 88 91 75 74 78 76 75 74
97 96 93 92 92 91 90 88 86 82 77 75 70 65 72 76 76 79 79 75 75 72 71 74 74 73 74 72 71 70 68 83 88 89 88 91 87 69 71 72 73 72 72
94 95 92 93 92 91 91 89 87 84 78 74 71 67 68 76 77 77 80 78 75 72 71 74 73 71 70 70 70 67 76 81 78 85 86 88 81 67 62 68 69 69 68
88 92 95 95 92 92 90 89 87 86 82 80 78 76 77 76 78 79 78 76 74 72 73 74 72 69 69 69 68 67 76 79 82 85 76 82 78 62 64 62 64 67 67
90 92 94 94 88 76 88 87 86 88 85 83 82 83 84 83 82 79 83 82 76 76 77 74 69 66 66 68 66 67 70 71 84 79 81 82 68 70 69 66 64 66 65
86 93 94 93 90 88 88 84 86 90 89 88 88 89 89 94 92 89 90 84 83 84 79 72 68 68 78 79 74 70 61 62 73 76 79 74 69 71 70 65 64 65 63
93 92 92 91 90 92 81 94 94 94 96 95 94 93 96 95 95 91 93 89 88 88 84 74 71 73 80 76 69 60 56 57 86 94 92 77 76 72 69 66 68 64 62
92 92 88 91 91 92 91 98 98 99 99 98 94 95 95 92 97 98 98 98 97 96 97 90 88 86 80 63 57 55 49 53 67 98 94 86 79 69 68 70 66 64 62
92 92 90 90 92 93 95 98 98 98 99 99 97 95 97 98 98 98 99 98 99 99 98 96 96 89 75 65 66 62 55 56 69 98 97 90 81 71 68 69 64 64 63
92 91 89 92 93 92 94 97 97 98 98 98 98 94 95 97 97 97 98 98 99 99 99 98 97 94 87 71 67 61 51 51 62 97 99 94 86 77 70 66 64 66 63
90 91 89 88 88 89 94 94 94 97 96 98 98 96 93 94 95 96 97 98 98 98 99 98 98 98 97 90 75 53 47 46 58 93 98 97 89 84 75 67 65 65 65
90 86 90 88 82 84 88 92 92 90 90 94 96 97 94 91 93 89 93 98 94 98 97 98 98 97 98 88 75 59 48 46 53 92 97 97 95 89 82 68 67 65 65
89 86 81 75 88 88 82 88 85 88 87 88 88 90 91 91 90 89 88 90 90 94 96 98 98 98 98 96 82 64 49 49 52 76 96 97 97 94 88 80 74 67 65
90 89 88 84 88 89 93 92 91 92 94 87 83 80 81 80 85 86 84 84 91 90 89 90 96 96 97 95 79 66 57 52 53 54 93 96 96 95 95 86 84 80 74
61 78 89 92 91 91 93 95 97 97 97 97 97 93 81 76 78 83 84 87 92 91 91 96 92 96 91 88 72 61 57 58 58 62 75 90 96 94 91 90 91 90 82
46 46 47 53 46 88 97 97 97 96 97 98 97 93 94 94 88 86 83 89 95 92 88 91 94 93 95 86 74 69 62 54 58 58 66 80 93 90 89 83 84 94 89
53 53 51 50 49 47 57 67 94 97 97 97 96 96 95 95 96 97 94 92 92 90 96 96 96 96 97 95 94 84 76 71 61 54 62 60 70 91 84 79 80 82 89
65 65 64 62 57 53 48 50 52 54 78 97 97 98 97 96 96 97 97 98 96 95 94 95 96 96 94 98 94 93 79 80 81 68 60 61 63 85 88 85 77 77 79
73 75 69 63 61 59 57 55 50 52 54 63 77 86 77 91 96 97 97 98 98 98 97 95 94 95 98 97 98 92 91 75 79 77 72 63 66 70 76 92 83 78 73
76 74 69 67 68 70 69 65 67 66 65 65 66 63 64 68 74 90 97 98 98 99 98 97 97 98 98 95 97 96 92 95 87 93 93 88 86 91 87 70 72 70 65
75 74 73 71 73 74 74 75 75 77 79 77 76 75 78 78 92 94 94 98 99 99 99 98 97 97 98 98 97 96 92 93 95 93 91 84 83 83 83 77 64 66 67

GFSSE_sfc_rhum_054.txt.gz
RH
97 97 88 82 82 83 82 81 82 83 82 78 76 75 75 72 70 76 76 72 68 67 68 68 68 67 69 71 70 68 66 67 70 75 77 74 67 66 66 67 69 75 75
95 95 88 84 81 82 84 85 88 86 82 73 76 75 72 69 70 77 70 70 67 65 66 68 70 69 68 70 70 69 68 72 77 80 80 81 77 67 64 65 68 72 72
93 92 88 86 86 87 87 86 88 86 84 80 76 75 70 67 71 76 70 70 69 64 64 66 67 67 69 72 71 72 72 75 79 78 82 92 80 68 67 68 68 66 70
95 93 90 88 88 90 89 87 87 84 81 78 76 73 67 69 72 76 73 71 68 63 64 65 65 66 70 71 70 69 68 67 70 77 88 90 78 72 69 69 76 77 71
95 96 92 88 90 89 88 88 86 82 79 77 74 69 68 78 74 77 74 72 70 67 69 70 69 69 70 70 70 71 71 74 77 80 92 95 93 78 77 74 78 77 78
98 97 94 92 91 91 90 89 85 81 79 76 71 66 80 76 74 76 76 76 73 70 72 72 73 73 72 72 72 71 73 79 83 92 94 92 91 74 77 77 75 74 73
96 98 96 93 92 92 91 90 86 80 77 73 68 67 79 77 78 78 79 77 74 71 73 74 73 73 74 73 72 67 77 83 88 88 93 92 89 72 73 74 73 72 69
97 98 95 94 92 92 91 90 87 83 77 73 70 69 79 77 82 81 79 78 75 72 72 73 72 71 72 72 71 67 81 81 79 86 89 92 80 65 64 67 70 70 68
98 98 98 97 96 93 92 90 88 85 82 79 77 75 80 83 83 81 79 77 74 72 73 74 72 71 70 71 70 70 82 80 86 86 76 86 76 60 63 60 64 68 68
96 96 98 98 96 96 95 93 89 88 86 84 82 83 86 84 83 84 84 82 76 75 76 74 70 68 70 71 69 66 71 73 85 83 85 83 70 68 64 61 62 66 65
93 96 96 96 94 93 94 91 86 89 89 88 88 89 91 94 92 91 91 86 84 83 80 74 70 69 76 78 74 67 60 63 78 78 80 72 70 73 69 61 64 64 62
96 95 95 95 94 93 84 91 89 90 96 95 94 93 96 94 95 92 93 89 86 88 86 73 70 74 79 77 71 61 58 57 69 89 91 74 70 75 68 64 68 63 61
94 95 94 94 93 94 95 98 99 99 98 97 94 95 95 94 97 98 98 98 97 96 97 91 91 89 81 67 60 58 51 54 61 94 92 85 75 74 69 69 67 64 61
94 93 93 93 94 94 97 98 98 99 99 99 97 95 97 98 98 98 99 98 98 98 98 97 97 93 83 70 68 66 59 50 60 86 95 93 86 73 68 67 66 64 62
94 93 94 94 94 95 95 98 98 98 100 98 98 96 97 97 97 97 98 98 98 99 99 99 98 96 93 81 68 67 66 55 55 74 98 96 91 81 71 70 65 66 65
93 93 93 94 94 94 96 96 98 98 98 99 99 98 96 97 97 97 97 97 98 98 99 99 98 98 97 96 93 80 66 55 54 68 95 97 93 88 79 71 67 66 66
93 90 93 90 91 94 94 95 97 97 94 98 98 98 96 96 96 94 97 98 97 98 97 98 98 98 98 96 95 84 68 56 52 59 90 97 96 92 88 73 69 67 65
92 92 91 79 88 92 94 95 96 94 96 97 98 98 97 96 95 96 97 97 96 98 98 98 98 99 99 98 98 93 76 59 51 53 84 96 98 97 93 86 78 71 68
92 92 92 91 94 92 89 94 95 92 95 94 96 96 94 96 96 96 94 92 95 97 98 96 98 98 98 98 97 96 86 70 56 49 66 90 96 97 98 91 87 84 80
79 91 92 92 92 94 96 96 97 97 97 97 96 93 87 87 91 94 93 93 95 97 97 98 95 98 96 96 92 86 83 73 55 59 56 70 92 95 97 96 95 91 86
48 61 81 94 88 96 98 98 98 98 98 98 97 95 95 92 87 91 91 96 96 94 89 94 96 95 97 95 84 91 78 69 64 59 62 71 83 95 97 96 93 93 93
51 52 51 52 49 66 89 94 97 97 97 97 97 96 95 96 96 96 94 93 95 96 97 97 97 98 98 97 96 90 91 85 71 61 64 62 67 93 96 94 94 93 93
62 62 60 60 56 53 50 52 55 56 70 94 97 98 97 96 97 97 98 98 97 97 96 96 97 97 96 99 94 95 89 88 80 78 64 66 65 82 93 94 91 89 90
74 76 68 63 62 60 59 55 51 53 54 61 67 69 63 69 82 95 98 99 99 99 98 97 96 96 98 98 99 93 92 80 92 94 73 59 60 66 79 92 90 87 80
81 76 73 72 72 73 70 68 69 69 71 73 71 69 70 74 81 89 93 96 98 99 98 99 99 99 98 97 98 98 96 95 90 93 95 92 80 80 78 77 78 77 73
82 79 77 76 78 77 77 77 76 77 81 79 79 78 81 83 95 93 93 96 93 91 94 95 99 98 98 98 98 98 94 95 96 97 98 95 93 90 80 75 69 68 76

GFSSE_sfc_rhum_057.txt.gz
RH
75 77 88 85 83 83 83 81 80 80 77 77 76 75 71 73 76 76 74 69 67 67 68 65 65 68 72 70 68 67 68 70 73 77 74 73 66 63 65 69 71 64 67
72 73 88 85 83 83 85 86 87 86 83 78 75 73 69 74 76 72 69 67 65 65 64 69 66 70 71 70 70 70 75 79 81 80 78 80 78 65 65 68 71 66 68
74 72 71 85 85 86 87 87 88 84 83 79 76 72 67 73 75 71 71 69 64 66 67 68 70 71 72 73 73 73 74 76 77 83 84 60 61 68 69 71 77 67 73
73 71 68 87 87 88 89 88 87 83 80 77 75 71 67 72 76 73 72 69 64 65 65 66 68 72 73 72 71 70 69 69 75 82 66 63 62 73 70 76 76 74 68
76 72 74 87 90 90 88 88 85 81 79 77 73 68 71 72 77 73 73 70 67 70 69 69 69 72 72 73 73 71 73 73 80 72 70 67 66 73 75 76 70 76 76
78 72 81 91 90 90 90 89 84 80 77 75 69 71 81 73 77 77 76 74 72 74 72 72 73 73 74 74 72 72 77 79 76 65 69 69 65 73 74 75 74 72 72
82 73 72 92 91 91 90 88 85 79 77 72 68 74 78 74 78 79 78 76 73 74 74 72 73 75 74 74 70 71 79 80 57 64 68 69 65 68 65 70 71 70 68
81 78 74 90 92 92 91 88 86 82 76 71 72 81 79 83 80 76 78 77 74 72 74 73 72 73 73 73 67 74 81 77 59 58 67 67 75 62 63 65 70 69 70
81 78 77 76 83 94 92 90 87 84 81 77 77 82 85 84 82 81 80 77 74 72 75 76 73 72 72 71 67 80 79 78 53 54 52 56 77 62 62 62 67 68 66
84 80 80 78 74 75 77 92 89 88 86 83 82 84 85 86 87 84 80 82 76 75 76 75 71 69 72 71 67 69 72 74 52 56 53 48 71 68 65 63 66 66 64
87 82 81 79 77 76 76 78 87 88 89 86 83 90 85 68 71 75 87 88 84 81 79 73 69 71 77 78 73 66 62 41 46 48 46 61 66 73 65 63 66 64 62
87 82 78 79 78 77 76 74 79 80 70 70 69 70 68 72 72 73 83 88 86 87 86 73 70 74 67 50 49 54 40 37 38 48 48 76 67 70 67 66 68 64 61
78 79 79 79 78 75 73 77 80 82 76 72 71 71 69 70 75 75 75 74 75 87 74 71 67 60 55 45 42 36 37 36 34 40 59 82 78 75 69 70 68 64 60
82 78 77 76 79 76 74 74 77 76 78 76 73 72 71 71 76 76 74 76 78 77 79 76 68 65 61 49 42 40 40 36 34 38 53 87 87 79 71 65 69 65 62
81 79 78 77 76 76 78 78 79 79 79 77 76 74 71 73 73 71 71 72 76 78 78 78 75 69 66 62 53 46 42 41 37 36 42 87 92 88 76 68 70 66 65
78 78 75 76 75 74 76 79 76 76 77 81 80 76 74 71 72 71 68 69 70 73 73 76 75 73 70 69 66 63 58 49 40 37 38 48 90 92 84 73 70 67 67
81 75 75 75 75 74 74 74 74 75 75 76 79 80 77 74 72 70 68 68 66 67 70 74 74 76 76 72 69 64 64 54 45 39 38 46 56 91 91 80 72 69 67
82 77 74 70 74 75 75 76 73 74 73 73 74 76 80 77 75 74 72 72 68 70 71 73 72 75 75 72 68 64 66 64 57 48 40 42 51 58 77 89 82 74 70
84 80 78 76 74 75 75 75 76 78 74 70 70 70 73 76 77 76 75 73 71 72 73 73 73 74 72 71 72 68 69 67 62 57 49 43 45 56 58 78 91 88 84
76 78 78 78 77 77 76 77 80 80 79 76 75 75 71 72 74 78 76 76 74 75 75 76 75 76 75 72 75 74 69 66 62 58 53 50 46 50 56 65 67 71 89
47 66 79 80 80 82 86 85 85 82 83 85 81 76 75 71 72 76 75 77 79 76 72 73 75 80 79 82 81 73 70 65 62 58 55 58 55 52 52 58 63 67 68
39 49 57 74 74 82 85 84 84 84 83 80 84 80 77 79 80 82 80 78 77 77 78 78 82 82 86 88 85 82 86 65 61 57 53 51 50 48 51 55 58 64 69
48 49 49 48 47 48 57 54 55 55 61 80 86 86 82 75 87 88 88 88 88 87 86 84 86 87 89 90 86 87 90 77 70 62 54 52 48 48 48 56 59 59 60
56 62 58 56 52 51 48 45 44 48 49 52 54 55 52 53 54 65 84 92 95 96 96 93 88 89 91 94 94 90 87 80 93 94 74 54 50 46 53 57 58 62 71
69 68 65 63 62 62 58 54 54 54 56 60 58 58 60 63 77 78 78 82 86 89 88 90 90 96 95 95 95 92 90 91 88 95 96 81 78 70 62 53 50 62 67
72 71 71 67 68 67 65 63 63 64 63 63 64 63 64 68 80 78 79 80 83 83 81 85 84 93 97 97 93 93 92 94 89 96 98 94 91 82 63 58 57 57 56

GFSSE_sfc_rhum_060.txt.gz
RH
53 54 86 83 81 81 81 81 82 80 79 76 75 71 72 74 76 75 68 66 66 71 63 69 72 70 70 68 68 68 69 72 72 74 75 71 64 65 69 72 73 51 63
45 50 88 86 83 84 83 83 84 83 82 77 74 69 76 76 73 69 67 65 65 68 69 69 72 70 71 71 73 74 77 80 81 77 74 78 77 66 67 73 76 61 68
44 48 62 87 87 86 86 85 85 84 80 78 74 68 75 74 71 72 68 64 65 67 67 71 73 70 73 73 72 73 73 74 80 81 75 50 56 70 75 78 72 73 74
44 46 50 89 87 87 88 86 86 81 79 77 74 68 72 76 73 73 68 64 65 67 69 71 73 74 73 72 72 70 70 74 80 79 50 51 49 72 76 73 76 68 68
46 44 52 85 88 90 88 86 84 80 78 76 72 68 71 78 74 73 69 67 69 70 69 70 73 73 75 74 72 72 72 74 76 62 51 54 57 70 74 75 69 74 75
45 43 75 86 90 91 90 88 82 78 76 74 69 72 73 76 76 76 72 72 74 72 72 72 74 75 75 73 72 75 75 71 69 47 49 56 66 70 71 73 74 72 70
44 44 58 91 90 91 90 87 84 78 75 69 70 79 79 77 78 78 76 73 75 73 72 74 75 75 75 72 69 76 76 73 41 43 46 47 56 67 68 67 70 70 70
46 47 57 88 91 92 90 88 86 80 74 68 76 82 78 81 79 79 78 74 72 74 73 72 72 74 74 70 71 79 76 72 45 41 44 44 70 64 64 68 69 69 68
47 49 54 59 75 94 92 89 87 83 78 74 81 84 86 85 82 78 79 76 73 74 75 74 72 72 72 68 74 80 77 72 39 38 32 36 77 63 63 64 68 67 64
56 54 51 57 54 57 66 91 89 87 84 81 84 86 88 89 85 81 81 80 75 76 77 73 70 70 71 69 64 70 70 72 36 38 34 37 67 68 63 64 65 64 62
58 60 53 52 50 50 58 69 86 89 87 84 81 88 80 47 54 62 82 85 81 78 77 72 69 72 74 75 66 62 61 33 31 31 30 59 63 67 65 66 66 63 61
57 57 56 56 54 52 53 56 67 62 53 51 50 49 39 42 44 49 73 88 83 84 83 72 70 74 70 36 40 59 35 33 28 30 30 68 70 64 76 66 68 64 60
53 54 56 58 54 53 53 59 70 63 52 52 52 50 46 44 46 46 46 50 52 81 53 60 57 44 40 34 33 29 30 30 26 26 40 71 74 71 72 71 69 65 61
57 55 56 54 57 54 50 55 57 51 50 52 53 52 51 50 54 46 41 45 49 45 48 50 46 47 49 43 32 30 30 30 26 26 36 74 78 78 76 73 71 67 63
60 56 56 56 55 56 57 52 52 50 52 51 54 55 51 54 56 51 44 40 41 43 45 46 48 46 46 44 43 41 39 35 32 30 29 68 77 83 83 74 69 70 66
66 59 58 58 55 57 59 58 53 49 50 52 53 55 56 53 55 54 50 48 42 43 44 47 49 51 50 49 47 43 44 45 41 35 32 34 77 83 87 82 72 71 67
68 68 60 57 55 56 57 57 52 52 51 52 53 55 57 56 54 54 52 51 49 46 47 49 51 53 54 52 52 48 47 46 46 43 39 37 40 83 86 85 79 71 66
62 68 65 60 58 56 53 54 51 50 50 50 50 52 57 55 55 55 53 53 51 52 53 53 53 54 54 52 51 49 49 50 50 48 46 43 42 39 67 85 86 79 72
61 63 68 67 62 60 57 55 54 54 53 50 50 51 53 53 53 56 55 54 53 56 55 56 56 56 57 54 53 52 52 53 52 50 49 48 47 44 42 64 89 92 88
53 60 66 69 68 65 63 60 58 57 54 51 51 50 51 51 54 56 56 56 55 57 58 57 60 57 58 57 55 57 56 54 53 51 50 48 47 48 45 46 47 53 92
25 56 60 67 68 67 71 68 67 65 61 61 56 60 58 55 55 58 58 57 59 61 59 57 57 61 61 58 66 62 58 55 54 51 46 46 48 48 48 46 46 44 47
24 35 56 61 60 62 61 61 60 61 59 57 62 62 59 60 60 62 64 64 64 65 63 63 66 70 70 67 76 78 78 51 45 48 47 47 45 43 44 45 44 43 46
34 34 39 49 64 64 63 64 66 63 65 70 72 70 70 66 74 76 78 80 81 83 81 78 79 82 89 80 75 81 86 60 56 50 51 46 44 42 42 44 45 46 46
40 43 41 44 44 46 53 60 63 63 64 53 49 47 45 42 43 46 60 76 87 91 94 92 90 91 92 95 91 86 85 81 88 82 60 53 45 44 48 49 49 47 49
47 54 49 43 42 42 40 37 39 38 36 39 40 43 44 47 56 58 56 60 62 66 72 79 80 84 90 91 92 93 92 89 84 95 91 79 68 73 64 56 47 48 47
53 56 54 46 46 48 45 43 42 44 42 43 46 44 44 47 56 61 63 62 66 69 70 70 73 80 82 81 87 91 92 90 85 90 95 86 86 61 52 50 51 52 52

GFSSE_sfc_rhum_066.txt.gz
RH
79 86 86 84 80 81 81 78 79 79 72 73 71 71 77 72 67 65 70 69 73 76 71 68 70 71 71 71 71 69 69 71 70 68 74 78 80 73 76 73 75 68 72
73 78 86 84 82 83 82 81 83 84 82 74 75 76 72 71 66 66 68 71 66 73 70 68 69 72 71 71 73 76 74 72 73 75 82 84 85 77 73 78 80 71 69
68 73 79 85 86 85 85 84 86 82 80 76 78 73 73 71 65 65 70 66 63 74 71 70 69 72 71 71 70 68 70 75 75 76 79 80 77 78 75 73 76 72 74
62 71 76 88 87 86 87 86 85 80 77 73 78 75 75 70 65 67 68 69 69 74 75 70 74 74 74 72 70 65 69 72 78 79 72 69 64 72 74 74 74 77 76
61 61 76 89 88 88 88 86 82 78 77 73 78 81 77 72 66 68 70 71 72 74 70 75 76 75 75 74 70 66 68 72 76 68 74 73 70 66 72 74 73 74 76
56 72 91 90 90 89 88 87 80 77 75 73 77 82 79 75 70 72 73 74 74 76 75 76 76 75 77 75 70 68 68 74 69 64 72 73 77 67 70 71 68 68 69
68 77 86 90 90 90 89 87 83 76 72 71 77 79 79 77 73 72 76 75 75 75 75 75 75 74 72 76 72 70 70 80 58 58 69 75 73 65 66 66 63 61 63
67 68 81 91 91 91 90 87 84 78 73 78 82 80 82 78 77 74 76 76 74 74 74 74 74 74 71 76 78 74 75 78 57 50 72 83 74 65 66 69 66 61 61
56 68 77 82 90 93 91 89 86 80 81 87 85 84 86 83 81 78 75 75 76 75 74 74 73 73 70 74 79 76 77 78 71 50 61 85 78 64 65 68 68 62 62
57 63 66 80 81 85 89 90 87 84 88 89 89 90 89 87 87 84 85 81 78 78 76 74 72 72 72 68 67 72 71 72 69 48 58 72 69 67 64 67 68 63 62
65 65 69 72 70 75 79 84 88 84 85 89 88 90 90 81 82 81 86 85 84 81 76 73 71 72 77 77 72 69 68 62 48 46 61 66 57 61 68 67 67 63 61
74 73 69 66 62 71 67 78 81 76 76 73 82 86 80 69 79 75 90 88 87 86 83 75 72 75 75 71 77 73 69 59 49 44 68 69 60 62 68 70 68 64 61
76 72 75 66 66 76 72 72 82 80 77 61 61 62 61 59 70 78 95 92 96 94 92 86 85 82 75 56 57 54 49 45 48 46 65 68 58 63 68 74 71 66 62
72 73 70 69 68 75 79 69 78 81 68 72 67 60 61 67 66 62 76 78 80 88 85 84 79 74 63 59 54 48 47 48 50 50 66 69 66 61 72 74 75 70 66
70 69 70 73 72 71 71 80 67 74 69 62 61 63 65 73 74 72 60 60 64 67 65 67 66 62 62 60 58 56 53 53 53 53 57 74 68 64 64 76 76 75 71
74 76 71 66 69 63 66 73 72 68 56 61 66 68 62 70 74 72 69 62 59 58 61 61 64 68 68 67 64 61 60 61 61 60 59 66 73 67 66 65 77 75 74
70 74 79 69 63 62 65 66 66 65 53 60 63 62 63 64 68 68 70 72 67 61 56 62 64 68 72 68 70 66 66 65 66 64 62 62 68 80 75 62 64 70 69
67 70 74 67 71 73 69 72 67 65 61 63 62 64 62 63 65 69 71 72 70 70 70 72 73 76 77 76 76 72 69 66 65 66 67 68 66 61 76 76 73 68 69
63 67 74 67 69 64 66 69 71 67 67 63 62 65 64 63 63 70 74 74 70 74 76 75 77 79 81 77 66 62 64 65 73 65 70 68 68 65 66 80 82 80 83
60 66 71 76 73 72 72 71 74 69 70 67 67 67 63 65 64 70 73 72 71 68 66 68 69 71 73 76 70 67 73 78 78 76 74 66 67 65 68 66 86 87 88
59 65 69 77 77 77 83 86 86 85 78 76 70 62 63 64 65 71 76 68 64 69 68 67 69 73 77 78 86 93 90 83 78 77 75 72 68 67 67 71 75 76 75
35 68 70 75 78 78 82 84 84 85 82 77 76 69 69 70 70 73 77 77 73 79 76 75 81 85 83 83 90 95 94 83 78 74 78 68 70 67 66 61 65 64 70
35 40 70 72 76 77 80 84 87 85 86 88 83 83 75 69 76 81 87 90 93 96 97 95 95 95 96 94 89 93 98 93 91 77 73 73 69 71 69 64 64 62 62
42 40 40 57 76 79 80 84 90 94 94 89 89 88 77 59 61 60 65 80 93 96 98 98 97 97 98 98 96 98 95 94 96 91 82 80 76 66 77 71 70 64 62
50 53 48 46 52 68 84 86 89 89 86 66 61 61 54 56 58 63 64 70 74 78 82 86 88 92 95 95 95 92 96 96 97 98 93 93 89 78 77 79 74 75 72
60 67 63 54 54 55 60 68 78 81 60 60 60 60 61 63 73 70 69 73 76 79 82 86 88 89 92 92 88 87 86 92 97 97 98 94 94 89 79 78 79 71 74

GFSSE_sfc_rhum_069.txt.gz
RH
91 91 87 84 80 81 81 78 76 78 76 71 75 76 69 66 67 71 73 79 76 69 69 70 69 70 70 68 67 72 73 68 71 79 84 82 76 75 74 77 77 69 70
88 86 87 84 82 82 82 81 83 84 80 76 76 72 68 65 66 71 69 76 73 71 70 66 69 69 69 72 73 74 74 74 74 82 86 87 83 74 73 76 78 75 76
86 82 83 86 85 84 84 82 86 82 80 81 75 73 67 66 69 66 66 73 72 71 69 68 70 70 69 68 69 72 75 75 76 77 78 82 72 73 76 79 80 76 76
81 81 84 87 86 86 86 84 84 78 78 80 78 74 67 67 69 69 65 65 70 69 68 72 74 73 72 68 69 70 69 70 80 82 79 75 62 69 74 76 76 76 76
81 81 85 88 87 87 86 84 80 77 76 83 82 78 69 68 68 70 70 70 75 70 69 75 76 76 74 70 69 67 68 78 81 76 81 84 82 67 73 72 71 72 75
78 88 91 89 87 89 89 85 78 77 74 82 84 80 72 70 71 72 73 76 78 76 76 76 76 78 75 72 68 68 70 73 77 78 81 76 79 67 65 63 62 65 66
90 90 89 89 90 90 89 85 81 77 73 81 83 79 75 71 73 74 75 76 76 77 76 76 73 74 78 74 70 70 72 76 64 79 83 81 74 67 68 64 61 61 62
90 88 87 90 91 90 88 86 83 78 77 81 85 81 77 74 73 76 76 76 76 76 75 75 74 72 77 77 73 72 77 79 55 80 87 86 76 67 70 68 63 61 62
84 90 93 91 92 93 91 89 83 83 86 86 86 85 83 82 77 75 77 76 74 74 75 75 75 73 72 77 74 73 76 76 69 79 76 92 77 66 68 70 66 63 63
82 90 96 97 93 92 91 89 86 91 91 92 90 90 91 90 86 83 84 83 78 77 76 75 74 73 71 67 67 71 68 71 67 61 72 88 75 66 67 69 68 62 63
83 83 92 95 95 91 93 86 86 90 89 90 91 90 91 95 90 88 88 87 86 81 76 73 73 72 76 77 72 68 71 68 66 60 63 68 63 65 68 70 68 62 62
80 83 87 88 90 88 74 92 90 84 96 90 89 92 91 90 89 84 91 90 88 86 82 75 73 75 76 78 80 76 72 68 57 59 67 69 59 60 68 72 70 64 63
77 74 82 77 79 87 80 90 94 87 82 84 90 89 86 81 91 97 98 97 97 94 96 89 88 86 82 76 76 75 65 53 52 53 65 70 59 57 67 74 73 68 65
77 83 74 72 79 88 81 81 88 89 86 76 72 69 68 79 84 95 98 97 97 97 96 95 94 87 82 67 57 55 52 52 54 56 66 74 66 54 64 74 76 72 68
89 85 76 76 77 84 77 88 83 85 80 79 66 70 66 74 73 77 82 89 92 94 93 93 90 82 80 71 67 64 58 58 58 58 63 80 70 67 59 68 74 77 73
82 89 88 75 79 80 78 81 72 81 75 77 68 69 69 78 77 79 75 68 69 75 72 72 72 71 74 76 71 69 66 64 64 66 66 67 79 71 68 59 66 71 74
80 83 84 76 76 75 77 79 78 66 67 72 74 66 70 76 77 75 78 75 69 65 60 68 70 77 79 76 79 75 74 74 70 69 68 68 70 81 74 63 62 65 69
82 77 75 67 74 75 68 69 77 70 66 60 68 72 69 68 70 75 76 78 76 75 70 74 77 79 83 84 84 79 77 73 65 65 73 73 69 64 75 76 74 68 67
81 78 79 77 78 76 72 78 74 71 76 65 64 71 70 68 68 74 78 77 75 81 82 80 83 86 87 84 74 70 69 70 69 66 74 75 80 72 66 79 82 80 79
79 85 79 78 76 76 81 81 80 78 76 74 70 72 71 71 69 74 78 80 78 76 72 71 73 75 74 76 73 73 76 79 79 85 82 75 80 75 75 72 85 85 88
71 82 85 88 80 79 87 89 84 89 85 80 78 69 70 70 70 75 80 79 71 67 66 68 73 75 79 81 84 93 93 89 88 88 83 86 76 71 76 78 81 83 80
68 83 89 81 89 83 87 89 88 90 88 82 79 72 69 72 72 76 82 81 78 77 74 76 82 85 84 85 85 91 94 87 78 78 86 80 71 70 69 68 69 71 80
50 82 80 82 85 86 85 90 93 92 93 92 90 85 79 77 82 82 85 88 91 93 94 94 94 93 95 94 88 92 96 96 93 77 74 76 70 71 68 69 67 68 71
40 50 80 89 86 83 90 93 95 95 96 96 96 94 76 76 64 62 71 81 93 96 96 97 97 97 98 97 97 97 95 95 96 94 86 85 80 72 76 76 72 71 80
44 47 48 70 88 88 90 92 96 97 96 94 89 79 78 66 66 68 70 73 74 79 81 87 90 92 97 98 98 95 93 95 94 96 96 94 92 92 86 83 82 81 76
53 57 60 56 63 85 94 93 96 96 88 72 69 68 71 74 76 74 73 77 80 81 85 90 91 92 94 95 95 94 94 94 96 97 97 93 92 89 84 77 81 85 82

GFSSE_sfc_rhum_072.txt.gz
RH
95 91 86 82 80 80 78 76 77 76 73 77 74 67 67 73 77 80 75 75 76 72 68 70 69 65 69 73 74 72 73 79 81 83 84 81 76 74 75 73 76 78 71
94 87 87 84 81 81 80 80 80 81 79 78 70 66 66 69 72 80 75 74 74 66 69 68 68 70 74 75 75 75 74 77 78 82 86 86 82 78 77 80 82 73 76
92 86 83 85 84 83 82 81 79 80 80 77 70 66 66 67 70 77 75 74 70 69 69 69 67 68 70 73 75 75 74 76 74 78 82 71 83 77 77 79 78 72 71
87 85 85 87 86 84 83 82 79 82 81 79 70 66 68 65 65 68 74 72 72 71 71 72 70 69 71 73 70 70 75 80 84 84 83 78 62 70 74 75 73 75 72
90 87 86 88 87 86 84 82 78 82 82 81 74 70 68 70 67 67 65 69 72 71 75 75 74 72 72 71 69 73 75 78 82 80 87 88 86 69 66 67 68 70 71
96 95 90 88 88 88 88 82 77 82 79 80 75 70 70 69 70 72 72 77 76 76 75 77 75 74 73 71 70 69 73 77 78 84 87 80 81 63 62 62 62 63 65
98 95 90 88 88 89 86 84 81 80 83 81 77 71 71 71 72 74 77 76 75 76 75 74 76 75 74 72 70 69 71 77 80 88 87 84 80 68 66 62 62 62 64
96 92 86 88 90 90 88 85 83 80 85 84 80 74 72 73 74 74 76 77 77 76 76 74 73 76 77 74 70 70 76 69 76 89 90 90 76 70 70 66 63 63 64
90 93 95 92 91 92 90 88 84 82 86 88 85 82 79 79 77 75 77 77 77 76 76 76 73 74 77 74 70 71 73 76 76 90 83 92 78 68 70 69 64 63 63
92 95 99 98 96 96 95 88 91 92 92 90 89 90 89 87 84 81 86 82 77 76 77 76 75 72 69 67 68 69 68 70 72 86 91 95 75 67 69 70 65 63 63
95 95 96 96 98 97 94 88 94 93 94 94 93 93 94 96 93 90 90 88 86 80 76 74 74 73 77 77 74 73 74 72 66 68 67 76 71 69 69 70 66 63 62
98 98 96 98 97 95 76 92 96 93 96 96 93 95 97 96 96 87 92 91 89 86 83 76 74 76 75 79 81 78 76 72 62 64 66 69 58 59 70 74 70 64 63
95 94 92 94 93 92 88 95 95 98 98 96 95 96 95 91 96 98 98 97 97 94 96 91 91 92 84 80 77 81 71 68 60 57 64 72 61 54 62 72 75 68 65
91 86 90 87 89 88 87 88 88 84 91 95 96 94 91 98 98 98 99 98 98 98 96 96 97 91 87 82 68 65 57 56 57 59 63 78 70 55 55 72 77 74 69
84 85 91 89 85 86 82 93 90 88 84 81 78 80 77 89 97 97 97 98 98 97 97 97 96 92 92 85 76 69 64 62 61 60 64 80 77 69 58 62 73 77 75
82 87 87 89 87 83 79 85 82 86 83 87 82 75 68 72 76 83 81 92 95 96 97 91 95 90 81 81 76 73 71 70 67 68 71 67 81 74 70 60 61 67 71
84 85 86 82 92 85 78 81 73 76 74 81 83 70 71 76 77 81 84 76 77 76 80 78 77 81 86 83 85 81 80 81 78 73 73 72 71 84 78 64 64 63 66
87 90 85 76 86 86 79 82 80 74 78 77 78 79 73 75 77 81 82 81 76 75 70 73 79 83 87 88 88 82 82 75 68 69 68 69 73 68 75 80 75 70 68
87 83 89 84 88 80 76 81 82 81 80 67 67 70 70 73 74 78 81 80 80 81 81 78 83 85 87 85 78 74 72 73 71 69 71 72 78 82 78 78 84 83 79
85 86 86 84 85 81 80 84 88 83 79 82 74 68 74 74 73 77 82 80 81 85 84 78 75 79 79 78 75 75 74 80 88 87 86 81 86 84 81 78 86 86 88
92 87 90 90 85 78 85 90 91 93 81 82 74 72 76 75 75 79 82 83 84 77 73 71 73 76 80 82 86 85 93 92 92 92 93 94 88 77 82 77 86 87 84
81 86 90 82 90 81 87 86 88 92 92 83 78 79 76 71 74 79 83 84 83 78 73 74 80 86 90 89 85 88 95 90 87 88 86 88 86 72 71 70 69 76 87
82 88 83 80 83 81 83 92 96 95 95 94 92 90 77 74 77 79 82 84 88 90 90 91 92 91 93 93 92 94 93 97 95 85 80 80 76 76 68 67 70 76 80
55 89 90 89 90 85 92 93 92 94 93 95 97 97 88 84 88 91 91 92 93 96 95 96 97 97 98 98 96 97 98 96 98 93 89 87 84 74 75 74 77 81 83
46 60 86 95 90 86 88 93 94 96 96 98 98 94 90 94 86 80 78 76 78 78 78 85 91 94 98 99 98 97 94 95 96 99 91 94 92 94 88 84 82 80 74
55 58 56 73 90 94 98 97 96 96 98 96 94 96 92 88 90 89 84 86 85 86 87 91 92 92 95 96 97 97 96 95 95 98 99 97 95 93 92 78 79 80 86

GFSSE_sfc_rhum_075.txt.gz
RH
95 93 85 82 81 78 75 74 74 73 77 72 69 75 79 81 80 78 75 74 72 71 68 64 69 70 70 72 74 77 79 80 82 82 82 80 74 74 78 76 81 75 64
92 88 85 83 80 78 77 78 77 78 80 73 67 70 75 80 77 74 74 71 70 69 68 68 70 72 72 75 75 77 77 78 79 82 85 87 84 78 77 78 80 71 71
93 87 82 84 84 82 80 80 77 80 79 72 67 68 73 78 79 76 75 69 70 68 67 70 73 74 76 76 76 77 76 75 78 81 82 83 85 77 76 76 75 72 69
90 87 84 85 84 82 81 79 81 79 74 70 67 67 70 74 78 75 74 71 70 70 69 71 73 75 73 72 74 78 76 78 80 81 85 84 71 72 70 70 69 72 68
92 89 86 86 85 83 81 80 82 79 76 70 69 73 71 69 74 73 74 72 73 74 73 73 74 74 73 74 78 78 78 78 81 82 91 91 86 62 62 65 67 70 68
98 96 89 88 86 86 85 82 81 78 76 71 70 71 71 66 66 67 72 74 76 77 75 74 74 73 73 76 75 76 76 79 81 92 92 81 81 63 62 62 63 64 67
99 95 90 88 86 85 84 83 84 82 78 73 71 70 70 70 71 70 73 75 77 76 76 73 72 73 73 72 69 74 77 79 86 92 90 89 83 67 65 64 63 64 65
93 95 89 89 89 87 85 84 84 85 82 76 73 71 71 71 73 72 73 74 76 75 74 74 74 74 73 71 70 72 71 77 83 91 91 91 79 71 68 66 64 64 65
97 97 95 92 92 92 89 87 85 87 86 83 79 77 77 77 76 74 73 74 75 76 75 74 75 76 74 70 69 72 75 75 92 93 84 94 79 69 71 68 66 64 64
96 97 99 98 97 97 96 90 88 88 89 87 85 84 87 87 83 80 85 83 78 78 78 76 73 70 71 69 68 66 73 73 85 91 94 96 75 68 70 70 66 64 64
89 95 97 96 98 97 95 92 94 93 94 93 93 92 92 95 94 93 92 87 84 80 78 76 74 73 78 76 71 72 73 75 69 80 74 76 75 67 70 71 66 64 62
93 95 91 94 97 96 80 96 98 96 98 96 95 97 98 96 96 91 95 92 89 86 84 76 75 76 78 80 83 76 77 75 67 66 68 66 60 56 68 74 71 65 63
94 96 94 95 95 93 90 98 99 99 99 99 97 97 97 95 97 98 98 98 97 94 96 92 92 94 86 84 79 85 75 73 63 61 62 70 62 54 57 70 77 70 66
92 92 96 96 92 90 88 92 98 99 98 99 98 96 98 99 98 99 99 98 98 98 96 96 97 93 90 85 85 71 68 61 62 61 63 73 71 57 55 63 74 76 71
77 75 85 91 95 90 86 87 84 88 93 94 97 96 95 97 98 98 98 98 98 98 98 96 96 94 94 92 86 76 71 66 66 64 66 74 80 71 60 58 72 76 76
73 73 80 86 90 91 90 87 82 80 78 83 87 91 88 91 98 98 98 97 97 97 97 96 96 96 94 87 83 80 78 75 75 71 72 72 76 79 72 60 61 67 71
81 80 85 84 87 92 91 90 80 81 80 83 83 77 74 77 84 86 86 87 94 94 94 96 86 86 88 87 90 86 85 85 84 80 76 77 76 84 82 66 64 63 64
83 85 85 80 85 91 88 90 85 84 85 79 83 81 72 70 75 84 88 84 78 79 80 82 81 86 89 89 90 85 84 84 81 75 71 70 70 67 73 79 77 73 70
90 88 87 85 85 87 86 86 90 87 85 83 77 80 77 72 75 82 86 86 83 84 80 76 82 85 88 87 82 83 76 74 72 74 77 79 77 77 77 80 85 82 80
92 90 89 86 84 90 89 91 97 92 85 85 79 76 72 68 77 81 84 83 84 88 88 86 82 87 84 80 76 76 80 87 87 92 90 87 91 90 90 89 86 92 86
96 95 91 92 90 86 95 97 98 93 90 89 89 78 76 74 76 81 85 86 87 87 85 84 78 77 82 84 87 83 90 91 92 91 95 96 94 91 91 88 89 82 84
94 96 96 94 93 88 85 77 82 92 96 84 80 73 72 76 78 77 84 88 89 91 83 76 80 87 87 88 89 94 95 89 89 88 90 89 90 84 85 84 84 77 80
88 94 92 88 85 84 92 95 97 97 97 93 88 82 79 76 81 80 81 86 89 89 88 86 89 89 91 95 93 88 92 96 96 87 83 84 82 82 80 77 77 81 85
51 91 93 92 91 92 95 94 91 87 91 96 96 96 96 92 89 83 87 91 92 95 95 95 96 96 97 98 97 97 98 98 98 96 91 92 90 78 78 79 79 79 80
47 71 93 94 95 93 96 95 96 96 96 98 99 98 97 98 95 96 95 96 95 96 96 95 96 97 98 98 98 97 96 97 98 100 96 94 93 95 93 87 89 83 75
57 62 75 90 95 96 96 96 96 95 97 98 99 98 98 97 98 96 93 91 90 90 92 93 93 93 94 96 97 98 97 95 94 98 100 98 97 96 96 90 90 88 88

GFSSE_sfc_rhum_078.txt.gz
RH
96 92 83 81 80 75 72 73 73 74 75 75 77 79 80 80 79 77 75 72 71 66 67 67 67 69 73 72 74 76 77 79 79 81 83 80 78 77 78 76 75 72 65
93 88 84 82 78 75 72 76 77 80 77 72 76 80 80 79 78 75 74 70 68 66 67 67 70 70 69 74 76 76 77 77 78 84 88 89 84 76 76 76 74 71 71
93 87 82 84 82 81 79 78 78 80 76 73 74 80 80 77 76 74 72 68 68 67 67 70 74 71 75 76 77 76 76 78 79 80 80 84 83 71 68 68 67 67 68
92 88 86 84 84 82 80 76 82 76 71 70 72 76 81 79 77 71 70 70 68 69 72 72 75 74 73 74 77 76 78 78 80 83 89 86 70 66 67 69 68 70 62
95 91 86 86 85 81 78 79 81 75 70 70 74 77 80 79 75 74 71 72 71 73 75 77 75 75 78 80 79 79 77 77 82 85 92 87 81 62 62 65 67 69 67
98 96 89 87 85 85 82 82 79 75 70 70 75 75 76 76 77 75 74 76 76 75 76 76 74 75 78 82 76 76 77 79 85 93 92 83 82 64 63 64 65 66 68
99 97 91 87 85 84 84 84 82 76 71 70 73 69 68 70 71 71 76 78 78 75 76 75 73 74 73 76 76 76 75 80 90 93 93 92 84 66 65 64 64 64 65
97 96 89 88 88 88 85 86 84 80 74 71 71 71 68 68 70 72 75 77 76 75 74 72 72 72 72 70 72 74 78 80 84 92 92 92 80 71 68 66 65 65 66
96 96 97 96 93 90 89 88 87 85 81 76 77 76 77 77 73 73 75 76 76 75 75 76 75 74 72 70 71 73 74 83 92 94 86 95 79 70 71 68 66 65 66
97 98 98 99 98 97 96 90 89 89 86 82 82 83 85 84 81 77 81 81 78 78 78 76 74 74 72 70 68 72 76 78 90 91 94 96 78 68 71 69 67 65 66
95 98 98 98 98 97 96 93 90 93 92 90 90 91 93 95 92 91 92 87 85 81 78 76 73 73 74 73 72 74 72 76 75 89 82 73 78 65 69 71 66 65 63
87 97 98 97 97 96 84 96 97 96 94 94 97 95 97 96 97 93 95 90 88 86 84 75 73 76 77 83 85 76 78 77 71 67 71 64 64 56 61 73 72 66 64
83 95 96 95 97 94 88 99 100 100 99 95 97 98 97 96 98 98 99 98 97 94 96 92 93 94 86 86 81 85 81 75 69 64 60 66 64 56 54 60 76 72 67
91 93 95 95 97 94 94 99 99 100 100 98 94 98 99 99 98 98 99 98 98 98 96 95 97 92 89 87 87 78 73 66 65 62 63 69 70 60 55 56 68 78 73
89 90 90 89 98 95 94 96 99 99 99 99 97 97 98 98 98 98 98 99 98 98 98 96 96 94 93 92 91 85 79 77 70 68 68 76 71 71 61 57 65 75 77
81 87 85 82 89 93 94 91 91 97 97 98 98 97 97 97 98 98 99 98 98 98 97 96 96 96 96 93 86 86 82 80 77 76 73 74 77 76 72 61 59 63 70
64 76 79 74 84 94 91 96 94 79 82 91 93 96 95 91 95 96 98 98 97 97 95 97 94 93 95 88 91 90 88 88 87 84 84 81 80 82 79 67 62 63 65
71 73 75 68 84 91 94 95 95 96 92 78 81 80 83 82 84 92 92 88 85 93 94 95 95 87 91 94 92 87 87 87 84 85 78 78 81 76 76 79 76 69 69
75 81 88 81 84 90 92 90 92 91 94 92 85 81 72 72 76 81 84 86 81 83 81 80 83 86 89 90 89 87 87 82 80 79 86 86 88 87 83 81 85 86 82
83 80 80 86 87 88 93 96 98 97 93 97 95 87 84 74 74 76 84 88 88 87 87 86 82 90 91 86 80 80 82 89 93 93 93 90 93 92 93 93 94 88 88
96 97 86 83 87 89 97 94 98 97 94 93 93 85 80 79 73 74 82 88 89 90 86 87 89 83 84 85 89 85 89 87 90 92 95 95 94 94 93 94 95 94 89
96 97 97 85 83 93 94 87 81 84 93 94 96 91 87 83 78 80 78 83 89 90 89 89 85 87 86 89 88 94 95 86 91 88 90 89 90 89 90 89 90 90 92
92 98 96 94 84 82 81 88 99 98 99 99 97 95 92 83 82 81 85 94 96 94 92 92 88 89 90 94 93 91 94 95 97 92 87 91 88 88 86 82 77 86 93
56 92 95 95 95 95 96 96 97 94 92 98 96 98 99 98 98 97 96 96 96 95 96 97 97 96 96 94 97 97 97 97 99 98 91 93 93 83 86 84 86 84 87
52 66 94 94 95 95 97 94 94 95 97 98 99 98 98 99 98 98 99 99 99 99 98 97 97 98 98 97 98 98 97 98 99 99 98 95 93 96 96 93 94 89 89
57 62 89 94 94 95 97 98 97 96 97 98 99 98 98 98 99 98 99 99 99 97 95 92 93 93 95 96 97 98 97 94 94 98 98 97 97 95 96 92 88 93 96

GFSSE_sfc_rhum_081.txt.gz
RH
78 70 84 80 79 76 76 73 73 77 77 73 77 78 79 80 79 78 75 72 74 68 66 66 69 74 74 73 74 76 77 78 82 83 83 82 78 74 71 72 71 54 70
75 69 84 82 78 76 75 75 79 81 81 79 76 77 79 80 77 74 72 69 68 67 66 65 73 76 78 74 73 75 75 81 81 82 86 85 82 73 68 71 75 64 73
76 69 71 83 80 75 77 76 81 74 77 80 79 79 78 78 76 73 69 69 67 66 67 69 67 71 74 76 76 76 76 78 79 80 81 59 60 70 68 72 74 67 65
74 70 68 83 82 82 79 78 81 74 71 78 80 79 79 77 76 71 70 69 67 70 68 68 70 74 75 77 76 76 75 78 81 80 55 51 46 64 66 67 67 64 62
75 73 72 84 84 82 77 81 78 73 70 76 80 84 80 78 74 71 70 70 76 76 76 74 75 78 80 80 77 75 74 78 83 65 56 57 53 58 64 66 67 66 66
78 75 80 86 85 84 82 83 77 72 69 71 78 82 83 79 75 70 72 78 80 79 76 76 77 82 84 82 76 76 74 81 76 61 62 63 56 64 64 65 66 66 67
82 77 73 86 85 85 86 84 79 72 70 70 73 78 79 78 76 75 76 77 78 78 77 74 75 76 80 80 76 73 74 80 61 65 66 65 61 66 65 65 65 65 66
81 79 72 87 87 87 87 84 82 76 71 73 74 74 76 75 74 74 77 77 76 78 76 74 73 73 73 76 76 74 78 78 62 63 68 66 75 70 69 67 66 66 67
82 78 76 73 81 91 90 87 84 80 77 76 73 74 76 78 75 75 77 76 76 76 75 75 74 72 71 70 70 71 80 81 54 59 61 63 79 69 69 68 66 66 67
89 86 83 79 76 76 75 91 89 86 82 81 80 80 84 74 81 80 83 82 78 77 78 78 77 74 72 70 68 72 79 81 56 61 59 59 79 68 70 68 67 65 66
81 93 92 88 82 79 77 81 90 92 89 88 84 89 85 74 66 69 86 86 86 83 79 76 74 72 75 76 75 74 72 46 45 53 50 66 74 64 69 71 66 64 63
74 73 92 92 86 81 76 78 81 84 78 76 75 75 72 74 73 73 84 90 88 86 84 76 75 75 69 51 52 63 46 46 42 44 45 62 61 57 57 72 72 66 64
82 82 83 92 92 84 76 83 84 90 90 80 77 78 77 80 78 76 78 76 76 84 69 71 70 59 56 53 53 48 50 46 41 40 47 62 63 58 54 59 77 74 68
82 82 92 90 95 82 76 80 83 84 92 90 77 77 80 84 85 82 81 81 78 76 72 68 63 61 59 56 54 50 47 44 40 42 46 67 64 63 58 56 64 76 75
82 90 87 89 94 92 84 83 84 80 82 84 80 80 79 82 82 79 76 78 78 76 71 66 63 60 60 60 59 58 54 51 49 47 47 75 71 68 64 59 58 70 77
60 85 90 80 82 91 90 87 85 84 80 84 78 82 78 75 76 77 79 79 79 76 72 67 60 65 64 64 60 60 58 56 53 54 53 55 77 76 73 65 60 61 65
74 72 80 65 78 87 90 90 88 83 85 85 87 80 77 74 74 75 76 78 75 72 70 71 68 70 68 68 62 59 62 58 61 60 58 61 64 85 80 73 66 63 64
64 70 64 56 76 80 86 88 89 88 88 82 81 81 79 76 75 74 73 76 73 71 70 71 70 69 64 63 61 60 60 61 58 58 59 59 62 60 72 79 78 72 69
70 69 72 70 72 86 85 90 86 84 85 82 79 76 77 76 74 70 69 70 67 67 70 68 69 65 62 64 64 61 62 63 60 57 57 60 61 64 61 78 86 85 83
74 73 71 70 74 91 90 92 92 89 85 91 90 85 74 64 65 67 66 66 65 66 64 65 62 64 63 64 66 64 64 64 62 59 57 62 62 66 65 68 68 68 88
80 82 79 81 80 82 89 96 92 92 94 92 90 84 80 72 64 65 64 69 73 71 64 63 66 67 69 76 84 65 63 60 59 60 61 60 61 63 68 68 65 64 63
86 85 78 81 72 80 90 96 96 91 91 85 91 90 88 82 84 79 78 78 78 73 72 72 73 77 82 84 77 85 70 58 58 59 59 60 60 61 63 65 65 65 68
95 94 79 74 77 78 81 91 95 94 96 97 96 91 94 95 96 92 90 87 90 90 88 81 82 85 89 91 85 81 78 72 74 62 65 63 62 59 58 61 63 68 71
86 91 91 87 86 87 92 89 92 92 94 95 97 98 94 93 98 98 94 91 91 97 98 96 92 89 88 80 86 84 81 82 76 75 66 67 66 63 61 60 62 67 72
59 68 85 94 96 94 88 87 92 93 90 95 98 98 98 99 98 98 97 98 97 99 99 98 89 94 93 91 87 87 85 85 87 89 73 70 67 68 70 67 62 64 70
62 64 77 87 91 95 98 97 96 91 91 96 97 98 98 98 98 96 97 95 96 98 98 98 94 95 94 92 90 91 84 74 75 85 88 78 82 72 71 68 68 65 74

GFSSE_sfc_rhum_084.txt.gz
RH
50 52 84 81 78 77 75 72 72 75 76 78 77 77 78 79 79 79 76 73 75 69 66 69 72 74 75 75 74 76 77 77 82 84 84 81 74 68 68 68 68 54 75
45 50 85 82 78 77 75 74 81 80 78 81 78 77 78 79 78 75 73 70 69 66 67 68 72 72 68 74 75 77 80 81 82 81 84 83 80 72 72 73 76 66 71
48 51 63 83 81 80 78 76 80 79 79 81 79 78 79 79 76 73 71 70 70 67 67 70 75 77 70 73 75 77 78 78 80 78 74 40 53 69 68 72 71 66 66
49 50 53 83 80 81 79 78 77 76 80 81 80 80 80 79 76 71 70 69 73 71 72 68 72 74 76 76 75 75 76 78 76 74 34 33 36 65 67 66 65 64 64
50 48 54 82 81 82 79 82 75 73 78 81 81 82 81 79 72 71 70 74 75 78 74 74 76 77 78 77 75 72 73 78 73 50 42 43 43 58 65 62 62 66 67
50 48 75 84 84 84 82 83 76 71 74 79 82 84 81 79 72 70 76 79 83 82 72 78 80 82 84 78 75 70 75 72 70 43 46 52 50 64 65 65 65 65 66
50 50 59 86 85 84 86 83 78 73 71 76 80 82 79 76 71 72 77 80 80 78 77 78 81 80 79 77 72 70 75 73 42 46 48 50 57 66 65 66 66 66 66
48 53 54 81 87 86 88 84 80 77 73 76 78 82 80 78 75 71 74 79 77 75 75 75 75 79 79 77 73 72 75 74 46 46 50 50 71 68 67 66 66 67 66
59 57 57 60 69 91 88 85 81 78 78 78 79 82 84 82 79 71 74 77 79 74 75 75 74 73 73 75 73 75 80 74 36 40 41 44 79 68 67 67 66 66 67
82 67 60 62 57 55 68 89 85 82 83 82 81 82 87 85 82 79 74 75 80 79 78 77 74 73 72 70 68 73 81 78 36 41 39 45 78 67 68 67 66 65 66
95 89 75 66 55 48 59 73 87 88 87 85 79 89 78 57 58 64 77 80 85 82 79 78 76 75 76 76 73 71 73 32 33 34 33 66 71 65 70 69 66 64 64
92 90 92 78 66 52 51 68 64 61 55 49 51 56 59 51 48 49 74 90 88 86 84 76 74 74 71 37 43 66 33 33 30 32 31 57 59 60 58 72 72 67 64
88 94 91 82 74 58 50 64 76 64 57 51 48 50 50 53 61 57 59 63 59 79 51 60 58 41 37 34 36 32 34 33 29 30 38 59 62 59 56 61 74 75 69
83 91 90 89 86 71 49 51 66 69 64 60 53 48 51 53 56 51 50 50 50 47 45 43 38 38 38 38 35 33 33 34 32 33 40 65 64 62 60 58 62 76 78
81 82 91 93 93 84 64 49 53 69 66 58 56 50 46 50 57 51 50 50 47 46 44 43 40 36 36 38 41 40 40 39 38 39 40 71 69 68 66 62 60 64 76
74 77 83 90 91 86 87 62 50 54 66 62 58 55 52 49 51 53 51 51 47 46 42 39 38 40 40 43 43 43 44 45 43 44 42 45 76 75 74 71 65 62 64
56 60 71 84 89 77 73 72 52 53 55 67 62 60 57 57 54 54 49 52 52 51 45 45 40 46 50 48 45 43 45 44 44 44 44 44 48 86 82 75 73 68 65
51 56 68 69 77 65 78 74 63 62 58 56 62 62 66 61 62 57 53 53 51 50 50 50 49 52 49 46 43 45 46 46 45 43 42 42 43 44 69 82 79 75 71
53 57 62 64 67 76 72 71 70 68 72 73 65 61 68 68 65 57 52 51 52 51 52 51 52 49 48 46 47 46 47 47 45 42 40 42 45 49 46 68 85 85 83
64 58 56 62 72 75 79 74 76 69 66 69 75 70 68 67 65 62 53 50 53 54 52 52 50 48 46 45 49 49 47 45 44 43 41 41 43 48 46 50 52 56 88
73 59 54 58 75 87 88 87 82 82 75 76 77 70 64 62 58 58 52 51 54 54 53 50 49 51 52 53 62 66 47 45 44 42 42 41 43 44 49 51 53 51 52
84 78 64 77 84 77 90 86 86 85 81 78 77 76 70 70 64 66 63 58 56 61 57 55 55 57 55 59 65 62 55 47 43 43 42 44 45 45 48 50 52 53 56
96 95 93 82 91 91 91 89 89 93 85 78 75 80 79 77 88 80 78 86 86 85 78 69 62 62 74 77 77 59 59 54 50 42 49 47 46 46 47 50 51 55 57
95 93 93 94 94 90 91 91 86 92 94 90 86 84 84 82 85 95 95 96 98 97 96 97 96 94 82 75 82 69 59 55 58 52 48 49 48 43 47 47 49 53 56
90 91 88 90 85 85 86 90 94 90 94 94 94 96 87 94 92 98 98 99 99 98 99 99 97 99 99 97 88 88 69 70 74 75 50 47 49 46 48 49 50 50 55
66 66 67 78 80 85 88 86 94 95 96 98 97 97 97 97 98 99 99 98 97 97 96 96 97 99 97 97 96 96 88 70 61 71 66 50 53 50 53 53 53 54 56

GFSSE_sfc_rhum_087.txt.gz
RH
47 61 84 80 77 77 75 74 72 74 81 79 76 76 76 78 79 79 75 73 74 69 68 72 75 75 73 76 75 76 80 81 81 82 83 79 72 70 70 74 71 61 75
41 60 85 82 75 76 75 73 77 79 83 82 78 77 77 79 80 78 74 71 68 67 70 75 73 76 76 71 77 74 80 79 78 82 81 80 80 74 70 74 76 66 75
40 54 65 83 80 79 77 76 80 79 80 83 80 78 78 79 79 75 72 70 68 70 73 71 71 71 70 73 77 78 79 78 73 72 72 45 58 70 69 70 72 72 71
46 59 57 84 83 81 79 79 80 77 78 82 81 81 81 79 76 74 71 69 72 72 75 76 73 70 75 76 77 76 76 72 67 69 36 34 40 67 67 67 67 67 70
54 58 61 84 84 82 79 79 78 79 79 81 81 82 82 80 74 71 72 75 75 77 76 77 76 77 77 74 72 72 74 64 67 51 43 46 50 60 64 63 62 67 70
53 51 82 84 84 84 84 80 75 76 81 80 82 82 82 79 74 72 76 78 78 73 76 76 78 79 80 76 69 71 68 65 73 44 47 55 57 65 65 66 66 67 66
53 55 62 84 84 85 85 83 78 74 80 79 81 81 79 78 72 73 79 80 78 78 78 80 82 81 78 73 68 70 69 69 42 46 48 55 63 66 66 67 67 66 67
56 59 60 80 87 85 87 84 80 77 77 79 81 82 81 77 72 76 78 80 79 78 78 81 79 79 78 73 70 70 70 72 44 46 49 57 72 68 67 67 67 67 67
92 71 73 59 71 89 89 85 82 79 79 81 83 84 83 80 78 70 79 81 78 74 77 77 79 80 78 72 72 73 72 73 41 41 41 54 76 67 68 67 67 67 67
93 91 94 73 60 50 70 88 85 83 84 83 87 95 90 86 80 82 80 86 81 78 79 78 74 73 73 71 70 76 79 76 36 41 40 60 72 66 67 67 66 66 67
94 93 91 94 71 46 59 75 84 87 86 85 88 92 85 70 66 66 74 87 85 84 80 77 75 75 79 77 74 75 79 38 34 34 37 75 75 66 69 68 66 64 65
81 87 94 94 90 69 55 70 60 55 56 51 57 67 61 58 52 49 74 88 87 86 84 79 77 76 74 43 51 67 42 32 31 35 38 65 58 64 61 73 71 67 64
72 92 87 87 87 94 66 82 80 53 46 45 43 52 54 47 52 56 65 69 72 86 64 68 67 49 40 34 35 32 32 32 30 33 49 65 59 58 58 62 71 74 70
76 81 86 88 93 96 55 82 79 77 45 44 44 44 50 50 58 53 56 59 54 54 46 48 44 38 36 34 32 32 31 32 32 34 47 66 63 60 60 60 62 74 77
63 72 75 89 96 97 78 54 84 79 58 48 48 47 47 52 59 51 47 46 46 43 41 43 39 36 35 34 34 34 33 34 35 38 41 74 71 67 64 63 62 62 70
56 66 73 84 87 95 96 60 57 82 74 56 51 48 44 49 54 53 47 49 45 42 41 41 38 36 34 34 38 39 39 41 40 41 45 55 77 76 73 70 69 66 64
59 58 70 75 85 92 96 84 54 59 78 76 53 48 44 43 45 45 45 47 47 45 41 39 35 35 39 38 42 40 40 40 43 43 44 46 61 85 81 76 74 72 69
79 60 63 66 82 88 90 74 69 54 61 81 76 57 49 50 49 50 49 51 49 49 49 44 43 43 47 47 44 41 43 44 42 41 42 43 46 43 77 83 79 75 74
84 56 62 68 77 81 78 72 69 55 55 56 69 70 66 55 56 56 57 56 50 58 48 48 48 46 49 48 46 42 45 46 44 41 40 41 42 48 50 77 86 84 83
75 65 56 60 74 76 78 83 83 66 56 61 59 56 60 66 65 65 57 52 51 61 50 50 49 49 48 46 41 45 50 50 47 44 40 38 42 46 47 51 58 61 87
78 78 68 65 75 85 86 93 87 79 67 66 66 70 72 70 67 65 62 52 56 61 55 52 50 52 53 49 55 56 54 47 44 43 41 43 42 44 46 52 56 57 68
90 92 80 74 81 86 85 85 86 80 84 82 81 74 69 66 64 67 67 59 62 64 60 61 57 57 56 56 68 63 70 61 47 45 44 44 43 45 48 50 51 54 61
93 95 88 81 83 86 92 92 95 85 84 88 81 82 77 72 78 76 75 80 84 85 83 82 81 62 71 72 70 70 66 63 53 48 49 48 46 46 47 52 51 55 59
94 96 97 87 95 93 94 94 95 95 93 87 85 84 86 78 80 87 92 85 89 91 95 95 95 94 84 84 84 78 70 68 62 58 56 51 50 43 45 51 53 55 58
96 98 97 94 96 97 95 96 96 95 94 94 96 88 86 92 91 92 94 96 96 97 98 98 99 99 100 99 98 97 93 92 85 78 63 55 56 50 52 52 51 54 58
94 92 96 96 94 95 96 96 96 96 98 98 97 96 96 97 97 98 99 98 96 97 99 98 98 99 99 99 99 98 95 95 96 94 83 61 57 54 55 56 58 61 62

GFSSE_sfc_rhum_090.txt.gz
RH
72 82 84 79 78 76 75 73 74 82 84 81 77 77 80 81 80 79 75 72 74 71 70 73 76 77 76 75 74 79 79 79 78 79 82 79 75 74 75 74 78 73 74
68 77 84 81 77 76 75 75 79 82 85 82 79 76 78 79 79 78 74 71 70 71 76 76 75 75 73 71 75 79 77 77 78 82 81 82 81 73 71 76 79 74 74
66 71 78 83 81 80 80 78 81 82 86 83 80 78 78 79 80 76 72 71 73 75 74 71 70 66 76 75 78 77 76 74 76 82 76 76 77 72 70 71 74 73 71
62 71 72 83 82 81 80 79 81 78 81 84 82 82 82 80 79 75 71 71 76 77 76 72 69 71 76 77 78 77 71 64 68 68 53 53 59 66 65 67 71 71 71
62 64 72 84 84 82 80 81 81 78 79 83 82 82 82 80 78 73 73 76 78 81 78 74 71 73 76 75 74 71 62 63 69 60 65 70 75 65 68 66 67 68 68
66 69 86 86 86 84 84 82 80 80 77 82 82 82 83 81 77 75 77 76 76 76 79 78 79 80 76 72 69 67 63 68 74 61 70 73 75 66 67 68 67 67 66
68 80 80 85 85 86 86 83 81 79 81 81 82 81 83 80 77 77 77 68 66 77 77 77 79 80 75 69 67 65 66 73 68 67 74 79 76 66 67 67 67 67 68
72 74 74 85 88 86 88 84 81 80 82 83 83 82 82 80 76 76 73 63 66 76 80 81 81 79 74 69 67 66 71 73 57 66 76 85 77 68 67 68 68 68 68
90 90 92 79 83 87 90 87 83 81 83 84 83 82 83 80 80 68 66 74 79 80 83 83 80 79 74 71 70 70 72 73 75 61 67 84 77 68 68 68 68 68 68
94 93 94 92 84 77 94 88 86 84 86 84 84 86 88 82 75 67 79 77 76 82 83 84 82 81 78 75 76 78 76 76 66 54 78 88 72 67 67 68 67 67 68
95 93 93 96 92 88 84 88 87 88 88 93 96 96 87 73 65 65 80 83 83 85 84 80 77 79 80 78 76 78 79 71 59 56 75 84 75 68 68 67 66 65 66
96 94 90 94 97 91 79 93 82 83 90 86 89 94 84 68 69 68 86 90 86 87 86 81 80 82 78 74 78 76 72 63 49 54 69 75 69 65 67 73 70 67 64
88 90 92 91 88 93 92 93 95 71 77 73 83 84 85 65 70 82 93 86 91 93 93 89 88 82 73 66 67 65 61 52 52 51 65 69 60 61 59 64 73 76 71
83 87 90 87 90 85 94 93 87 77 63 66 69 69 78 66 70 80 82 90 92 92 87 87 85 72 63 54 52 50 48 48 48 54 69 72 68 59 60 61 62 72 78
77 84 88 92 93 94 96 97 91 88 56 59 63 61 65 76 78 74 75 78 75 72 70 69 66 58 54 50 45 47 46 46 49 57 60 78 72 70 63 62 63 63 65
79 75 80 91 91 93 96 94 97 91 82 62 63 65 60 72 71 74 66 65 68 62 63 60 56 57 52 50 47 51 53 55 59 59 66 72 80 76 74 68 67 67 66
74 66 76 91 86 89 91 91 90 91 81 82 57 59 60 66 70 69 66 67 64 62 56 56 54 51 52 50 54 56 56 57 59 57 60 70 76 85 82 74 73 72 71
81 73 74 76 88 88 90 92 84 80 88 82 79 54 58 59 60 63 66 66 64 65 66 64 60 58 64 64 67 62 60 61 60 59 54 62 70 62 85 83 81 76 73
81 83 85 79 88 90 93 89 88 82 74 88 82 83 60 63 61 65 69 71 69 73 69 64 63 61 66 68 67 62 64 64 61 53 57 55 56 63 69 85 88 85 83
88 86 83 78 87 83 90 84 89 93 73 72 84 88 78 66 68 73 75 73 71 75 69 67 66 68 66 69 53 52 65 68 65 66 58 49 53 58 61 65 83 83 88
92 94 90 87 78 91 90 90 90 87 90 82 83 78 79 83 76 81 77 70 69 74 70 64 65 66 70 69 72 71 72 63 61 63 62 60 56 58 60 69 75 77 88
93 95 94 90 87 92 87 86 88 88 87 92 92 84 83 85 81 84 84 77 69 77 76 69 70 74 71 69 79 83 88 80 71 60 60 58 60 60 62 64 66 72 84
91 90 94 94 91 88 88 93 95 97 97 92 90 94 91 82 84 81 82 86 87 92 90 90 92 93 84 84 82 88 91 87 80 63 68 64 62 63 66 66 67 69 75
96 94 96 97 97 93 95 96 93 90 97 96 98 96 93 87 88 88 88 90 93 97 97 97 98 98 98 98 96 93 94 92 77 80 76 67 65 58 63 69 68 71 73
96 95 97 97 97 99 98 98 98 98 99 99 99 97 95 95 94 92 94 95 97 98 98 98 99 99 99 99 99 100 98 96 94 87 81 72 70 65 63 66 70 75 73
94 96 97 96 97 98 98 99 99 99 99 100 99 100 99 98 98 96 96 98 98 98 99 98 98 98 99 99 99 99 99 98 98 97 98 96 82 66 72 71 74 79 83

GFSSE_sfc_rhum_093.txt.gz
RH
89 85 85 78 77 76 75 78 84 85 85 82 79 80 81 81 82 78 73 72 75 74 75 73 76 76 74 77 78 76 73 76 78 80 82 80 77 74 76 79 80 75 74
84 82 85 81 76 76 76 78 84 87 86 84 80 79 78 80 81 77 73 71 73 73 76 77 77 77 78 75 77 77 75 76 78 82 83 85 82 75 76 78 80 74 76
81 80 80 84 82 81 80 79 83 87 85 83 82 79 80 80 79 76 73 73 76 78 78 74 76 71 71 71 78 75 75 76 78 81 82 82 80 73 71 74 76 72 75
79 80 81 85 84 82 81 78 80 82 85 84 82 83 83 80 79 76 72 74 79 78 75 74 75 72 72 74 78 74 68 64 71 67 65 68 64 66 67 72 73 72 74
81 79 81 86 85 83 80 80 78 77 83 86 84 83 84 81 79 74 75 80 81 80 78 76 74 75 76 78 76 66 62 70 76 70 76 81 81 68 67 68 68 67 68
79 79 86 87 86 85 85 83 81 77 78 84 84 83 84 82 79 77 78 83 82 79 76 74 75 77 75 74 69 64 65 71 74 79 84 78 79 68 68 68 68 67 67
83 87 85 87 87 87 86 85 84 81 80 82 83 81 82 80 80 79 80 81 78 79 79 77 79 77 72 70 66 66 68 75 72 85 86 85 77 67 67 68 69 68 67
90 86 83 87 88 88 87 86 85 83 85 84 85 83 82 80 80 78 78 71 64 68 77 78 80 75 70 68 66 67 70 75 72 84 88 90 77 67 68 68 69 69 68
92 90 90 87 88 91 90 87 84 84 87 87 83 82 82 84 79 74 71 63 73 80 84 85 80 76 71 68 67 69 70 73 74 84 77 90 77 68 68 68 69 69 70
96 96 96 95 90 92 96 89 86 84 88 86 85 84 89 88 81 64 76 73 67 87 88 87 83 78 75 74 74 75 76 75 69 81 86 90 72 67 68 68 68 68 69
98 98 96 95 88 84 90 92 89 86 90 92 92 94 91 76 66 67 79 80 83 87 87 86 85 86 84 80 77 76 80 72 73 82 92 83 72 67 68 68 67 66 67
98 98 98 97 94 90 80 88 92 94 97 98 97 90 84 70 66 61 82 83 85 88 87 82 82 84 81 82 79 75 72 68 65 74 86 84 74 69 72 71 69 67 66
94 96 95 97 97 96 93 95 97 93 98 98 97 95 90 77 73 78 89 79 80 94 97 93 94 92 87 79 74 74 66 65 61 65 72 77 69 66 63 71 76 74 70
90 91 95 93 95 94 97 96 97 95 84 96 95 87 97 81 76 86 89 89 82 98 97 97 98 89 80 71 70 69 63 60 56 61 73 75 71 61 63 63 66 72 77
90 89 95 95 93 96 95 97 95 96 90 75 89 84 91 92 83 81 84 91 96 97 94 97 92 81 74 66 56 58 54 53 50 60 67 82 74 72 64 64 64 65 68
82 94 97 96 96 95 95 94 95 97 97 66 73 77 73 73 77 79 80 86 89 84 84 80 79 74 67 57 53 52 54 53 52 64 60 72 81 76 75 67 66 67 67
82 83 92 97 95 95 94 93 95 94 97 95 70 66 73 70 73 76 79 82 79 72 71 70 66 62 61 56 57 55 58 59 64 65 68 67 77 86 82 73 72 71 71
84 81 89 83 92 91 93 95 86 92 96 96 93 79 66 67 69 76 74 72 69 67 66 66 65 63 65 65 66 64 64 63 65 65 64 67 70 64 85 84 82 78 75
86 86 92 93 94 92 92 90 93 84 93 94 92 86 67 67 66 69 71 71 66 70 71 69 70 64 66 72 70 66 67 66 68 60 66 63 72 74 79 84 90 86 83
91 92 92 95 94 92 93 95 95 88 90 90 92 90 72 63 63 65 72 69 72 79 77 74 66 71 67 68 60 59 66 69 73 69 66 58 59 63 72 78 88 87 89
97 96 93 94 95 95 95 96 97 93 88 89 88 84 78 74 68 74 79 75 77 74 69 68 71 72 78 72 73 72 72 70 73 66 69 63 58 61 70 77 81 87 91
96 95 95 94 92 94 93 93 90 89 88 82 81 78 80 70 77 80 82 78 74 81 73 70 73 77 75 76 77 85 87 79 75 70 64 57 65 65 71 70 75 85 95
97 98 97 94 95 94 94 95 96 94 87 81 80 78 81 80 77 79 90 90 89 89 90 89 88 84 85 86 82 87 94 93 84 75 67 66 66 67 76 74 76 77 89
97 96 98 97 97 95 95 96 94 94 93 94 99 97 91 74 89 93 94 94 92 94 96 96 98 98 96 97 96 96 94 94 90 85 80 75 71 63 70 76 80 78 84
97 99 97 96 97 98 97 94 95 95 95 100 100 99 97 98 93 88 88 96 97 98 96 96 99 99 99 99 98 99 99 99 98 98 87 78 68 67 74 72 77 80 84
94 95 92 92 93 96 98 98 99 99 97 96 100 100 100 99 99 96 97 96 97 98 98 98 97 98 98 98 98 98 98 98 97 98 99 95 92 86 73 74 82 88 92

GFSSE_sfc_rhum_096.txt.gz
RH
93 91 85 79 78 82 83 83 84 85 85 81 80 80 81 82 80 72 72 76 76 73 66 66 70 72 77 77 71 72 74 77 78 81 82 82 76 73 78 79 80 77 73
88 86 85 80 77 78 82 86 88 88 87 84 79 78 75 82 79 73 72 76 76 73 73 76 75 76 77 76 73 73 74 77 79 81 85 86 82 77 77 78 81 77 78
87 84 81 83 82 82 82 83 89 88 86 85 83 77 76 81 79 74 71 75 76 77 77 77 76 73 76 76 76 74 74 74 77 81 82 84 83 74 74 75 74 76 75
83 83 82 85 84 82 81 80 86 86 86 85 84 83 81 81 78 75 73 75 79 78 77 75 72 70 76 78 74 71 69 70 76 75 77 77 67 69 71 71 72 73 72
84 82 84 87 85 83 80 79 79 84 86 86 85 84 84 81 78 74 76 82 83 80 80 78 69 74 78 78 71 64 69 72 78 75 85 87 86 67 67 67 67 67 68
89 89 89 88 86 86 85 82 77 79 84 86 86 83 83 81 78 77 81 84 83 82 79 76 71 78 80 76 66 67 71 76 81 89 91 81 82 68 68 68 68 68 67
90 92 88 89 88 88 87 86 83 79 80 83 84 81 81 81 80 80 85 85 82 81 77 75 77 77 75 72 67 69 72 80 84 90 91 87 81 68 68 69 69 68 69
90 90 87 89 89 89 89 88 87 84 82 84 85 84 82 83 80 81 84 83 82 80 76 77 76 73 71 69 70 70 76 81 81 90 93 92 77 67 68 70 70 70 69
94 94 93 90 90 91 91 90 88 85 86 88 87 87 85 83 81 80 81 78 70 69 82 82 77 70 70 69 69 70 77 82 93 91 84 93 78 68 69 70 70 70 70
99 98 98 97 96 97 95 89 87 85 88 88 87 86 86 86 83 79 79 72 74 81 84 86 79 72 72 73 71 69 74 79 91 88 90 93 73 68 69 69 70 69 70
98 99 98 98 95 98 96 92 88 86 90 92 93 92 97 89 73 71 79 80 76 86 89 87 82 81 84 80 75 72 74 76 86 92 94 85 72 68 68 69 68 68 69
98 99 97 98 97 95 93 97 96 95 98 98 98 96 94 87 66 64 80 83 80 87 89 88 87 88 84 87 83 76 75 71 71 90 95 85 71 69 69 70 69 68 68
96 97 98 96 96 96 95 98 99 98 99 99 97 98 94 84 78 81 78 73 83 91 97 94 95 95 88 83 78 77 70 68 68 77 77 86 74 68 72 75 74 72 71
98 96 97 98 98 95 96 98 97 97 92 97 98 92 98 96 91 84 83 80 80 91 98 98 98 95 90 82 78 74 67 66 64 68 74 84 79 67 65 67 74 78 78
90 97 95 98 97 98 98 99 98 98 95 83 96 95 92 97 97 94 93 89 79 90 95 99 98 95 89 79 73 71 68 62 58 63 69 86 78 75 69 66 67 68 74
83 96 97 97 96 97 97 97 97 96 97 95 88 92 90 95 96 94 93 90 91 89 92 98 97 93 82 75 69 62 61 56 55 62 62 73 84 76 76 68 67 68 68
86 97 96 94 92 95 96 94 98 96 94 98 91 88 91 92 93 92 84 84 83 84 88 92 91 84 78 68 63 59 59 62 64 64 59 64 74 86 81 73 72 70 70
90 95 95 83 92 95 97 98 98 97 96 97 97 88 84 82 85 86 86 81 79 81 82 84 82 78 72 69 65 64 66 65 66 68 67 62 68 66 83 84 82 78 76
88 90 94 92 89 90 94 96 97 94 96 95 94 91 75 76 75 80 84 82 77 81 77 72 75 69 72 73 71 70 73 70 68 63 68 71 70 75 80 83 90 88 86
91 91 95 96 95 95 95 96 98 95 94 95 92 91 77 68 70 74 75 73 71 74 73 71 70 73 69 70 66 67 72 70 70 73 69 63 72 78 81 82 90 92 88
96 96 97 98 97 97 98 95 96 97 94 91 91 83 85 72 74 76 70 69 71 67 66 65 72 71 76 72 78 78 76 69 73 75 69 70 67 73 78 83 90 94 93
96 93 95 96 97 97 98 98 96 94 94 89 89 78 77 80 75 76 74 67 69 71 74 72 71 82 77 82 83 86 84 78 80 74 78 66 63 66 76 77 84 92 95
98 97 97 96 96 97 97 97 98 97 94 96 94 95 84 82 83 77 78 78 83 82 83 84 82 82 83 88 83 87 96 90 86 80 78 74 69 70 80 77 82 91 93
99 98 92 95 95 97 97 98 97 97 96 94 93 95 93 85 81 87 86 85 83 84 89 86 84 83 90 93 98 97 93 90 90 87 83 79 72 67 81 84 83 88 92
98 98 96 97 96 96 98 97 98 98 95 98 99 96 99 98 90 89 93 97 98 99 96 96 98 97 95 93 96 99 99 99 96 96 96 87 79 72 76 79 80 81 89
95 94 91 90 90 93 97 97 98 98 98 98 98 99 99 99 99 93 94 96 94 98 98 98 98 99 98 98 94 93 93 95 97 99 98 97 89 92 90 73 78 83 90

GFSSE_sfc_rhum_099.txt.gz
RH
97 95 85 81 83 83 85 82 83 84 84 81 76 78 81 80 77 72 73 72 71 68 66 68 73 73 70 71 71 70 74 76 80 83 83 81 75 72 78 80 80 79 76
91 91 86 82 81 83 86 86 88 88 87 84 78 75 76 79 74 72 76 74 70 68 66 71 74 77 73 70 72 74 76 79 80 82 87 87 84 77 75 78 82 77 78
90 87 84 83 84 86 87 89 90 90 88 86 82 76 77 80 75 72 76 75 73 73 75 75 76 78 73 73 73 74 75 78 79 80 82 88 86 75 74 73 75 70 70
88 87 85 84 84 83 86 88 89 86 86 86 84 80 80 81 77 72 75 77 79 79 79 77 77 77 76 76 75 73 71 74 76 79 85 82 72 71 71 72 72 72 70
90 88 86 86 85 83 81 87 86 86 85 86 85 84 84 81 78 72 75 81 83 83 80 78 70 78 77 74 67 66 67 70 78 81 91 90 86 68 67 67 67 68 68
95 94 91 88 87 86 85 83 85 83 83 85 87 83 83 82 78 76 83 86 85 83 79 76 77 79 80 76 70 69 70 75 81 92 93 84 85 67 68 69 69 68 69
96 95 91 89 88 87 86 84 82 84 84 84 83 80 80 82 79 80 86 86 84 83 79 74 76 81 78 75 71 72 76 82 90 93 92 91 84 68 69 68 69 69 69
96 96 92 90 89 90 88 88 85 83 83 86 87 85 82 82 81 81 84 85 83 78 76 76 79 76 74 71 72 75 81 83 84 93 92 92 78 68 69 70 70 70 69
98 97 97 95 93 92 91 91 90 88 84 88 89 88 86 86 83 81 86 84 82 79 79 78 76 72 71 72 71 76 85 88 93 96 88 95 79 69 70 70 71 71 69
98 98 98 98 97 97 97 92 91 89 89 91 90 91 90 91 86 82 87 84 82 82 85 83 76 71 73 77 74 76 83 89 93 93 94 96 74 68 69 70 70 70 70
95 98 99 99 99 98 96 94 89 89 89 90 93 92 92 95 85 84 83 85 81 80 84 84 78 79 81 78 74 77 79 86 92 95 97 86 73 68 68 69 69 69 69
95 98 99 99 98 99 97 97 96 95 97 97 96 96 97 94 81 71 79 84 82 83 91 87 83 86 86 93 87 77 79 79 90 96 97 87 72 68 68 69 69 68 69
95 95 96 98 98 99 99 99 99 99 100 99 98 98 96 95 84 75 74 73 78 93 94 94 96 97 92 87 83 82 76 74 76 86 84 88 74 69 69 71 72 71 70
95 96 95 97 99 98 97 98 98 98 99 99 98 96 95 98 93 92 79 77 80 95 95 98 99 97 92 84 81 77 74 72 74 75 83 86 85 70 70 73 76 77 75
91 97 93 97 98 98 98 98 98 98 97 96 98 96 93 95 97 96 93 92 81 94 92 98 98 97 94 89 83 80 76 71 70 67 76 84 86 82 72 67 69 73 75
77 90 98 97 97 98 97 96 96 97 97 95 96 98 94 92 92 96 98 96 90 85 94 94 95 95 96 89 80 77 73 70 65 62 68 72 85 81 79 70 69 69 70
62 87 98 98 98 96 96 97 95 95 93 97 96 96 94 94 92 93 97 99 97 92 93 94 95 91 92 83 80 72 66 65 63 60 65 65 73 86 81 73 72 70 70
68 91 96 88 96 97 96 95 96 93 95 98 98 98 95 93 90 93 93 95 96 96 90 93 95 90 91 86 79 72 65 66 66 67 67 61 65 64 81 82 80 78 75
60 90 96 96 96 97 97 96 97 96 98 97 98 98 95 92 88 85 88 86 83 91 90 86 89 86 84 81 75 71 70 73 71 65 73 70 65 69 77 83 88 87 86
66 92 95 96 96 95 97 96 99 98 99 98 97 98 94 81 84 88 77 80 84 83 85 85 82 80 78 73 63 66 78 75 75 76 71 67 75 75 79 79 88 93 93
76 94 95 97 96 98 99 96 98 98 97 98 98 92 91 87 78 83 83 84 84 82 78 77 75 75 75 72 79 80 81 75 75 75 74 75 73 76 84 83 87 92 94
90 95 96 96 97 97 98 97 96 94 93 96 93 87 86 88 82 86 86 84 84 83 75 72 74 77 70 79 78 89 86 81 79 74 79 78 76 76 81 83 89 93 96
96 98 97 96 98 98 98 99 98 98 98 99 96 93 88 87 90 89 87 87 84 82 80 80 78 72 74 88 85 87 96 90 87 83 84 85 74 77 80 81 85 94 96
98 96 93 94 96 96 97 98 98 97 96 97 94 93 91 92 93 92 89 87 86 85 84 85 85 81 84 86 96 96 93 88 89 89 87 83 76 73 82 82 88 92 93
99 98 98 97 93 96 96 98 96 95 93 97 97 96 93 95 96 96 98 96 93 92 88 92 92 88 89 91 89 99 98 98 96 94 96 94 89 83 85 83 85 87 85
96 96 94 94 98 97 98 97 98 98 97 97 95 97 97 95 95 95 96 97 99 99 98 98 98 98 94 95 95 98 96 97 98 98 98 97 92 93 88 86 81 82 86

GFSSE_sfc_rhum_102.txt.gz
RH
96 96 86 82 82 84 84 81 82 84 84 82 78 79 80 81 78 74 70 70 70 68 72 75 71 68 66 72 69 72 67 81 81 82 84 79 76 76 77 80 81 80 76
95 96 86 80 82 84 85 84 86 87 85 82 79 78 77 78 75 73 72 71 69 68 71 72 74 71 68 71 70 72 77 81 81 83 88 88 85 74 72 77 81 76 74
95 93 85 82 84 86 85 86 87 88 86 83 75 71 73 77 73 74 74 72 70 68 72 75 77 72 71 72 73 74 78 80 81 82 84 91 87 74 68 72 76 66 64
92 91 88 86 86 87 86 88 89 87 86 85 82 76 80 77 74 74 75 74 77 76 78 79 77 74 73 74 72 73 76 77 78 81 88 85 75 70 70 70 70 68 70
96 94 90 86 86 87 88 88 87 86 84 86 84 80 83 80 75 74 76 81 82 84 82 83 80 78 77 76 73 71 71 74 81 85 92 90 86 68 67 68 68 68 69
97 95 91 88 87 87 89 90 87 84 84 86 85 84 83 82 78 75 81 87 87 86 80 80 79 78 78 75 70 69 71 76 83 92 93 84 85 67 68 69 69 69 70
98 96 94 89 88 87 87 89 88 86 84 84 84 81 79 81 79 80 86 88 85 82 80 77 78 79 74 77 70 71 75 82 93 94 93 91 86 68 69 69 69 69 69
98 97 96 91 89 89 88 87 87 88 87 86 86 84 82 82 81 81 86 88 85 81 79 76 78 78 73 74 73 76 82 84 86 93 93 92 79 69 70 70 70 69 69
98 98 98 96 95 92 90 90 88 86 87 89 89 87 86 86 84 81 86 86 83 82 81 80 80 76 73 74 74 84 86 86 94 96 88 95 79 68 70 71 71 69 68
98 97 97 98 98 96 96 94 92 91 89 90 92 90 93 91 89 85 88 87 84 84 84 84 78 74 76 78 76 86 88 89 93 94 96 96 75 68 70 71 70 70 69
94 98 98 97 97 96 96 96 92 89 91 93 94 95 95 96 93 88 89 90 87 86 86 82 78 79 83 82 78 81 88 97 94 97 97 86 74 68 69 70 70 69 69
93 93 97 99 98 98 97 96 96 96 97 96 95 95 97 96 94 82 90 92 87 86 89 84 80 84 86 91 88 82 84 92 93 96 97 84 75 68 69 70 70 70 70
81 96 92 97 99 98 99 99 99 99 99 99 97 97 97 97 94 90 88 83 84 90 96 92 95 97 94 92 87 88 80 81 86 98 90 85 79 68 68 70 71 71 71
70 89 94 92 98 98 99 99 99 99 99 99 99 97 98 99 98 96 81 86 86 94 98 98 99 97 94 90 85 80 78 76 77 77 91 87 85 72 70 71 72 74 74
54 77 93 87 97 98 99 99 98 97 98 97 99 98 98 98 98 97 95 93 89 98 99 99 99 98 96 92 86 80 77 74 74 74 81 84 87 85 74 70 73 76 77
50 64 89 91 95 98 96 97 97 97 95 94 98 98 96 98 98 98 98 95 94 95 98 96 95 97 94 95 90 87 84 81 74 71 70 77 81 86 83 72 69 70 72
50 58 79 96 90 98 98 98 96 94 93 94 92 93 97 97 97 97 98 99 98 96 94 96 94 96 96 91 92 84 79 78 75 68 65 69 71 88 82 72 72 71 71
50 53 80 88 93 93 98 98 98 96 97 96 96 96 93 97 96 97 98 98 98 98 97 98 94 96 98 93 88 82 77 71 69 67 64 67 67 64 79 82 80 79 76
47 52 80 95 98 97 98 98 97 96 97 97 98 98 98 96 96 96 97 97 97 97 97 98 98 91 96 92 91 84 79 74 71 63 74 72 67 66 70 79 86 86 85
52 57 80 96 97 98 98 99 99 99 99 98 98 99 96 97 93 96 98 98 97 92 93 94 95 93 91 84 72 70 78 74 76 78 73 69 74 67 70 76 84 87 90
64 64 86 97 98 98 98 94 96 97 98 99 99 96 97 95 91 95 94 95 95 87 78 86 89 91 93 82 85 83 80 83 81 74 74 76 76 76 80 83 85 90 91
64 73 86 96 97 97 98 98 97 97 97 97 97 96 96 96 93 91 91 95 89 91 85 85 83 85 83 82 83 85 85 78 80 71 75 74 76 77 82 87 89 92 94
96 95 96 98 98 97 97 99 99 98 99 99 99 98 95 94 94 88 89 91 95 93 84 90 89 85 82 84 74 86 94 93 89 87 81 78 80 81 82 85 89 93 95
84 87 97 98 98 98 97 97 94 98 95 98 96 97 97 93 90 95 92 92 92 94 94 92 87 86 81 87 95 91 93 89 91 91 88 86 83 78 82 88 87 95 96
96 99 99 97 98 97 95 94 96 97 92 95 96 97 97 97 96 92 94 94 94 94 91 91 92 91 88 83 89 97 97 97 95 93 94 92 89 87 91 92 92 93 95
94 97 98 97 95 97 94 94 96 98 96 94 95 96 94 96 96 96 94 94 95 96 94 92 92 92 90 90 95 96 91 84 91 97 97 96 95 94 91 91 90 90 90

GFSSE_sfc_rhum_105.txt.gz
RH
77 78 87 83 81 82 82 80 83 86 84 80 78 78 79 80 77 73 71 70 70 74 74 69 67 70 76 70 71 68 78 78 81 82 84 82 76 74 76 79 77 64 74
73 77 87 84 83 85 84 85 86 87 85 81 81 82 80 77 76 71 71 70 69 73 75 71 67 67 69 73 70 76 80 81 82 85 88 85 81 75 74 77 78 67 72
76 76 70 86 87 85 85 87 87 87 86 84 82 80 80 76 75 72 71 71 70 72 73 75 71 70 72 69 73 76 78 80 82 84 84 63 63 71 68 72 72 67 65
77 75 67 85 88 86 86 86 86 86 85 82 76 74 79 75 75 74 72 71 74 76 77 78 76 74 72 73 74 76 78 78 80 82 62 59 56 70 69 68 68 69 69
80 75 72 88 88 86 87 87 87 86 85 85 82 74 82 77 75 74 75 78 79 82 84 81 80 78 76 74 73 74 74 77 83 71 64 63 58 62 67 67 66 68 68
82 74 80 88 88 90 88 89 88 85 83 85 84 82 82 79 74 77 80 83 85 86 85 80 81 80 81 79 72 71 72 79 81 63 60 63 58 65 67 68 69 69 68
85 79 74 88 87 90 90 89 88 87 86 85 84 81 79 80 80 79 83 86 86 86 84 80 78 77 75 76 71 71 74 82 62 64 63 64 62 68 68 69 69 69 68
84 80 78 86 89 89 89 90 88 86 86 86 86 84 82 81 81 80 86 88 86 83 81 79 78 75 75 74 73 75 81 82 66 64 67 65 73 68 68 69 69 69 68
90 81 80 76 78 92 90 89 88 88 86 88 88 88 86 86 86 81 85 87 85 83 82 83 79 76 75 75 80 83 85 86 58 61 64 63 79 68 69 70 69 68 68
88 93 87 85 79 78 77 91 90 89 89 90 91 92 92 91 89 85 88 87 85 85 83 85 82 78 79 79 83 88 86 88 57 65 63 61 76 68 70 71 70 69 68
66 78 90 93 84 78 79 82 92 92 92 92 92 95 92 76 73 72 78 88 86 86 86 86 83 81 84 83 84 88 90 61 58 59 61 82 77 68 70 70 70 70 69
55 64 79 90 93 84 84 85 85 83 81 80 81 81 81 80 74 70 80 92 90 90 89 86 83 83 84 61 57 80 62 63 61 61 61 84 80 69 69 71 71 70 70
47 62 66 83 90 92 88 91 93 94 90 82 79 82 82 85 81 72 70 73 69 86 83 75 77 67 75 62 59 54 55 62 60 62 68 84 81 70 68 70 71 71 71
47 52 62 83 87 91 94 95 92 97 89 90 83 79 86 89 88 84 72 74 69 72 85 72 70 70 77 61 56 54 52 52 52 55 66 88 83 75 68 69 72 73 72
39 44 49 72 87 92 93 97 97 96 94 79 84 85 84 89 90 87 88 87 78 77 74 78 80 78 65 60 56 53 51 49 47 48 49 83 87 84 76 71 72 74 75
39 42 46 54 80 92 94 92 93 98 96 95 93 89 82 86 91 87 86 89 88 93 86 86 76 76 73 63 59 54 51 49 46 46 47 50 84 85 82 79 71 71 74
37 38 38 43 64 88 92 92 90 93 96 96 94 92 86 82 83 85 89 86 82 84 91 96 85 87 75 69 66 58 55 52 54 51 48 49 52 83 86 74 74 71 71
39 34 36 36 64 81 92 92 88 95 93 94 93 86 83 81 79 82 82 83 82 82 84 87 97 94 89 74 70 67 58 55 53 51 50 49 50 47 69 83 79 77 76
38 40 42 50 64 80 87 92 90 89 88 91 89 86 76 73 75 80 83 83 82 84 84 85 93 94 96 94 79 73 62 57 51 49 49 50 50 51 50 67 85 83 84
45 49 45 49 63 85 90 95 96 93 90 90 89 86 80 74 79 82 85 85 87 89 91 90 92 98 97 94 84 73 66 60 55 54 52 48 50 54 52 56 57 64 86
56 55 53 60 67 92 97 97 94 92 90 91 89 84 80 82 79 82 89 88 91 88 83 82 87 90 96 93 93 88 82 70 62 57 54 53 53 54 56 56 58 57 64
57 58 59 60 87 92 92 90 87 88 87 85 86 83 85 82 82 83 87 90 88 88 80 74 76 76 89 93 92 90 81 61 67 62 58 59 56 56 60 63 62 63 63
68 71 67 61 80 94 91 92 93 92 91 91 92 89 86 83 86 86 81 84 86 90 86 85 82 75 74 85 85 85 90 70 63 62 60 58 57 61 65 65 71 68 69
84 85 86 84 87 92 93 92 91 93 91 89 89 89 88 84 84 87 87 84 84 88 89 91 89 89 87 86 95 88 80 84 70 65 76 77 68 63 63 68 65 73 74
91 86 88 94 94 92 94 90 94 93 90 89 88 87 86 86 85 86 88 87 88 88 88 89 96 95 91 90 88 84 86 81 82 82 76 80 78 72 70 72 82 80 79
91 92 94 91 95 93 91 92 94 94 94 93 92 92 89 89 87 87 87 89 89 90 89 90 91 92 92 92 89 86 82 81 79 83 89 83 84 77 78 72 78 85 79

GFSSE_sfc_rhum_108.txt.gz
RH
58 60 83 83 80 79 80 81 83 85 84 83 79 82 80 79 77 74 70 68 70 70 63 64 65 71 77 71 72 76 79 77 80 82 83 79 76 74 75 78 76 66 69
55 54 86 84 82 82 84 85 88 87 85 82 81 82 80 76 76 72 71 68 70 73 70 67 70 76 74 68 75 78 77 81 83 84 85 84 83 77 75 75 77 64 67
58 55 58 86 86 86 86 87 87 87 85 84 83 77 82 78 75 72 71 69 72 77 71 68 69 70 72 67 76 76 78 80 82 82 80 48 56 71 68 70 72 68 67
59 54 57 87 86 87 87 86 86 86 85 84 82 82 81 78 76 72 71 71 72 76 77 77 77 76 73 74 76 77 79 79 81 80 46 41 44 69 67 69 69 69 68
59 55 57 84 85 86 87 86 85 85 85 84 81 79 82 77 76 73 73 76 78 80 83 81 79 78 77 75 75 77 77 79 80 62 43 44 43 61 67 66 67 67 65
59 55 68 86 85 86 87 86 85 84 84 83 82 79 82 78 75 76 80 81 83 84 84 78 77 77 80 77 75 72 74 78 79 40 41 51 42 65 66 68 70 69 68
67 56 54 84 82 86 87 86 85 85 83 83 82 79 78 79 78 80 81 84 84 85 83 79 77 77 78 78 72 71 74 81 42 42 43 46 52 67 68 69 69 68 67
80 60 56 79 84 84 85 86 86 86 86 85 84 82 80 80 80 81 82 86 84 84 85 80 78 77 75 74 74 74 79 82 50 42 46 47 70 67 67 68 68 68 68
83 74 57 55 66 94 89 88 88 87 86 86 86 85 86 85 85 82 85 88 86 86 85 83 80 75 76 74 78 81 84 80 38 40 43 46 78 68 69 70 68 68 68
45 73 80 62 58 53 52 90 89 88 88 89 88 89 93 92 90 86 87 90 86 86 87 85 83 78 79 81 84 87 86 84 37 45 43 45 74 68 70 70 69 68 68
34 35 47 79 69 56 53 59 86 91 90 91 88 95 91 59 54 61 73 86 87 85 85 87 85 83 85 85 86 88 88 44 38 38 39 80 79 69 69 71 70 69 68
33 33 35 44 75 73 61 62 59 54 52 50 51 55 58 53 49 53 69 90 88 87 89 88 86 86 85 47 52 84 53 42 41 42 39 80 80 69 70 71 72 71 70
29 33 34 34 62 83 75 72 73 84 83 66 52 58 54 53 54 56 55 64 76 86 67 71 71 60 58 42 41 43 45 43 40 40 51 81 80 72 69 71 72 72 72
22 28 34 34 40 74 88 79 78 80 73 83 62 53 58 56 62 54 51 62 69 72 70 62 55 54 47 46 41 40 39 41 40 39 45 84 82 77 70 70 72 73 73
20 23 25 30 34 51 84 92 84 74 86 83 66 60 53 59 64 59 62 66 65 72 74 74 60 51 46 47 41 39 39 38 37 36 37 89 88 81 77 71 71 72 74
20 23 23 25 28 40 61 86 89 76 75 91 89 76 60 62 64 69 67 69 62 71 70 73 79 75 62 38 35 36 38 37 36 36 36 39 82 84 81 78 76 73 74
21 19 21 21 20 30 50 73 88 78 77 82 94 90 87 56 65 64 68 64 66 67 85 86 81 87 66 55 42 35 34 32 32 34 36 37 43 85 84 76 73 76 72
22 22 21 18 19 25 36 68 88 82 65 73 80 93 91 84 70 64 57 62 62 61 65 67 74 89 86 90 66 52 55 39 36 35 35 36 39 39 66 81 80 77 76
25 26 25 26 24 26 34 56 83 88 70 63 71 88 84 79 64 58 56 56 55 68 72 76 77 79 86 90 93 82 62 50 39 36 36 38 40 41 40 63 85 84 82
29 29 28 27 27 30 43 62 88 96 90 79 71 69 73 67 64 61 58 58 62 76 75 78 79 83 82 80 92 85 67 58 48 41 36 34 37 40 41 42 44 53 85
38 38 34 34 33 32 52 81 91 88 88 93 91 77 80 90 78 68 65 66 78 84 78 83 86 86 92 83 97 93 87 76 67 60 46 40 41 42 39 41 42 43 47
41 41 38 36 38 45 58 82 82 82 88 78 72 72 73 71 66 67 68 68 72 89 83 81 80 82 78 74 78 68 72 62 70 61 56 56 50 51 48 44 44 47 50
58 48 42 39 40 47 53 83 86 77 78 77 74 70 71 67 70 69 68 69 75 79 88 81 71 72 67 65 75 69 83 70 50 52 65 57 48 50 48 49 49 49 51
74 67 60 51 51 50 59 79 88 79 80 78 75 73 72 68 70 73 78 72 72 77 79 78 76 72 76 73 80 82 71 71 77 58 41 45 39 39 43 47 49 51 54
88 79 70 60 61 76 76 91 87 90 85 85 84 84 75 70 69 69 72 76 79 77 77 77 80 81 83 86 84 88 88 84 77 85 84 81 68 56 52 50 51 62 66
89 88 87 87 90 90 95 96 96 95 91 90 90 89 84 85 76 74 77 78 77 77 76 77 83 86 86 90 88 88 82 82 84 80 78 65 71 55 54 54 58 66 74

GFSSE_sfc_rhum_111.txt.gz
RH
54 67 83 82 78 78 79 80 82 85 84 82 77 80 80 78 77 74 70 66 70 68 63 63 66 71 76 70 75 77 74 80 82 78 83 81 76 74 74 74 79 62 69
57 64 84 84 80 78 79 82 86 86 86 84 80 80 78 76 76 71 68 66 66 66 64 63 70 75 72 74 76 75 80 81 81 85 86 85 85 78 75 76 76 63 69
56 59 63 84 86 85 85 85 88 87 85 84 82 77 81 78 76 72 70 68 70 71 70 67 76 75 72 72 78 76 79 81 80 80 81 58 62 72 70 72 73 70 68
55 57 64 84 84 85 87 86 88 86 84 83 83 80 79 80 76 72 71 69 72 75 76 74 77 77 75 75 74 74 79 80 78 78 50 39 46 69 70 70 69 67 67
55 50 64 82 82 84 84 83 82 84 84 83 83 82 79 80 77 73 71 73 77 80 81 79 80 79 77 76 74 75 78 77 76 66 40 42 47 64 67 66 67 67 67
64 53 78 83 83 85 86 86 83 81 81 81 81 80 81 77 76 75 78 80 82 82 83 81 79 77 80 77 76 76 75 75 79 39 41 47 48 66 66 68 68 69 68
66 69 52 82 79 84 85 85 84 82 81 80 81 78 77 77 77 78 82 84 84 82 84 80 77 77 77 77 73 70 73 79 54 39 40 45 59 67 68 68 68 68 68
76 74 57 77 82 82 84 85 84 84 82 82 82 79 79 80 81 80 82 85 84 81 83 81 78 77 77 76 73 74 78 82 49 39 42 47 73 67 68 68 68 67 67
54 69 70 68 64 89 86 86 84 85 86 86 86 85 84 83 84 83 84 85 85 85 85 84 83 80 77 76 79 82 84 80 56 38 40 48 78 67 69 70 68 67 67
35 39 49 72 73 57 48 88 89 90 89 88 88 89 90 91 89 85 86 87 88 88 87 86 85 80 80 81 84 87 85 81 50 41 42 58 75 67 69 70 69 68 68
33 32 34 40 62 66 61 59 85 90 89 90 90 95 90 64 54 61 72 83 88 88 87 84 85 83 86 86 89 89 86 51 39 38 40 81 74 68 69 70 70 68 68
28 32 32 33 41 61 64 68 55 48 51 50 48 50 55 50 46 48 63 85 90 90 87 86 86 87 86 54 62 87 60 46 38 38 40 82 78 70 69 71 71 70 69
20 25 30 32 35 51 71 81 75 58 61 51 45 45 45 44 58 49 49 63 73 86 80 75 75 67 58 45 44 49 52 45 39 41 56 83 77 73 69 71 72 72 71
19 24 29 30 35 38 64 76 87 80 69 66 63 57 48 51 55 54 51 53 70 70 77 80 80 61 54 48 37 37 39 41 40 40 52 83 81 76 71 71 72 73 73
19 22 22 26 33 36 41 70 79 86 74 65 57 53 47 56 58 60 53 58 64 70 73 80 78 76 52 46 43 38 36 36 36 37 38 87 84 80 76 72 71 73 74
22 22 20 19 24 31 36 47 70 77 69 64 58 60 68 81 81 83 75 75 76 77 75 72 66 72 68 52 44 40 35 35 35 35 36 55 88 86 80 76 75 70 72
19 19 20 20 18 21 31 35 49 71 82 68 60 59 67 78 79 72 75 76 73 75 74 75 75 80 85 84 68 44 36 33 35 35 36 38 55 86 85 77 73 74 76
22 21 19 18 20 18 18 28 38 67 77 75 65 64 70 67 66 80 79 71 72 74 71 70 74 94 91 96 95 78 52 42 34 31 33 35 39 39 75 81 81 75 74
26 26 25 24 24 24 21 21 30 64 70 70 68 68 66 83 80 84 89 80 71 72 68 72 79 80 83 85 82 67 54 50 49 41 37 37 39 43 44 73 83 83 83
32 31 29 28 27 26 27 29 40 82 83 73 56 56 60 74 73 76 91 91 81 74 68 79 78 80 83 82 87 85 76 65 60 54 45 37 36 41 44 48 61 67 85
44 36 34 34 30 31 33 35 51 85 92 90 67 57 60 62 60 69 74 71 74 71 70 69 77 84 90 86 92 92 85 76 68 63 62 49 43 38 41 44 46 47 55
55 51 42 35 33 32 37 39 58 79 89 91 91 80 64 63 68 69 69 77 70 82 75 74 84 85 84 91 93 91 90 81 79 65 64 60 56 48 50 47 46 47 52
66 62 58 49 36 35 37 51 69 80 88 92 86 79 76 70 72 72 67 74 79 80 83 83 86 89 92 79 84 79 84 76 58 53 61 57 57 55 53 50 50 49 51
80 76 73 58 49 42 45 51 70 89 89 82 82 79 78 73 72 79 75 73 76 81 87 85 82 86 84 87 82 76 71 73 66 66 49 53 50 48 46 48 48 49 51
84 88 88 73 62 53 53 60 77 81 86 88 87 85 83 79 77 81 82 78 81 84 84 84 86 86 86 87 84 80 82 79 81 87 78 62 65 57 53 43 44 50 53
85 88 87 88 89 81 74 84 95 94 97 98 97 95 93 94 93 87 86 90 86 87 90 86 84 84 86 87 87 84 82 88 89 88 86 71 64 56 67 60 58 57 60

GFSSE_sfc_rhum_114.txt.gz
RH
68 73 83 82 78 79 80 80 83 86 85 82 74 77 80 79 77 73 69 69 70 68 63 65 68 73 70 72 75 75 81 82 76 83 85 83 77 73 75 78 76 69 69
62 70 84 85 80 79 82 84 86 88 87 84 81 81 76 76 77 71 67 67 70 66 62 63 67 75 73 75 78 80 80 80 83 86 86 86 84 78 75 76 77 69 68
65 67 71 86 85 84 84 87 86 85 85 84 83 80 79 78 76 71 68 66 67 67 67 64 74 75 72 77 78 72 79 79 81 85 82 76 78 74 73 74 74 69 67
62 68 66 86 84 85 86 86 87 85 84 82 83 80 79 80 77 73 71 68 72 75 76 75 79 79 76 77 74 72 79 78 80 81 74 63 63 71 71 70 67 67 67
69 69 68 82 84 84 83 82 83 85 84 83 83 82 81 76 78 74 72 74 78 81 80 80 82 82 79 79 71 72 77 75 78 73 60 68 75 67 66 65 68 69 68
68 77 81 83 83 86 85 85 83 82 83 82 81 83 80 77 78 76 79 81 82 83 81 82 82 80 82 82 74 74 77 75 78 71 60 69 73 67 69 70 69 68 68
76 72 72 82 83 84 85 85 85 83 82 81 81 80 78 78 77 81 83 84 84 85 82 82 79 78 80 80 76 77 76 79 75 73 54 72 75 68 68 69 69 68 68
68 72 73 80 84 83 85 85 86 84 83 84 83 82 81 80 80 81 83 85 86 84 80 82 80 78 79 78 74 74 80 80 61 61 59 82 77 67 68 69 69 68 68
53 51 60 76 77 86 85 86 86 85 86 86 87 86 85 84 84 81 85 85 85 85 81 85 83 81 78 79 81 84 83 80 83 69 52 81 79 67 68 69 69 69 68
43 48 46 51 70 72 70 87 88 87 88 88 89 89 90 90 88 87 87 86 85 86 87 87 85 84 84 83 84 87 85 80 86 69 58 79 77 68 69 70 68 68 68
42 45 43 47 45 65 70 73 87 89 91 91 92 95 94 93 80 81 84 84 88 88 88 87 86 86 86 86 88 88 86 83 68 62 65 84 74 68 70 71 71 68 68
35 39 43 46 49 47 66 78 78 69 82 81 81 81 91 82 74 62 76 85 90 89 90 86 86 86 90 90 97 92 95 81 66 56 77 85 74 68 70 72 73 71 70
30 36 38 40 47 50 57 88 98 85 86 74 59 61 66 63 66 68 78 85 96 94 96 89 88 84 91 80 76 93 89 77 64 60 78 85 75 68 69 72 73 74 73
30 32 36 39 41 50 60 88 93 98 89 94 82 76 70 71 73 68 70 80 90 92 96 96 95 85 79 69 65 70 72 68 64 62 83 85 81 71 70 71 73 74 74
33 34 36 36 39 44 52 64 92 96 96 86 88 84 68 74 74 73 73 74 92 94 95 97 96 90 84 67 58 54 55 60 59 58 80 88 85 81 74 72 73 74 74
28 31 31 34 35 41 48 52 68 93 92 87 83 80 74 87 89 89 88 88 89 92 95 96 95 93 94 86 62 56 50 48 53 52 62 84 87 84 82 74 74 74 74
31 31 30 28 28 32 35 42 47 75 89 94 90 86 83 82 83 87 89 92 92 93 93 96 95 94 96 89 83 72 59 48 50 48 51 68 82 89 85 75 73 73 75
44 36 34 30 32 32 33 36 42 47 86 92 89 85 82 79 78 88 89 92 89 94 95 95 96 98 98 98 94 92 82 62 45 40 43 45 63 60 84 83 80 77 75
50 48 41 39 39 39 36 38 36 39 83 92 91 90 89 88 85 91 92 95 94 96 89 90 94 96 99 99 97 94 82 61 56 47 53 49 50 56 61 78 84 83 83
57 57 56 45 44 44 48 48 52 70 87 93 93 96 90 87 89 96 96 93 91 91 92 92 92 93 95 95 94 95 94 76 70 66 55 45 47 45 54 57 74 76 86
65 66 65 65 53 50 54 56 55 62 93 96 96 84 79 82 82 92 96 84 85 89 84 87 89 93 94 95 97 97 94 88 91 90 72 59 51 43 45 47 55 71 65
78 78 79 73 70 62 56 58 59 78 93 94 92 91 85 80 76 83 86 87 91 93 91 85 87 95 93 94 97 97 97 92 91 84 77 70 65 66 62 55 53 54 55
82 84 80 80 84 76 54 62 70 81 92 93 92 89 88 83 87 84 88 90 93 94 97 94 94 95 96 95 96 90 98 91 82 87 81 73 68 66 62 56 56 58 54
80 79 80 82 86 77 70 65 72 85 90 91 88 90 90 80 80 93 91 86 93 95 95 95 94 94 96 95 96 91 84 88 85 85 75 81 72 70 66 61 56 52 51
81 86 85 86 85 87 89 81 89 95 97 91 90 94 96 98 96 94 94 94 94 95 96 95 95 97 96 97 98 97 97 96 96 96 89 78 78 68 65 59 56 55 50
84 88 84 84 85 88 91 90 96 97 96 95 95 96 97 96 95 94 92 94 93 93 94 96 96 96 97 96 97 98 95 96 95 94 95 86 82 65 59 67 61 57 59

GFSSE_sfc_rhum_117.txt.gz
RH
79 80 80 82 81 82 82 82 84 84 85 81 73 78 80 79 77 75 70 71 71 68 64 67 71 72 70 72 75 80 79 75 79 82 85 82 74 76 75 75 75 72 72
64 71 81 84 81 81 83 85 84 87 87 84 78 80 79 79 76 71 67 71 69 66 63 66 70 74 73 78 79 80 80 81 82 87 87 86 86 80 76 74 76 70 69
70 71 73 86 86 85 86 87 84 86 85 83 80 80 76 76 76 71 67 67 70 66 64 65 72 76 75 78 78 78 79 80 82 85 83 82 82 76 74 74 73 68 68
68 74 72 86 86 87 88 88 86 85 83 84 83 81 80 75 78 74 70 67 69 70 73 72 78 79 77 78 72 76 78 78 81 83 80 72 70 73 70 68 68 68 67
71 77 73 82 83 83 84 85 87 86 84 84 84 82 81 78 77 75 74 74 78 81 82 81 83 82 80 80 71 74 77 74 80 75 72 80 84 66 65 66 69 69 70
74 81 81 84 82 83 84 85 83 82 82 83 82 82 82 76 74 77 79 82 82 83 82 83 82 81 84 82 75 74 77 75 80 75 80 79 78 68 72 70 69 69 69
64 76 76 82 84 84 85 83 84 83 82 82 81 81 79 77 76 78 83 84 85 85 83 82 80 80 81 82 75 77 78 80 74 77 75 81 77 68 68 69 69 69 69
52 53 68 79 85 86 86 85 85 84 83 83 84 83 82 80 81 81 85 85 87 84 83 81 82 81 80 80 79 80 82 80 68 74 76 86 79 69 69 70 70 69 69
53 49 46 53 77 86 84 86 86 86 85 85 86 87 86 86 85 82 86 86 86 87 85 83 86 83 80 80 82 83 82 80 83 76 72 87 81 69 70 71 71 70 69
47 50 44 48 45 53 73 88 88 88 88 88 89 90 91 91 89 88 88 89 87 86 86 86 86 85 84 84 86 88 85 81 83 73 70 87 79 68 70 71 71 70 70
40 47 44 46 43 44 50 77 89 91 91 91 92 94 94 96 92 88 89 91 89 89 88 88 87 85 88 89 88 90 89 89 85 72 74 84 76 69 71 72 71 70 70
32 36 44 49 50 49 38 71 91 82 83 91 94 95 95 96 92 78 85 90 90 90 90 90 88 87 90 96 98 93 98 90 86 76 72 84 76 69 71 73 73 72 71
30 36 36 36 41 46 52 62 97 98 97 80 79 85 88 84 87 82 85 86 91 93 97 94 93 88 95 95 97 99 97 93 87 78 70 86 79 68 70 73 74 74 73
39 38 39 40 42 45 64 63 85 97 97 97 86 81 80 74 79 77 80 92 94 93 97 98 97 93 95 91 87 95 96 90 78 74 82 88 82 72 68 72 75 75 75
35 38 39 41 42 41 46 62 68 92 96 95 92 91 93 90 79 72 80 88 97 96 97 98 98 95 93 86 78 75 83 82 77 72 83 90 86 80 74 71 74 75 75
44 45 40 40 38 41 46 48 57 75 93 96 95 91 88 95 93 96 91 93 94 97 97 97 97 96 95 94 81 69 63 66 66 62 74 84 88 86 81 78 72 74 75
56 53 45 39 38 41 41 44 44 56 69 95 95 94 95 92 97 94 96 96 95 96 96 99 99 97 98 98 94 71 70 56 55 56 64 79 80 89 86 80 77 77 78
61 64 60 52 50 46 45 46 43 44 57 83 92 95 94 91 92 97 97 95 95 96 97 98 98 99 98 98 95 90 84 78 60 54 51 59 69 69 84 84 80 79 78
68 66 67 66 66 60 47 49 51 48 49 80 94 94 94 91 92 94 96 96 94 96 96 96 97 98 99 99 99 99 98 97 82 62 54 48 57 70 71 82 87 85 83
74 76 75 74 74 70 70 57 60 71 74 84 92 91 95 93 95 98 97 97 97 97 97 96 95 97 95 96 94 96 98 95 91 74 56 53 57 54 63 66 73 76 87
79 81 81 83 80 81 82 77 64 62 74 82 95 92 94 96 95 96 96 98 97 96 95 95 95 93 96 94 97 98 99 96 93 83 75 67 60 54 58 58 60 63 63
84 84 84 82 83 86 87 84 71 71 84 95 95 91 86 85 88 91 93 94 94 92 95 86 92 97 96 97 95 97 97 92 97 83 78 76 73 69 66 57 58 61 65
86 86 84 84 85 85 87 90 81 81 88 94 93 90 81 80 78 84 88 89 92 97 94 95 94 94 97 97 96 92 100 98 93 91 87 82 78 76 71 66 65 62 59
86 84 85 83 79 80 89 94 94 86 90 96 97 98 96 93 93 92 87 91 94 96 98 98 98 98 98 99 99 97 94 89 92 90 85 89 80 77 74 73 68 61 65
88 90 86 84 80 88 89 87 94 93 98 98 96 95 94 92 89 87 92 95 97 99 99 99 98 98 98 98 98 97 99 99 97 98 94 90 79 81 78 76 72 67 59
86 86 87 82 74 83 89 91 91 96 95 94 95 96 95 93 94 89 88 96 97 96 96 97 98 96 96 97 98 99 99 98 99 99 99 89 85 75 73 75 76 68 61

GFSSE_sfc_rhum_120.txt.gz
RH
78 77 81 82 82 82 82 83 83 85 84 81 76 80 80 79 76 72 71 72 70 67 64 71 74 67 69 73 78 76 74 75 77 81 79 77 75 74 74 74 75 78 76
73 73 80 84 82 82 82 83 87 87 86 83 77 80 80 80 74 69 70 72 70 66 64 69 74 72 75 75 79 79 79 81 84 86 88 88 87 79 74 73 74 72 72
77 73 71 85 86 86 84 84 86 87 86 84 80 79 79 77 75 70 68 71 70 66 63 66 73 75 76 77 78 79 80 80 82 85 84 87 89 76 73 73 71 69 69
71 82 77 85 83 85 86 86 86 85 84 84 82 80 78 76 77 74 70 68 70 70 71 70 77 78 78 76 74 79 80 80 83 84 81 77 74 73 69 68 68 68 68
74 78 78 84 81 82 85 86 86 84 84 85 84 83 81 78 76 77 74 73 77 79 82 81 81 81 80 79 74 76 78 77 81 75 77 86 88 67 64 68 69 69 71
65 79 81 85 81 84 84 83 82 80 81 83 85 82 82 78 76 78 80 83 83 83 82 82 84 82 84 82 76 76 77 75 78 79 87 83 82 68 70 71 71 70 69
45 57 76 82 81 84 84 83 83 82 82 82 82 79 78 78 77 78 84 85 85 84 82 81 84 82 83 82 74 75 80 83 77 80 86 90 83 70 71 70 70 70 70
51 48 47 71 83 85 85 85 85 85 84 84 84 83 80 80 80 82 86 87 88 83 81 82 84 82 82 80 77 81 86 83 71 77 79 89 80 68 70 71 70 70 70
55 49 43 45 49 71 82 84 86 87 87 86 86 87 87 87 87 84 87 88 87 87 87 86 86 86 83 81 84 86 87 81 81 76 74 90 83 69 70 72 71 70 70
40 54 49 48 43 40 41 78 89 88 89 88 88 90 92 92 90 89 89 90 90 88 86 87 86 88 86 85 87 87 86 84 86 76 76 90 80 70 71 72 72 71 70
37 37 46 52 48 47 43 50 79 90 94 94 93 93 94 96 94 91 91 93 90 90 88 86 87 87 89 89 90 91 91 97 89 78 75 84 79 69 71 73 73 72 71
35 35 41 40 44 45 37 48 68 79 95 93 91 94 97 97 96 87 90 92 91 90 91 89 87 90 91 95 96 93 98 97 91 82 73 81 79 70 72 73 74 73 73
38 45 47 45 47 48 48 58 76 88 96 95 94 84 88 88 97 94 93 89 95 93 95 93 95 93 95 96 98 98 98 97 95 88 74 81 81 70 72 74 75 74 74
44 48 51 48 45 47 59 64 69 86 90 97 97 94 86 85 95 93 91 88 94 93 94 97 97 96 97 96 96 97 97 96 91 84 83 84 85 76 71 74 76 76 75
55 59 56 52 49 46 48 57 61 69 82 89 95 94 97 94 86 82 77 78 94 96 96 98 98 98 97 96 94 91 94 96 92 80 80 86 87 84 76 74 75 76 76
62 65 62 58 56 54 53 50 53 62 65 81 93 93 90 97 97 96 92 92 92 96 96 96 98 98 97 96 94 87 81 86 84 78 76 75 90 88 82 78 75 74 75
72 70 69 62 62 68 62 58 50 56 53 76 86 94 95 92 96 96 96 98 95 98 97 98 98 99 98 98 97 91 80 76 75 76 73 76 84 90 87 81 79 78 77
77 80 75 67 72 74 74 67 58 52 56 63 84 93 92 93 92 95 97 97 94 97 99 99 97 97 96 96 96 97 92 82 72 68 64 69 78 75 85 86 82 80 80
79 82 81 78 79 80 78 77 72 65 59 71 84 91 89 86 89 97 96 95 96 97 98 98 99 98 96 95 96 98 98 96 94 87 89 74 64 71 71 82 89 86 84
82 82 81 81 82 82 86 87 85 82 78 82 85 90 86 93 95 98 96 95 95 99 98 99 98 99 98 98 99 99 98 98 98 98 97 93 90 60 68 69 76 81 90
82 84 84 86 84 79 77 81 88 90 86 82 84 86 93 93 88 94 95 94 97 98 97 97 98 98 99 97 97 97 98 98 97 95 96 95 84 67 58 61 65 70 69
88 88 85 78 81 74 80 82 85 94 90 89 93 92 91 89 87 88 88 91 90 97 99 99 98 99 98 97 98 97 97 96 98 95 92 90 87 85 79 60 60 59 65
93 93 85 84 77 75 80 81 86 93 90 94 94 96 89 90 93 95 97 95 95 97 97 96 96 97 93 98 95 92 98 97 97 97 95 90 87 86 81 77 74 66 63
92 92 87 80 76 77 83 83 88 90 94 96 92 89 91 86 86 88 95 96 94 91 94 93 91 92 98 96 99 99 98 94 95 94 90 94 90 90 90 91 84 76 69
92 95 90 84 72 76 86 88 93 94 92 91 90 91 88 87 86 87 88 91 94 93 93 96 96 98 98 98 99 97 99 99 99 98 97 94 91 88 87 87 86 77 74
92 92 90 81 74 74 80 85 89 92 92 93 91 92 92 88 88 85 87 90 91 95 93 95 98 98 98 97 98 98 99 99 99 99 98 95 94 91 93 88 79 76 75

GFSSE_sfc_rhum_126.txt.gz
RH
84 72 81 78 77 79 81 79 80 82 83 81 80 79 78 78 74 70 72 71 68 64 68 67 64 65 67 74 73 72 68 66 69 72 80 80 74 69 73 79 81 78 70
67 74 81 79 76 78 82 82 83 84 84 79 74 80 79 77 72 68 70 71 69 65 64 71 67 67 69 76 76 75 76 80 79 84 87 88 83 74 72 74 77 79 77
77 77 77 81 79 80 83 82 85 83 81 79 78 79 79 77 73 69 68 71 71 66 64 69 72 71 73 77 79 77 79 82 85 87 89 92 87 75 72 72 71 71 73
66 83 78 82 79 79 81 82 83 83 81 81 80 80 80 78 76 73 70 68 73 73 70 69 72 79 78 81 79 79 79 82 83 83 87 87 80 73 69 70 68 68 69
48 68 82 81 80 78 78 79 81 81 81 83 83 82 82 80 77 78 76 74 75 78 80 81 81 81 81 80 78 80 79 82 84 76 83 92 92 71 66 67 67 68 71
48 49 70 82 83 82 80 79 78 79 79 80 82 83 82 81 79 78 82 85 84 84 79 81 82 83 84 82 76 80 80 82 78 84 90 90 90 70 66 69 70 70 69
54 50 45 62 63 66 70 83 83 80 78 79 80 81 82 81 78 78 84 87 87 84 80 79 81 83 85 83 76 75 81 85 83 87 93 94 89 71 68 70 70 70 69
49 55 48 52 53 55 60 67 67 73 84 84 82 81 78 80 82 83 85 87 86 83 82 79 82 83 86 85 79 81 85 88 79 81 91 96 85 75 69 69 71 70 70
45 46 45 44 44 48 50 55 56 56 65 83 87 86 87 87 86 81 86 87 86 86 87 88 87 88 88 88 86 85 88 91 91 82 73 94 84 77 68 69 72 71 70
44 52 49 49 46 43 42 51 56 58 63 67 83 91 94 95 93 90 91 91 88 89 91 90 88 88 89 89 87 88 91 93 95 83 82 88 81 77 68 71 72 72 71
50 58 60 60 54 51 42 45 56 56 58 62 75 83 87 96 96 95 94 93 91 90 89 90 90 90 91 94 88 89 93 98 97 91 84 79 78 77 70 72 73 72 72
58 68 71 67 65 59 47 64 62 50 64 68 74 81 86 94 97 94 97 96 93 92 91 90 89 90 93 97 97 93 96 98 98 95 84 74 77 76 73 75 74 74 73
68 76 74 72 71 69 69 72 72 68 76 73 74 78 87 82 94 97 99 99 98 96 96 94 95 93 96 98 98 98 98 99 98 98 82 76 70 72 74 75 77 76 74
77 76 77 79 77 78 83 80 76 79 80 82 70 75 89 94 96 97 99 98 99 98 96 97 98 95 96 97 96 97 97 98 97 97 96 86 76 68 73 72 78 78 76
79 79 81 82 82 78 83 88 86 81 81 78 74 73 83 92 96 97 97 97 98 98 98 95 96 97 97 97 98 97 97 97 96 94 94 91 86 77 72 73 76 76 77
79 82 84 80 80 83 86 91 90 90 83 77 76 74 70 88 96 97 97 97 97 98 97 96 93 94 96 96 96 94 94 96 96 96 95 96 89 85 78 74 76 74 76
85 84 88 76 78 88 91 92 94 94 86 89 88 82 77 79 88 92 97 97 97 97 97 97 95 92 97 95 93 91 93 95 97 96 95 96 93 90 86 75 75 79 78
87 91 87 77 87 91 95 94 95 93 97 91 91 90 81 79 86 95 98 98 98 98 95 87 85 87 92 94 91 94 93 95 94 94 94 95 93 89 88 88 84 81 81
88 89 89 87 90 88 86 81 88 93 98 97 96 95 93 96 95 96 97 96 94 95 97 90 88 95 94 93 92 93 93 93 94 93 93 92 91 90 90 87 92 91 89
89 89 90 88 88 83 76 77 86 94 97 98 98 92 84 84 81 84 84 82 84 93 96 96 91 85 90 90 93 93 97 94 98 97 92 89 88 87 90 92 98 97 95
88 89 89 88 86 86 91 83 80 81 95 94 84 76 78 77 80 90 92 93 93 90 87 93 91 91 88 90 97 94 96 89 91 94 94 96 95 93 94 94 95 94 94
92 92 88 85 82 84 86 86 85 82 92 93 91 84 83 81 86 81 90 88 88 92 92 88 94 94 95 93 95 98 97 98 95 92 92 95 95 94 93 94 96 93 94
92 94 88 85 79 81 90 86 84 89 92 85 91 90 85 82 83 84 87 89 90 91 95 94 91 77 84 91 95 97 99 98 97 96 92 90 92 95 90 93 96 94 92
92 93 91 82 77 71 89 94 96 91 89 96 95 91 90 81 81 80 84 85 85 89 93 95 92 95 88 89 90 96 96 93 96 94 94 93 90 92 91 94 95 94 93
92 94 93 86 75 76 86 93 96 96 96 94 93 89 84 81 79 74 82 84 84 85 88 92 94 96 95 97 95 98 98 99 99 99 94 95 98 96 93 97 97 98 93
92 93 91 82 71 72 78 87 91 91 91 90 90 89 89 87 79 70 76 81 85 86 88 90 90 92 95 94 96 95 91 92 92 93 96 87 87 97 98 99 98 97 96